[[{"header":{"parameterUnit":"m.s-1","parameterCategory":1,"la1":30.6,"la2":29.2853,"lo1":-89.7004,"lo2":-87.6739,"dy":0.0162,"dx":0.0183,"nx":112,"ny":82,"refTime":"2024-03-05T18:00:00:Z","depth":0,"parameterNumber":2,"parameterNumberName":"U-component_of_WINDS"},"data":[0.0,0.0,0.0,0.0,0.0,0.0,0.0,0.0,0.0,0.0,0.0,0.0,0.0,0.0,0.0,0.0,0.0,0.0,0.0,0.0,0.0,0.0,0.0,0.0,0.0,0.0,0.0,0.0,0.0,0.0,0.0,0.0,0.0,0.0,0.0,0.0,0.0,0.0,0.0,0.0,0.0,0.0,0.0,0.0,0.0,0.0,0.0,0.0,0.0,0.0,0.0,0.0,0.0,0.0,0.0,0.0,0.0,0.0,0.0,0.0,0.0,0.0,0.0,0.0,0.0,0.0,0.0,0.0,0.0,0.0,0.0,0.0,0.0,0.0,0.0,0.0,0.0,0.0,0.0,0.0,0.0,0.0,0.0,0.0,0.0,0.0,0.0,0.0,0.0,0.0,4.0096,4.0096,4.0096,4.0096,4.0096,4.0096,4.0266,4.0676,0.0,0.0,0.0,0.0,0.0,0.0,0.0,0.0,0.0,0.0,0.0,0.0,0.0,0.0,0.0,0.0,0.0,0.0,0.0,0.0,0.0,0.0,0.0,0.0,0.0,0.0,0.0,0.0,0.0,0.0,0.0,0.0,0.0,0.0,0.0,0.0,0.0,0.0,0.0,0.0,0.0,0.0,0.0,0.0,0.0,0.0,0.0,0.0,0.0,0.0,0.0,0.0,0.0,0.0,0.0,0.0,0.0,0.0,0.0,0.0,0.0,0.0,0.0,0.0,0.0,0.0,0.0,0.0,0.0,0.0,0.0,0.0,0.0,0.0,0.0,0.0,0.0,0.0,0.0,0.0,0.0,0.0,0.0,0.0,0.0,0.0,0.0,0.0,0.0,0.0,0.0,0.0,0.0,0.0,0.0,0.0,0.0,0.0,0.0,0.0,0.0,0.0,0.0,0.0,4.0096,4.0096,4.0096,4.0096,4.0096,4.0096,4.0121,4.0209,0.0,0.0,0.0,0.0,0.0,0.0,0.0,0.0,0.0,0.0,0.0,0.0,0.0,0.0,0.0,0.0,0.0,0.0,0.0,0.0,0.0,0.0,0.0,0.0,0.0,0.0,0.0,0.0,0.0,0.0,0.0,0.0,0.0,0.0,0.0,0.0,0.0,0.0,0.0,0.0,0.0,0.0,0.0,0.0,0.0,0.0,0.0,0.0,0.0,0.0,0.0,0.0,0.0,0.0,0.0,0.0,0.0,0.0,0.0,0.0,0.0,0.0,0.0,0.0,0.0,0.0,0.0,0.0,0.0,0.0,0.0,0.0,0.0,0.0,0.0,0.0,0.0,0.0,0.0,0.0,0.0,0.0,0.0,0.0,0.0,0.0,0.0,0.0,0.0,0.0,0.0,0.0,0.0,0.0,0.0,0.0,0.0,0.0,0.0,0.0,0.0,0.0,0.0,4.0096,4.0096,4.0096,4.0096,4.0096,4.0096,4.0096,4.0096,4.0096,4.0291,0.0,0.0,0.0,0.0,0.0,0.0,0.0,0.0,0.0,0.0,0.0,0.0,0.0,0.0,0.0,0.0,0.0,0.0,0.0,0.0,0.0,0.0,0.0,0.0,0.0,0.0,0.0,0.0,0.0,0.0,0.0,0.0,0.0,0.0,0.0,0.0,0.0,0.0,0.0,0.0,0.0,0.0,0.0,0.0,0.0,0.0,0.0,0.0,0.0,0.0,0.0,0.0,0.0,0.0,0.0,0.0,0.0,0.0,0.0,0.0,0.0,0.0,0.0,0.0,0.0,0.0,0.0,0.0,0.0,0.0,0.0,0.0,0.0,0.0,0.0,0.0,0.0,0.0,0.0,0.0,0.0,0.0,0.0,0.0,0.0,0.0,0.0,0.0,0.0,0.0,0.0,0.0,0.0,0.0,0.0,0.0,0.0,0.0,0.0,0.0,0.0,0.0,4.0096,4.0096,4.0096,4.0096,4.0096,4.0096,4.0096,4.0146,4.0254,4.0271,0.0,0.0,0.0,0.0,0.0,0.0,0.0,0.0,0.0,0.0,0.0,0.0,0.0,0.0,0.0,0.0,0.0,0.0,0.0,0.0,0.0,0.0,0.0,0.0,0.0,0.0,0.0,0.0,0.0,0.0,0.0,0.0,0.0,0.0,0.0,0.0,0.0,0.0,0.0,0.0,0.0,0.0,0.0,0.0,0.0,0.0,0.0,0.0,0.0,0.0,0.0,0.0,0.0,0.0,0.0,0.0,0.0,0.0,0.0,0.0,0.0,0.0,0.0,0.0,0.0,0.0,0.0,0.0,0.0,0.0,0.0,0.0,0.0,0.0,0.0,0.0,0.0,0.0,0.0,0.0,0.0,0.0,0.0,0.0,0.0,0.0,0.0,0.0,0.0,0.0,0.0,0.0,0.0,0.0,0.0,0.0,0.0,0.0,0.0,0.0,0.0,0.0,4.0096,4.0096,4.0096,4.0096,4.0096,4.0096,4.0096,4.0279,4.0719,4.0742,0.0,0.0,0.0,0.0,0.0,0.0,0.0,0.0,0.0,0.0,0.0,0.0,0.0,0.0,0.0,0.0,0.0,0.0,0.0,0.0,0.0,0.0,0.0,0.0,0.0,0.0,0.0,0.0,0.0,0.0,0.0,0.0,0.0,0.0,0.0,0.0,0.0,0.0,0.0,0.0,0.0,0.0,0.0,0.0,0.0,0.0,0.0,0.0,0.0,0.0,0.0,0.0,0.0,0.0,0.0,0.0,0.0,0.0,0.0,0.0,0.0,0.0,0.0,0.0,0.0,0.0,0.0,0.0,0.0,0.0,0.0,0.0,0.0,0.0,0.0,0.0,0.0,0.0,0.0,0.0,0.0,0.0,0.0,0.0,0.0,0.0,0.0,0.0,0.0,0.0,0.0,0.0,0.0,0.0,0.0,0.0,0.0,0.0,0.0,0.0,0.0,0.0,4.0096,4.0096,0.0,4.0096,4.0096,4.0096,4.0096,4.0184,4.0353,0.0,0.0,0.0,0.0,0.0,0.0,0.0,0.0,0.0,0.0,0.0,0.0,0.0,0.0,0.0,0.0,0.0,0.0,0.0,0.0,0.0,0.0,0.0,0.0,0.0,0.0,0.0,0.0,0.0,0.0,0.0,0.0,0.0,0.0,0.0,0.0,0.0,0.0,0.0,0.0,0.0,0.0,0.0,0.0,0.0,0.0,0.0,0.0,0.0,0.0,0.0,0.0,0.0,0.0,0.0,0.0,0.0,0.0,0.0,0.0,0.0,0.0,0.0,0.0,0.0,0.0,0.0,0.0,0.0,0.0,0.0,0.0,0.0,0.0,0.0,0.0,0.0,0.0,0.0,0.0,0.0,0.0,0.0,0.0,0.0,0.0,0.0,0.0,0.0,0.0,0.0,0.0,0.0,0.0,0.0,0.0,0.0,0.0,0.0,0.0,0.0,0.0,4.0087,4.0096,4.0096,0.0,4.0096,4.0096,4.0096,4.0096,4.0159,4.0316,0.0,0.0,0.0,0.0,0.0,0.0,0.0,0.0,0.0,0.0,0.0,0.0,0.0,0.0,0.0,0.0,0.0,0.0,0.0,0.0,0.0,0.0,0.0,0.0,0.0,0.0,0.0,0.0,0.0,0.0,0.0,0.0,0.0,0.0,0.0,0.0,0.0,0.0,0.0,0.0,0.0,0.0,0.0,0.0,0.0,0.0,0.0,0.0,0.0,0.0,0.0,0.0,0.0,0.0,0.0,0.0,0.0,0.0,0.0,0.0,0.0,0.0,0.0,0.0,0.0,0.0,0.0,0.0,0.0,0.0,0.0,0.0,0.0,0.0,0.0,0.0,0.0,0.0,0.0,0.0,0.0,0.0,0.0,0.0,0.0,0.0,0.0,0.0,0.0,0.0,0.0,0.0,0.0,0.0,0.0,0.0,0.0,0.0,0.0,0.0,0.0,0.0,4.0007,4.01,4.0096,4.0096,4.0096,4.0096,4.0096,4.0096,4.0291,0.0,0.0,0.0,0.0,0.0,0.0,0.0,0.0,0.0,0.0,0.0,0.0,0.0,0.0,0.0,0.0,0.0,0.0,0.0,0.0,0.0,0.0,0.0,0.0,0.0,0.0,0.0,0.0,0.0,0.0,0.0,0.0,0.0,0.0,0.0,0.0,0.0,0.0,0.0,0.0,0.0,0.0,0.0,0.0,0.0,0.0,0.0,0.0,0.0,0.0,0.0,0.0,0.0,0.0,0.0,0.0,0.0,0.0,0.0,0.0,0.0,0.0,0.0,0.0,0.0,0.0,0.0,0.0,0.0,0.0,0.0,0.0,0.0,0.0,0.0,0.0,0.0,0.0,0.0,0.0,0.0,0.0,0.0,0.0,0.0,0.0,0.0,0.0,0.0,0.0,0.0,0.0,0.0,0.0,0.0,0.0,0.0,0.0,0.0,0.0,0.0,0.0,0.0,3.9444,3.9837,4.0096,4.0096,4.0096,4.0096,4.0096,4.0096,4.0159,4.0291,0.0,0.0,0.0,0.0,0.0,0.0,0.0,0.0,0.0,0.0,0.0,0.0,0.0,0.0,0.0,0.0,0.0,0.0,0.0,0.0,0.0,0.0,0.0,0.0,0.0,0.0,0.0,0.0,0.0,0.0,0.0,0.0,0.0,0.0,0.0,0.0,0.0,0.0,0.0,0.0,0.0,0.0,0.0,0.0,0.0,0.0,0.0,0.0,0.0,0.0,0.0,0.0,0.0,0.0,0.0,0.0,0.0,0.0,0.0,0.0,0.0,0.0,0.0,0.0,0.0,0.0,0.0,0.0,0.0,0.0,0.0,0.0,0.0,0.0,0.0,0.0,0.0,0.0,0.0,0.0,0.0,0.0,0.0,0.0,0.0,0.0,0.0,0.0,0.0,0.0,0.0,0.0,0.0,0.0,0.0,0.0,0.0,0.0,0.0,0.0,0.0,0.0,3.9152,3.9526,3.9825,4.007,4.0096,4.0087,4.0024,4.0024,4.0024,4.0024,0.0,0.0,0.0,0.0,0.0,0.0,0.0,0.0,0.0,0.0,0.0,0.0,0.0,0.0,0.0,0.0,0.0,0.0,0.0,0.0,0.0,0.0,0.0,0.0,0.0,0.0,0.0,0.0,0.0,0.0,0.0,0.0,0.0,0.0,0.0,0.0,0.0,0.0,0.0,0.0,0.0,0.0,0.0,0.0,0.0,0.0,0.0,0.0,0.0,0.0,0.0,0.0,0.0,0.0,0.0,0.0,0.0,0.0,0.0,0.0,0.0,0.0,0.0,0.0,0.0,0.0,0.0,0.0,0.0,0.0,0.0,0.0,0.0,0.0,0.0,0.0,0.0,0.0,0.0,0.0,0.0,0.0,0.0,0.0,0.0,0.0,0.0,0.0,0.0,0.0,0.0,0.0,0.0,0.0,0.0,0.0,0.0,0.0,0.0,0.0,0.0,0.0,3.8865,3.9095,3.9391,3.9927,4.0058,4.0049,3.9914,3.9901,3.9901,3.9888,0.0,0.0,0.0,0.0,0.0,0.0,0.0,0.0,0.0,0.0,0.0,0.0,0.0,0.0,0.0,0.0,0.0,0.0,0.0,0.0,0.0,0.0,0.0,0.0,0.0,0.0,0.0,0.0,0.0,0.0,0.0,0.0,0.0,0.0,0.0,0.0,0.0,0.0,0.0,0.0,0.0,0.0,0.0,0.0,0.0,0.0,0.0,0.0,0.0,0.0,0.0,0.0,0.0,0.0,0.0,0.0,0.0,0.0,0.0,0.0,2.8853,0.0,0.0,0.0,0.0,0.0,0.0,0.0,0.0,0.0,0.0,0.0,0.0,0.0,0.0,0.0,0.0,0.0,0.0,0.0,0.0,0.0,0.0,0.0,0.0,0.0,0.0,0.0,0.0,0.0,0.0,0.0,0.0,0.0,0.0,0.0,0.0,0.0,0.0,0.0,0.0,0.0,3.7516,3.8388,3.9005,3.9139,3.9731,4.0049,3.9914,3.9901,3.9845,3.9742,3.9742,0.0,0.0,0.0,0.0,0.0,0.0,0.0,0.0,0.0,0.0,0.0,0.0,0.0,0.0,0.0,0.0,0.0,0.0,0.0,0.0,0.0,0.0,0.0,0.0,0.0,0.0,0.0,0.0,0.0,0.0,0.0,0.0,0.0,0.0,0.0,0.0,0.0,0.0,0.0,0.0,0.0,0.0,0.0,0.0,0.0,0.0,0.0,0.0,0.0,0.0,0.0,0.0,0.0,0.0,0.0,0.0,0.0,0.0,0.0,0.0,2.7839,0.0,0.0,0.0,0.0,0.0,0.0,0.0,0.0,0.0,0.0,0.0,0.0,0.0,0.0,0.0,0.0,0.0,0.0,0.0,0.0,0.0,0.0,0.0,0.0,0.0,0.0,0.0,0.0,0.0,0.0,0.0,0.0,0.0,0.0,0.0,0.0,0.0,0.0,0.0,0.0,3.6966,3.7559,3.8161,3.8745,3.9166,3.9493,3.9694,3.9707,3.9681,3.9616,3.9603,0.0,0.0,0.0,0.0,0.0,0.0,0.0,0.0,0.0,0.0,0.0,0.0,0.0,0.0,0.0,0.0,0.0,0.0,0.0,0.0,0.0,0.0,0.0,0.0,0.0,0.0,0.0,0.0,0.0,0.0,0.0,0.0,0.0,0.0,0.0,0.0,0.0,0.0,0.0,0.0,0.0,0.0,0.0,0.0,0.0,0.0,0.0,0.0,0.0,0.0,0.0,0.0,0.0,2.5665,2.5853,2.5853,2.5874,2.5895,2.5895,2.5895,2.6302,2.6981,2.7144,0.0,0.0,0.0,0.0,0.0,0.0,0.0,0.0,0.0,0.0,0.0,0.0,0.0,0.0,0.0,0.0,0.0,0.0,0.0,0.0,0.0,0.0,0.0,0.0,3.1005,3.1371,0.0,0.0,0.0,0.0,0.0,0.0,0.0,0.0,0.0,0.0,0.0,0.0,3.6786,3.6955,3.7485,3.8743,3.8984,3.9246,3.9661,3.9684,3.9634,3.9475,3.9475,3.9524,0.0,0.0,0.0,0.0,0.0,0.0,0.0,0.0,0.0,0.0,0.0,0.0,0.0,0.0,0.0,0.0,0.0,0.0,0.0,0.0,0.0,0.0,0.0,0.0,0.0,0.0,0.0,0.0,0.0,0.0,0.0,0.0,1.9188,1.9188,0.0,0.0,0.0,0.0,0.0,0.0,0.0,0.0,0.0,0.0,0.0,0.0,0.0,2.1686,2.1819,2.267,2.3391,2.4059,2.5115,2.5644,2.5654,2.5812,2.5895,2.5895,2.5895,0.0,2.6135,2.6878,0.0,0.0,0.0,0.0,0.0,0.0,0.0,0.0,0.0,0.0,0.0,0.0,0.0,0.0,0.0,0.0,0.0,0.0,0.0,0.0,0.0,0.0,3.1005,3.1005,3.1005,3.1061,0.0,3.1408,3.1726,3.2523,3.3231,0.0,0.0,0.0,0.0,0.0,0.0,0.0,3.6632,3.7181,3.7997,3.9352,4.0108,4.0506,4.046,4.0453,4.013,3.9375,3.9325,3.9395,3.9528,3.9528,0.0,0.0,0.0,0.0,0.0,0.0,0.0,0.0,0.0,0.0,0.0,0.0,0.0,0.0,0.0,0.0,0.0,0.0,0.0,0.0,0.0,0.0,0.0,0.0,0.0,0.0,0.0,0.0,0.0,1.8804,1.8804,1.8804,1.8804,1.8804,0.0,0.0,0.0,0.0,0.0,0.0,0.0,0.0,0.0,2.069,2.1235,2.1774,2.2306,2.34,2.4102,2.4445,2.5073,2.538,2.538,2.5464,2.5506,2.5506,2.5665,2.5728,2.577,2.6281,2.6766,2.7205,0.0,0.0,0.0,0.0,2.8644,2.8959,2.8959,2.9225,0.0,2.9537,0.0,0.0,0.0,0.0,0.0,0.0,0.0,0.0,0.0,0.0,3.1005,3.1005,3.1005,3.1005,3.1005,3.131,3.1698,0.0,3.2826,3.3709,3.4911,0.0,0.0,0.0,0.0,3.6774,3.7057,3.7325,3.7864,3.8823,3.9235,3.9729,4.0422,4.049,4.0487,4.0484,4.0481,4.0509,4.0564,4.028,3.9922,0.0,0.0,0.0,0.0,0.0,0.0,0.0,0.0,0.0,0.0,0.0,0.0,0.0,0.0,0.0,0.0,0.0,0.0,0.0,0.0,0.0,0.0,0.0,0.0,0.0,0.0,0.0,0.0,1.8804,1.8804,1.8804,1.8804,1.8804,0.0,0.0,0.0,0.0,0.0,0.0,1.9371,1.9027,1.9302,2.0411,2.0786,2.1284,2.1987,2.3379,2.4091,2.4091,2.4786,2.5115,2.5115,2.5179,2.5242,2.5317,2.5443,2.5559,2.5686,2.5833,2.6281,2.6869,2.6869,2.7235,2.7758,2.7758,2.7887,2.8099,2.8099,2.8227,2.8406,2.8406,2.8841,2.9284,2.8861,0.0,0.0,0.0,0.0,3.1005,3.1005,3.1005,3.1031,3.1169,3.1209,3.1248,3.1411,3.1757,3.2029,0.0,3.275,3.3774,3.5027,0.0,0.0,0.0,0.0,3.7464,3.7644,3.7659,3.7978,3.8854,3.8936,3.932,4.033,4.0572,4.0804,4.1124,4.1309,4.1394,4.1394,4.1026,4.0446,3.9684,0.0,0.0,0.0,0.0,0.0,0.0,0.0,0.0,0.0,0.0,0.0,0.0,0.0,0.0,0.0,0.0,0.0,0.0,0.0,0.0,0.0,0.0,0.0,0.0,0.0,0.0,0.0,0.0,0.0,1.8804,1.8804,0.0,0.0,0.0,0.0,1.8804,1.8804,1.8804,1.885,1.8804,1.8827,1.892,1.8935,1.8958,1.9027,2.0912,2.1872,2.1895,2.394,2.4924,2.4924,2.5115,2.5338,2.5559,2.5317,2.5464,2.5885,2.5895,2.5916,2.5958,2.5958,2.5979,2.6021,2.6021,2.6539,2.7255,2.7255,2.7758,2.8406,2.8406,2.8426,2.8604,2.9401,2.9665,0.0,0.0,3.1005,3.1005,3.1005,3.1005,3.1117,3.1628,3.1758,3.1915,3.2489,3.2653,3.2496,0.0,3.2859,3.4058,3.4947,0.0,3.6479,3.7284,3.7387,3.7629,3.8275,3.8365,3.887,4.0257,4.0387,4.0397,4.0402,4.1051,4.1145,4.0498,4.1052,4.1394,4.1394,4.1361,4.1029,4.0356,4.0454,0.0,0.0,0.0,0.0,0.0,0.0,0.0,0.0,0.0,0.0,0.0,0.0,0.0,0.0,0.0,0.0,0.0,0.0,0.0,0.0,0.0,0.0,0.0,0.0,0.0,0.0,0.0,0.0,1.8804,1.8804,0.0,1.8804,1.8804,1.8804,1.8804,1.8804,1.8804,1.8804,1.8804,1.8804,1.8804,1.9432,2.0195,2.1109,2.2387,2.3496,2.4409,2.5189,2.5543,2.5543,2.561,2.5708,2.5797,2.6005,2.6203,2.6366,2.6683,2.6452,2.5895,2.5895,2.5895,2.5895,2.5895,2.6104,2.6364,2.6364,2.656,2.6867,2.7447,2.7255,2.7174,2.9108,2.9303,2.9037,2.9928,3.0822,3.1401,3.0887,3.141,3.2136,3.2333,3.2385,3.245,3.2646,3.3019,3.3208,3.2999,3.3401,3.4205,3.5517,3.6356,3.7265,3.8507,3.8688,3.8763,3.902,3.9032,3.9247,3.974,3.9788,3.9967,4.043,4.0717,4.1132,4.1779,4.2038,4.2371,4.2789,4.1958,4.1142,4.0481,3.9614,3.9029,0.0,0.0,0.0,0.0,0.0,0.0,0.0,0.0,0.0,0.0,0.0,0.0,0.0,0.0,0.0,0.0,0.0,0.0,0.0,0.0,0.0,0.0,0.0,0.0,0.0,0.0,1.8804,1.8804,1.8804,1.8804,1.8804,1.8804,1.8804,1.8804,1.8915,1.901,1.901,1.9113,1.9177,1.9177,1.9816,2.0615,2.155,2.2492,2.3612,2.489,2.5197,2.5558,2.5897,2.5897,2.5953,2.601,2.6268,2.6458,2.6615,2.685,2.666,2.628,2.6344,2.6376,2.6376,2.6376,2.6376,2.6376,2.6376,2.6376,2.6461,2.7053,2.6842,2.6736,2.8724,2.9137,2.9117,2.9987,3.1136,3.1987,3.1444,3.2003,3.2738,3.2967,3.2999,3.3038,3.3221,3.3587,3.3862,3.3862,3.3946,3.4513,3.61,3.6779,3.7628,3.9172,3.9406,3.9406,3.9406,3.9406,3.9406,3.9406,3.9406,3.9607,4.0076,4.0548,4.1142,4.1852,4.2333,4.2695,4.2881,4.2007,4.1167,4.0521,3.9337,3.8629,3.84,0.0,0.0,0.0,0.0,0.0,0.0,0.0,0.0,0.0,0.0,0.0,0.0,0.0,0.0,0.0,0.0,0.0,0.0,0.0,0.0,0.0,0.0,0.0,1.8804,1.8804,1.8804,1.8804,1.8804,1.8804,1.8804,1.8812,1.882,1.882,1.9185,1.9407,1.9407,1.9717,1.9892,1.9892,1.9892,1.9941,2.0022,2.0925,2.1921,2.3046,2.3961,2.494,2.5939,2.5939,2.6052,2.6232,2.6029,2.6198,2.6613,2.6355,2.6568,2.7036,2.7226,2.7293,2.7293,2.7293,2.7293,2.7293,2.7293,2.7293,2.7293,2.7293,2.7304,2.7503,2.8385,2.9284,3.021,3.1083,3.1994,3.2725,3.2692,3.2705,3.2894,3.3503,3.3613,3.3757,3.428,3.4397,3.4397,3.4397,3.4397,3.493,3.6582,3.688,3.7453,3.9104,3.9388,0.0,3.9406,3.9406,3.9406,3.9406,3.9406,3.9406,3.9406,4.0651,4.1176,4.0547,4.1771,4.2221,4.1525,4.1476,4.1144,4.0478,3.977,3.9095,3.8422,0.0,0.0,0.0,0.0,0.0,0.0,0.0,0.0,0.0,0.0,0.0,0.0,0.0,0.0,0.0,0.0,0.0,0.0,0.0,0.0,0.0,1.8804,1.8804,1.8804,1.8804,1.8804,1.8804,1.8804,1.8804,1.8804,1.9066,1.9248,1.9248,1.9558,1.9757,1.9757,1.9837,1.9892,1.9892,1.9892,2.0767,2.2573,2.2838,2.4016,2.6094,2.634,2.6644,2.6926,2.6926,2.6949,2.6996,2.709,2.7207,2.7323,2.7452,2.7592,2.7667,2.7252,2.7182,2.7293,2.7293,2.7293,2.7293,2.7293,2.7293,2.7293,2.7293,2.7755,2.8494,2.9348,3.0273,3.107,3.1308,3.2329,3.3217,3.2567,3.3171,3.3966,3.4136,3.4175,3.4214,3.4358,3.4397,3.4397,3.4397,3.4397,3.4758,3.5856,3.6503,3.7276,3.8371,3.9031,0.0,3.9406,3.9406,3.9406,3.9406,3.9406,3.9406,3.9406,3.9737,4.0128,4.0478,4.0856,4.1194,4.1492,4.1026,4.0443,3.9717,3.9499,3.9316,0.0,0.0,0.0,0.0,0.0,0.0,0.0,0.0,0.0,0.0,0.0,0.0,0.0,0.0,0.0,0.0,0.0,0.0,0.0,0.0,0.0,0.0,1.8804,1.8804,1.8804,1.8804,1.886,1.9034,1.9058,1.9105,1.9248,1.9479,1.9606,1.9606,1.9916,2.0107,2.0107,2.025,2.0313,2.0313,2.0744,2.1675,2.3137,2.3569,2.4759,2.662,2.662,2.687,2.7309,2.7309,2.7309,2.7309,2.7428,2.7465,2.7489,2.7655,2.7773,0.0,0.0,0.0,0.0,0.0,2.7826,2.7938,2.7938,2.7938,2.7938,2.7938,2.831,2.89,2.9799,3.047,3.1068,3.1859,3.2687,3.3322,3.3205,3.3783,3.4397,3.4397,3.4397,3.4397,3.4397,3.4397,3.4397,3.4397,3.4397,0.0,3.5073,3.6142,3.7199,3.8075,3.8885,3.9406,3.9406,3.9406,3.9406,3.9406,3.9406,3.9406,3.9406,3.9681,0.0,0.0,0.0,4.0547,4.0617,4.025,0.0,0.0,0.0,3.9406,3.9406,0.0,0.0,0.0,3.7252,3.6877,0.0,0.0,0.0,0.0,0.0,0.0,0.0,0.0,0.0,0.0,0.0,0.0,0.0,0.0,0.0,0.0,1.8844,1.8868,1.8868,1.89,1.905,1.9367,1.9431,1.9566,1.9861,1.9924,1.9948,1.9948,2.0373,2.0648,2.0648,0.0,0.0,0.0,0.0,2.2744,2.2845,2.38,2.482,2.5887,2.5887,2.638,2.7309,2.7309,2.7309,2.7309,2.7309,2.7309,2.7309,2.7309,2.7404,2.7607,2.788,2.7998,2.8034,2.829,2.8558,2.8757,2.878,0.0,0.0,2.8803,2.8862,2.9106,2.9954,3.0339,3.0856,3.2528,3.3079,3.3335,3.4176,3.4397,3.4397,3.4397,3.4397,3.4397,3.4397,3.4397,3.4397,3.4397,3.4397,3.4397,3.4397,3.5789,3.7146,3.7929,3.883,3.9406,3.9406,3.9406,3.9406,3.9406,0.0,0.0,3.9406,4.0003,4.0108,3.9427,4.0005,4.0076,3.9442,3.9406,3.9406,3.9406,3.9406,3.937,3.9265,3.9265,3.8848,3.8056,3.8056,3.7591,0.0,0.0,0.0,0.0,0.0,0.0,0.0,0.0,0.0,0.0,0.0,0.0,0.0,0.0,0.0,1.8804,1.9074,1.9288,1.9288,1.9519,1.9614,1.9415,1.963,1.9845,1.9884,2.0147,2.0289,2.0289,2.1412,2.2089,2.2089,2.2968,2.3468,2.3468,2.3676,2.4196,2.5075,2.5294,2.5936,2.6989,0.0,0.0,2.7309,2.7309,2.7309,2.7309,2.7309,2.7309,2.7309,2.7309,2.7323,2.7404,2.7833,2.7998,2.8034,2.829,2.8418,2.8511,2.871,2.8803,2.8803,2.8803,2.9313,2.9954,3.0147,3.1245,0.0,3.2895,3.356,3.4176,3.4356,3.4397,3.4397,3.4397,3.4397,3.4397,3.4397,3.4397,3.4397,3.4397,3.4397,3.4397,3.4397,3.5789,3.6972,3.7127,3.8435,3.9406,3.9406,3.9406,3.9406,3.9406,3.9406,3.9406,3.9406,3.9535,3.9553,3.9406,3.9535,3.9553,3.9406,3.9406,3.9406,3.9406,3.9406,3.9083,3.8427,3.8427,3.7985,3.7146,3.7146,3.6699,0.0,0.0,0.0,0.0,0.0,0.0,0.0,0.0,0.0,0.0,0.0,1.8804,1.8804,0.0,1.9098,1.9098,1.9415,1.9646,1.9646,1.9932,2.0091,1.9924,2.0051,2.0226,2.0377,2.1045,2.1453,2.1453,2.2607,2.3311,2.3311,2.3816,2.4088,2.4088,2.4615,2.5163,2.5693,2.6235,2.6774,2.7309,2.7309,2.7309,2.7309,2.7309,2.7309,2.7309,2.7309,2.7309,2.7309,2.7309,2.7309,2.7323,2.756,2.7715,2.7833,2.8102,2.8267,2.8441,2.871,2.8803,2.8803,2.8803,2.9106,2.96,3.0056,3.0856,3.1797,3.2744,3.3335,3.3805,3.4293,3.4397,3.4397,3.4397,3.4397,3.4397,3.4397,3.4397,3.4397,3.4397,3.4397,3.4397,3.4397,3.5789,3.69,3.69,3.8327,3.9406,3.9406,3.9406,3.9406,3.9406,3.9406,3.9406,3.9406,3.9406,3.9406,3.9406,3.9406,3.9406,3.9406,3.9406,3.9406,3.9406,3.8995,3.8594,3.8202,3.7763,3.7121,3.63,3.63,3.6082,0.0,0.0,0.0,0.0,0.0,0.0,0.0,0.0,1.8804,1.8804,1.8804,1.8828,1.8892,1.9169,1.9415,1.9479,1.9773,1.9988,1.9988,2.0298,2.0496,2.0496,2.0688,2.0901,2.1166,2.2173,2.282,2.282,2.38,2.4408,2.4408,2.4605,2.4728,2.4728,2.5562,2.6018,2.6018,2.687,2.7309,2.7309,2.7309,2.7309,2.7309,2.7309,2.7309,2.7309,2.7309,2.7309,2.7309,2.7309,2.7309,2.7309,2.7309,2.7404,2.756,2.7833,2.8055,2.8277,2.8547,2.863,2.863,2.863,2.8792,2.9129,2.9886,3.0407,3.1067,3.2559,3.3122,3.3454,3.4196,3.4397,3.4397,3.4397,3.4397,3.4397,3.4397,3.4397,3.4397,3.4397,3.4397,3.4397,3.4397,3.5789,3.69,3.69,3.8327,3.9406,3.9406,3.9406,3.9406,3.9406,3.9406,3.9406,3.9406,3.9406,3.9406,3.9406,3.9406,3.9406,3.9406,3.9406,3.9406,3.9406,3.8608,3.8127,3.7962,3.7083,3.6261,3.5447,3.5447,3.5447,1.7878,1.7692,1.7878,1.862,1.8804,1.8804,0.0,0.0,1.8804,1.8804,1.8804,1.8907,1.9272,1.9367,1.9495,1.9813,2.0131,2.0337,2.0337,2.0639,2.0836,2.0836,2.1693,2.2282,2.2325,2.3277,2.3915,2.3915,2.4918,2.5514,2.5514,2.6418,2.6931,2.6931,2.7061,2.7109,2.7109,2.7228,2.7309,2.7309,2.7309,2.7309,2.7309,2.7309,2.7309,2.7309,2.7309,2.7309,2.7309,2.7309,2.7309,2.7309,2.7309,2.7309,2.7357,2.756,2.7655,2.7726,2.7998,2.8081,2.8081,2.8081,2.8817,2.9704,2.9806,3.1178,3.2722,3.2938,3.3602,3.4259,3.4377,3.4397,3.4397,3.4397,3.4397,3.4397,3.4397,3.4397,3.4397,3.4397,3.4397,3.4397,3.4397,3.5789,3.69,3.69,3.8327,3.9406,3.9406,3.9406,3.9406,3.9406,3.9406,3.9406,3.9406,3.9406,3.9406,3.9406,3.9406,3.9406,3.9406,3.9406,3.9406,3.9406,3.8608,3.7834,3.7049,3.6221,3.5386,3.4551,3.4551,3.4551,1.8427,1.8334,1.8404,0.0,1.8804,1.8804,1.8804,1.8804,1.8868,1.9098,1.9145,1.9248,1.9622,1.9853,2.0036,0.0,2.0464,2.0897,2.1519,2.1753,2.2072,2.2677,2.371,2.3859,2.2627,2.4032,2.5041,2.5041,2.6022,2.662,2.662,2.7061,2.7309,2.7309,2.7309,2.7309,2.7309,2.7309,2.7309,2.7309,2.7309,2.7309,2.7309,2.7309,2.7309,2.7309,2.7309,2.7309,2.7309,2.7309,2.7309,2.7309,2.7309,2.7309,2.7323,2.7523,2.7607,2.7631,2.7904,2.7998,2.7998,2.7998,2.8735,2.9646,2.9772,3.1212,3.2843,3.2972,3.3666,3.4397,3.4397,3.4397,3.4397,3.4397,3.4397,3.4397,3.4397,3.4397,3.4397,3.4397,3.4397,3.4397,3.4397,3.5393,3.6366,3.6822,3.8327,3.9406,3.9406,3.9406,3.9406,3.9406,3.9406,3.9406,3.9406,3.9406,3.9406,3.9406,3.9406,3.9406,3.9406,3.9406,3.9406,3.9406,3.8102,3.7276,3.69,3.5581,3.4758,3.4397,3.4397,3.4397,1.8804,1.8804,0.0,1.8804,1.8804,1.8828,1.8931,1.8978,1.9074,1.9455,1.9535,1.963,1.9972,2.0242,2.0424,2.0519,2.0724,2.1267,2.235,2.2612,2.3093,2.4162,2.5342,2.5443,2.3892,2.5208,2.6129,2.6129,2.687,2.7309,2.7309,2.7309,2.7309,2.7309,2.7309,2.7309,2.7309,2.74,2.7462,2.7472,2.7596,2.7659,2.7659,2.7659,2.7586,2.7462,2.7462,2.74,2.7309,2.7309,2.7309,2.7309,2.7309,2.7309,2.7309,2.7465,2.7523,2.7536,2.7739,2.7809,2.7809,2.7809,2.8701,2.9795,2.9943,3.1434,3.3125,3.3262,3.3784,3.4335,3.4397,3.4356,3.4335,3.4397,3.4397,3.4397,3.4397,3.4397,3.4397,3.4397,3.4397,3.4481,3.4716,3.5264,3.5963,3.6783,3.814,3.9156,3.9355,3.9406,3.9406,3.9406,3.9406,3.9406,3.9406,3.9406,3.9406,3.9406,3.9406,3.9406,3.9406,3.9406,3.9301,3.9068,3.7639,3.6783,3.6562,3.5101,3.4397,3.4397,3.4567,3.4646,1.8804,0.0,1.8804,1.8804,1.8804,1.8892,1.9304,1.9375,1.9471,1.9829,1.9877,1.998,2.0313,2.0384,2.0512,2.0828,2.0883,2.1267,2.235,2.2903,2.358,2.4649,2.6079,2.6934,0.0,2.7101,2.7262,2.7262,2.7286,2.7309,2.7309,2.7309,2.7309,2.7309,2.7309,2.7309,2.7309,2.7686,2.7879,2.7889,2.8334,2.8566,2.8566,2.8566,2.8303,2.7879,2.7879,2.7655,2.7309,2.7309,2.7309,2.7309,2.7309,2.7309,2.7309,2.7309,2.7309,2.7309,2.7309,2.7323,2.7323,2.7323,2.8749,3.0474,3.0474,3.2147,3.4055,3.4055,3.4097,3.416,3.4356,3.4264,3.416,3.4356,3.4397,3.4397,3.4397,3.4397,3.4397,3.4397,3.4397,3.4675,3.5507,3.5689,3.5963,3.6783,3.7668,3.8534,3.9301,3.9406,3.9406,3.9406,3.9406,3.9406,3.9406,3.9406,3.9406,3.9406,3.9406,3.9406,3.9406,3.9406,3.9031,3.8258,3.7352,3.6523,3.5716,3.484,3.4397,3.441,3.4999,3.5273,1.8804,0.0,1.886,1.9129,1.9193,1.928,1.9646,1.9725,1.9821,2.0163,2.0242,2.04,2.0962,2.0875,2.0933,2.1539,2.2073,2.2886,2.4176,2.5142,2.612,2.7202,2.7744,0.0,0.0,0.0,0.0,2.8162,2.8162,2.8162,2.8162,2.8162,2.8162,2.8162,2.8162,2.8162,2.8162,2.8307,2.8355,2.8355,2.851,2.8593,2.8593,2.8593,2.85,2.8355,2.8355,2.8297,2.8162,2.8162,2.8162,2.8162,2.8162,2.8162,2.8162,2.8162,2.8162,2.8167,2.8211,2.8222,2.8339,2.9014,3.0136,3.1269,3.1446,3.25,3.3675,3.3789,3.3958,3.4118,3.4181,3.4264,3.4314,3.4377,3.4397,3.4397,3.4397,3.4397,3.4397,3.4397,3.4397,3.4501,3.4799,3.484,3.5459,3.7292,3.7921,3.8497,3.9301,3.9406,3.9406,3.9406,3.9795,3.987,3.9436,3.981,3.987,3.9436,3.9406,3.9156,3.8627,3.9119,3.8948,3.7953,3.7659,3.7277,3.6835,3.595,3.5534,3.5534,3.5744,3.5835,1.8986,1.9003,1.9105,1.9487,1.9574,1.9662,2.0004,2.0075,2.0179,2.0512,2.0661,2.0883,2.1317,2.1667,2.1923,2.1993,2.3145,2.431,2.5193,2.6422,2.7658,2.873,2.9011,2.9104,0.0,0.0,0.0,2.8638,2.8593,2.8593,2.8593,2.8593,2.8593,2.8593,2.8593,2.8593,2.8593,2.8783,2.8924,2.9104,2.9104,2.9104,2.9104,2.9104,2.9021,2.8856,2.8856,2.8737,2.8593,2.8593,2.8593,2.8593,2.8593,2.8593,2.8593,2.8593,2.8593,2.8599,2.8652,2.8929,2.9334,2.9979,3.1111,3.2235,3.2414,3.3194,3.4029,3.4168,3.4319,3.4482,3.4547,3.4443,3.436,3.4543,3.4428,3.4314,3.4377,3.4397,3.4397,3.4397,3.4567,3.4816,3.5103,3.5317,3.5979,3.7482,3.8108,3.8832,3.9965,4.0113,4.0113,4.0113,4.0502,4.0576,4.0157,4.0502,4.0561,4.0142,3.9802,3.9381,3.8855,3.9008,3.8644,3.768,3.766,3.7421,3.6919,3.6358,3.6109,3.6109,3.6332,3.6423,1.9328,1.9423,1.9503,1.9837,1.9941,2.0004,2.0337,2.0416,2.0519,2.0851,2.1193,2.1431,0.0,0.0,2.3375,2.2401,2.4114,2.5578,2.5466,2.6809,2.8209,0.0,0.0,0.0,0.0,0.0,0.0,2.8752,0.0,2.8655,2.8655,2.8655,2.8655,2.8655,2.8655,2.8655,2.8655,2.9125,2.9559,2.9994,2.9994,2.9994,2.9994,2.9994,2.9756,2.9342,2.9342,2.9094,2.8655,2.8655,2.8655,2.869,2.873,2.8755,2.8755,2.883,2.8855,2.8855,2.8855,2.9462,3.0292,3.033,3.1722,3.3385,3.3385,3.4167,3.5076,3.5076,3.5076,3.5143,3.5331,3.4834,3.4383,3.4817,3.4555,3.425,3.4426,3.4489,3.4489,3.4489,3.4946,3.5568,3.6335,3.7016,3.7464,3.7507,3.829,3.9482,4.1122,4.1384,4.1403,4.1403,4.1433,4.1433,4.1403,4.1395,4.1361,4.1331,4.0446,3.9908,3.9868,3.9047,3.8214,3.74,3.7422,3.7029,3.6188,3.6188,3.6188,3.6214,3.6776,3.705,1.967,1.9765,1.9845,2.0195,2.0282,2.0353,2.071,2.0756,2.0859,2.119,2.1333,2.1838,0.0,0.0,0.0,2.5173,2.6356,0.0,2.7429,2.8598,0.0,2.9792,0.0,2.9994,2.9994,2.9994,0.0,0.0,2.9642,2.9642,2.9642,2.9642,2.9642,2.9642,2.9642,2.9642,2.9642,2.9766,2.988,2.9994,2.9994,2.9994,2.9994,2.9994,2.9932,2.9818,2.9818,2.9746,2.9642,2.9642,2.9642,2.972,3.0525,3.0845,3.0947,3.1717,3.2028,3.2028,3.2028,3.1732,3.1435,3.2124,3.3257,3.4338,3.4338,3.4555,3.4793,3.4793,3.4941,3.5098,3.5165,3.514,3.5136,3.5234,3.532,3.537,3.5435,3.5561,3.5678,3.5678,3.5796,3.5952,3.6177,3.7295,3.8375,3.9026,3.9697,4.0184,4.0334,4.0959,4.1403,4.1403,4.1837,4.1946,4.1433,4.1224,4.0895,4.0383,3.949,3.8681,3.809,3.8407,3.8115,3.7118,3.774,3.7859,3.7442,3.7442,3.7442,3.7442,3.7599,3.7678,2.0028,2.0123,2.0203,2.0535,2.0623,2.0678,2.0851,2.1018,2.1185,2.1357,2.1669,0.0,2.3903,2.4603,0.0,0.0,0.0,0.0,2.8247,2.9244,2.9994,0.0,2.9994,0.0,2.9994,2.9994,2.9994,0.0,2.9994,2.9994,2.9994,2.9994,2.9994,2.9994,2.9994,2.9994,2.9994,2.9994,2.9994,2.9994,2.9994,2.9994,2.9994,2.9994,2.9994,3.002,0.0,3.0443,3.0047,3.0521,3.0417,3.0073,3.0666,3.1187,3.1677,3.2297,3.2801,3.3201,3.3201,3.3141,3.3147,3.366,3.4556,3.5441,3.5441,3.5441,3.5441,3.5441,3.5556,3.5661,3.5661,3.5562,3.5463,3.5589,3.5545,3.5522,3.5611,3.5718,3.5902,3.6237,3.64,3.658,3.6841,3.7603,3.8336,3.8836,3.9532,3.9909,3.9676,4.0483,4.1197,4.1622,4.1986,4.206,4.1706,4.1527,4.1096,4.03,3.9383,3.867,3.8225,3.8247,3.8009,3.7413,3.7873,3.8045,3.79,3.79,3.79,3.79,3.79,3.79,2.0394,2.0464,2.0535,2.082,2.0899,2.0899,2.0899,2.1169,2.1465,2.1663,0.0,2.3141,2.4473,2.582,2.6779,2.6951,0.0,2.9633,2.8588,2.9333,2.9994,2.9994,2.9994,2.9994,2.9994,2.9994,2.9994,2.9994,2.9994,2.9994,2.9994,2.9994,2.9994,2.9994,2.9994,2.9994,2.9994,2.9994,2.9994,2.9994,2.9994,2.9994,2.9994,2.9994,2.9994,3.0047,3.0981,3.0862,3.0073,3.1006,3.0914,3.0219,3.0375,3.1094,3.2047,3.2174,3.2839,3.3623,3.3623,3.4239,3.4981,3.486,3.5523,3.6405,3.6405,3.6405,3.6405,3.6405,3.6405,3.6405,3.6405,3.6006,3.5678,3.5921,3.5623,3.5359,3.5526,3.5638,3.5891,3.6616,3.6958,3.7299,3.7808,3.79,3.7946,3.807,3.8616,3.9055,3.9188,4.0138,4.1092,4.1908,4.199,4.199,4.199,4.1769,4.1275,4.0461,3.9541,3.9024,3.9024,3.8294,3.79,3.79,3.79,3.79,3.79,3.79,3.79,3.79,3.79,3.79,2.0734,2.0804,2.082,2.0883,2.0899,2.0899,2.0899,2.1169,0.0,0.0,2.362,2.4634,2.7051,2.771,2.8223,2.9217,2.9722,2.9942,2.9722,2.9863,2.9994,0.0,2.9994,2.9994,2.9994,2.9994,0.0,0.0,2.9994,2.9994,2.9994,2.9994,2.9994,2.9994,2.9994,2.9994,2.9994,2.9994,2.9994,2.9994,2.9994,2.9994,2.9994,2.9994,2.9994,3.002,3.0193,0.0,3.002,3.0193,3.0692,3.1407,3.2297,3.3289,3.4349,3.5235,3.5691,3.5834,3.5834,3.5966,3.5989,3.5102,3.5523,3.6405,3.6405,3.6405,3.6405,3.6405,3.6405,3.6405,3.6405,3.6306,3.6267,3.629,3.6379,3.643,3.6476,3.6826,3.7233,3.7603,3.772,3.7782,3.7887,3.79,3.8148,3.8859,3.8494,3.8395,3.9099,4.071,4.1811,4.197,4.199,4.199,4.199,4.0568,3.9615,3.9439,3.8616,3.8125,3.8125,3.7992,3.79,3.79,3.79,3.79,3.79,3.79,3.79,3.79,3.79,3.79,2.0851,2.0899,2.1019,2.1598,2.1725,2.1944,2.2758,0.0,0.0,0.0,2.5156,2.5964,2.7863,2.8196,0.0,2.98,2.9994,2.9994,2.9994,2.9994,2.9994,2.9994,3.0212,3.0356,0.0,3.06,3.0735,3.0735,3.0735,3.0528,3.0025,2.9994,2.9994,2.9994,2.9994,2.9994,2.9994,2.9994,2.9994,2.9994,2.9994,2.9994,2.9994,2.9994,2.9994,3.002,3.0588,0.0,3.0047,3.0588,3.0811,3.0862,3.1942,3.3014,3.4091,3.5174,3.5918,3.6405,3.6405,3.6405,3.631,3.5786,3.5989,3.6405,3.6405,3.6405,3.6405,3.6405,3.6405,3.6405,3.6405,3.6405,3.6405,3.6405,3.6476,3.6534,3.6534,3.6945,3.733,3.7459,3.7703,3.79,3.79,3.79,3.8047,3.8449,3.8171,3.8047,3.8472,3.9708,4.0525,4.0525,4.0525,4.0525,4.0525,3.9724,3.9002,3.8549,3.8125,3.79,3.79,3.79,3.79,3.79,3.79,3.79,3.79,3.79,3.79,3.79,3.79,3.79,2.1514,2.142,2.1496,2.2568,2.2845,2.3192,2.4509,2.5065,0.0,0.0,2.6618,2.7221,2.8366,0.0,2.889,0.0,3.0077,3.0149,3.0149,3.0232,3.0294,0.0,3.0642,0.0,3.0859,3.1191,0.0,3.1408,3.1408,3.1087,3.0325,3.0294,3.0294,3.0294,3.0294,3.0294,3.0294,3.0294,3.0294,3.0294,3.0294,3.0294,3.0294,3.0294,3.0294,3.0347,3.1187,0.0,0.0,3.1213,3.1187,3.0711,3.1555,3.2522,3.3572,3.441,3.5442,3.6349,3.6261,3.6367,3.6545,3.6455,3.6405,3.6405,3.6405,3.6405,3.6405,3.6405,3.6405,3.6405,3.6405,3.6405,3.6405,3.6405,3.6405,3.6405,3.6452,3.6758,3.7038,3.7085,3.7482,3.7808,3.7808,3.7854,3.79,3.79,3.79,3.79,3.79,3.8494,3.8912,3.8912,3.9077,3.921,3.921,3.9024,3.8639,3.7946,3.79,3.79,3.79,3.79,3.79,3.79,3.79,3.79,3.79,3.79,3.79,3.79,3.79,3.79,2.3552,2.3086,2.2619,2.3676,2.3939,2.4099,2.4677,0.0,0.0,2.723,2.7814,2.8419,2.9606,2.9827,0.0,0.0,0.0,3.0652,3.0652,3.1015,3.1274,3.1274,0.0,0.0,3.1346,3.1377,3.1408,3.1408,3.1408,3.1367,3.1284,3.1274,3.1274,3.1274,3.1274,3.1274,3.1274,3.1274,3.1274,3.1274,3.1274,3.1274,3.1274,3.1274,3.1274,3.1274,3.1383,3.1356,0.0,3.1383,3.191,3.2635,3.2741,3.343,3.4373,3.4477,3.5289,3.6234,3.5752,3.626,3.7047,3.6545,3.6405,3.6405,3.6405,3.6405,3.6405,3.6405,3.6405,3.6405,3.6405,3.6405,3.6405,3.6405,3.6405,3.6452,3.6628,3.6722,3.6815,3.7038,3.733,3.7528,3.7528,3.7726,3.79,3.79,3.79,3.79,3.79,3.7969,3.8024,3.8024,3.8738,3.921,3.921,3.8472,3.7992,3.79,3.79,3.79,3.79,3.79,3.79,3.79,3.79,3.79,3.79,3.79,3.79,3.79,3.79,3.79,2.3964,2.38,2.3725,2.4796,2.528,2.576,2.6837,0.0,2.7972,2.889,2.9175,2.9438,2.9905,2.9994,2.9994,2.9994,3.0387,0.0,3.0714,3.1108,3.1408,3.1408,3.1609,0.0,0.0,0.0,3.2188,3.2188,3.2188,3.2188,3.2188,3.1699,3.1408,3.1408,3.1408,3.1408,3.1408,3.1408,3.1408,3.1408,3.1408,3.1408,3.1408,3.1408,3.1408,3.1408,3.1408,3.1408,0.0,3.1408,3.1634,3.2064,3.2668,3.3606,3.4708,3.5353,3.6312,3.7282,3.7097,3.7295,3.7651,3.7425,3.7349,3.7248,3.6606,3.6405,3.6405,3.6405,3.6405,3.6405,3.6405,3.6405,3.6405,3.6405,3.6405,3.6428,3.6499,3.6745,3.6968,3.7085,3.7307,3.7551,3.7703,3.7703,3.7703,3.7877,3.79,3.79,3.79,3.79,3.79,3.79,3.8203,3.8417,3.8417,3.8103,3.79,3.79,3.79,3.79,3.79,3.79,3.79,3.79,3.8227,3.8383,3.8383,3.8762,3.8932,3.8932,3.8932,3.8932,2.4958,2.4811,2.4864,2.6059,2.6605,2.7192,0.0,0.0,2.9435,2.9901,2.9994,2.9994,2.9994,2.9994,2.9994,2.9994,3.0501,3.0922,3.0922,3.1402,3.1774,3.1774,0.0,3.2222,0.0,3.2512,3.2698,3.2698,3.2698,3.2698,3.2698,3.2126,3.1774,3.1774,3.1774,3.1774,3.1774,3.1774,3.1774,3.1774,3.1774,3.1774,3.1774,3.1774,3.1774,3.1774,3.1774,0.0,0.0,3.2179,3.2317,3.2406,3.3469,3.4402,3.5235,3.598,3.6985,3.7952,3.7791,3.7967,3.8228,3.8065,3.8002,3.7864,3.711,3.6758,3.6632,3.6632,3.6531,3.6405,3.6405,3.6405,3.6405,3.6405,3.6405,3.6405,3.6405,3.6664,3.6898,3.6898,3.7098,3.7353,3.7634,3.7564,3.7626,3.8063,3.8148,3.8214,3.8383,3.841,3.841,3.841,3.841,3.8331,3.8161,3.8305,3.841,3.841,3.841,3.841,3.841,3.841,3.841,3.841,3.8776,3.8985,3.8985,3.9403,3.9612,3.9612,3.9612,3.9666,2.6989,2.65,2.6044,2.7508,2.7865,2.8138,0.0,0.0,2.9435,2.9901,2.9994,2.9994,2.9994,2.9994,2.9994,2.9994,3.077,3.1398,3.1398,3.2147,3.2688,0.0,0.0,3.2698,3.2698,3.2698,3.2698,3.2698,3.2698,0.0,3.2698,3.2698,3.2688,3.2688,3.2688,3.2688,3.2688,3.2688,3.2688,3.2688,3.2688,3.2688,3.2688,3.2688,3.2688,3.2688,3.2688,3.2688,0.0,3.3976,3.4469,3.4569,3.5722,3.6174,3.6201,3.6201,3.6915,3.7827,3.7272,3.789,3.8793,3.8191,3.8002,3.8002,3.799,3.7613,3.7198,3.7198,3.6808,3.6405,3.6405,3.6405,3.6405,3.6405,3.6405,3.6405,3.6405,3.6405,3.6405,3.6405,3.6557,3.6792,3.7062,3.733,3.7756,3.8572,3.8697,3.8919,3.952,3.9586,3.9586,3.9586,3.9586,3.9351,3.8726,3.9246,3.9586,3.9586,3.9586,3.9586,3.9586,3.9586,3.9586,3.9586,3.9599,3.9599,3.9599,3.9612,3.9612,3.9612,3.9612,3.9875,2.7214,2.7263,2.7325,2.7785,2.8376,2.8924,2.9239,2.9549,2.9818,2.9963,2.9994,2.9994,2.9994,2.9994,3.0098,3.0419,3.1004,3.1485,0.0,0.0,0.0,3.2698,3.2698,3.2698,0.0,0.0,3.2698,3.2698,3.2698,3.2698,3.2698,3.2698,3.2698,3.2698,3.2698,3.2698,3.2698,3.2698,3.2698,3.2698,3.2698,3.2698,3.2698,3.2698,3.2698,3.2698,3.2698,0.0,0.0,3.3115,3.3275,3.3303,3.3678,3.4792,3.6185,3.6185,3.7447,3.9117,3.8956,3.9138,3.9434,3.922,3.9157,3.9157,3.9157,3.8504,3.7751,3.7751,3.7613,3.7487,3.7487,3.7235,3.6947,3.6947,3.6658,3.6405,3.6405,3.6523,3.6718,3.7146,3.727,3.7516,3.8138,3.8191,3.8338,3.8951,3.9049,3.9185,3.9562,3.9612,3.9612,3.9612,3.9939,3.9901,3.9353,3.9494,3.9612,3.9612,3.9612,3.9612,3.9612,3.9612,3.9612,3.9612,3.9954,4.0136,4.0136,4.0554,4.075,4.075,4.075,4.0842,2.7309,2.7583,2.7941,2.8117,2.8752,2.9352,2.9528,0.0,2.9994,2.9994,2.9994,2.9994,2.9994,2.9994,3.0149,3.0605,3.1098,3.1536,0.0,0.0,0.0,3.2698,0.0,0.0,0.0,3.2698,3.2698,3.2698,3.2698,3.2698,3.2698,3.2698,3.2698,3.2698,3.2698,3.2698,3.2698,3.2698,3.2698,3.2698,3.2698,3.2698,3.2698,3.2698,3.2698,3.2698,3.2698,0.0,0.0,3.32,3.3632,3.406,3.4497,3.5827,3.7527,3.7527,3.8463,3.9697,3.9697,3.9697,3.9697,3.9697,3.9697,3.9697,3.9697,3.9057,3.8278,3.8065,3.8002,3.8002,3.8002,3.7751,3.75,3.75,3.7261,3.6997,3.6997,3.7093,3.729,3.768,3.7743,3.793,3.8542,3.8495,3.8608,3.9253,3.9438,3.9638,4.0042,4.0179,4.0228,4.0228,4.0528,4.0594,4.0254,4.0228,4.0228,4.0228,4.0228,4.0228,4.0228,4.0228,4.0228,4.0228,4.0567,4.0737,4.0737,4.1116,4.1286,4.1286,4.1286,4.1286,0.0,2.7634,2.8055,2.852,2.9011,2.9466,2.9891,0.0,0.0,2.9994,2.9994,2.9994,2.9994,3.0025,3.0191,3.0657,3.1149,3.1578,0.0,3.2429,0.0,0.0,3.2698,0.0,3.2698,3.2698,3.2698,3.2698,3.2698,3.2698,3.2698,3.2698,3.2698,3.2698,3.2698,3.2698,3.2698,3.2698,3.2698,3.2698,3.2698,3.2698,3.2698,3.2698,3.2698,0.0,0.0,0.0,0.0,3.3903,3.4986,3.6061,3.7126,3.8279,3.9336,3.9336,3.9413,3.9581,3.9581,3.9633,3.9697,3.9697,3.9697,3.9697,3.9697,3.9333,3.8843,3.8278,3.8128,3.8128,3.8128,3.8103,3.8065,3.8065,3.804,3.8002,3.8002,3.8002,3.8015,3.8065,3.8065,3.8164,3.8437,3.8486,3.875,3.9507,3.9871,4.0238,4.0818,4.1122,4.1286,4.1286,4.1286,4.1286,4.1286,4.1286,4.1286,4.1286,4.1286,4.1286,4.1286,4.1286,4.1286,4.1286,4.1286,4.1286,4.1286,4.1286,4.1286,4.1286,4.1286,4.1286,2.7676,0.0,2.8541,2.9032,2.9497,2.986,0.0,2.9994,0.0,0.0,0.0,2.9994,2.9994,3.0284,3.0704,3.117,3.1588,3.2016,3.2481,0.0,0.0,3.2698,3.2698,3.2698,3.2698,3.2698,3.2698,3.2698,3.2698,3.2698,3.2698,3.2698,3.2698,3.2698,3.2698,3.2698,3.2698,3.2698,3.2698,3.2698,3.2698,3.2698,3.2698,3.2698,3.2698,0.0,0.0,0.0,3.2727,3.3001,3.3275,3.3547,3.3818,3.4664,3.5729,3.5729,3.6842,3.8319,3.8319,3.8933,3.9697,3.9697,3.9697,3.9697,3.9697,3.9597,3.9471,3.9333,3.9295,3.9295,3.9295,3.9007,3.8693,3.8693,3.8329,3.8002,3.8002,3.8002,3.814,3.8605,3.8693,3.8856,3.9309,3.9397,3.9537,3.9931,4.021,4.0502,4.0845,4.1122,4.1286,4.1286,4.1286,4.1286,4.1286,4.1286,4.1286,4.1286,4.1286,4.1286,4.1286,4.1286,4.1286,4.1286,4.1286,4.1286,4.1286,4.1286,4.1286,4.1286,4.1286,4.1286,2.8086,2.8396,2.8696,2.9187,2.9653,2.9994,2.9994,2.9994,0.0,0.0,0.0,2.9994,2.9994,3.0367,3.0859,3.1326,3.1754,0.0,0.0,0.0,3.2698,3.2698,3.2698,3.2698,0.0,3.2698,3.2698,3.2698,3.2698,3.2698,3.2698,3.2698,3.2698,3.2698,3.2698,3.2698,3.2698,3.2698,3.2698,3.2698,3.2698,3.2698,3.2698,3.2698,3.2698,0.0,0.0,0.0,3.2698,3.2698,3.303,3.3519,3.3519,3.4552,3.6045,3.6045,3.7192,3.8738,3.8738,3.9141,3.9697,3.9697,3.9697,3.9697,3.9697,3.9697,3.9697,3.9697,3.9697,3.9697,3.9697,3.9471,3.9271,3.9271,3.9007,3.8781,3.8781,3.8781,3.8868,3.9208,3.9271,3.9371,3.9647,3.9697,3.9736,3.989,4.0134,4.0415,4.0694,4.0946,4.1147,4.1286,4.1286,4.1286,4.1286,4.1286,4.1286,4.1286,4.1286,4.1286,4.1286,4.1286,4.1286,4.1286,4.1286,4.1286,4.1286,4.1286,4.1286,4.1286,4.1286,4.1286,2.8458,2.8634,2.8825,2.929,2.9704,2.9994,2.9994,0.0,0.0,0.0,0.0,0.0,3.0087,3.0481,0.0,0.0,0.0,0.0,3.2646,3.2698,3.2698,3.2698,3.2698,0.0,3.2698,3.2698,3.2729,3.2791,3.2801,3.2832,3.2905,3.2905,3.2905,3.2905,3.2905,3.2905,3.2905,3.277,3.2739,3.2801,3.2801,3.2832,3.2905,3.2905,3.2905,3.2905,0.0,0.0,3.2905,3.2905,3.3628,3.4726,3.4726,3.6038,3.7884,3.7789,3.8532,3.959,3.9671,3.9697,3.9697,3.9697,3.9697,3.9697,3.9697,3.9697,3.9697,3.9697,3.9697,3.9697,3.9697,3.9697,3.9697,3.9697,3.9697,3.9697,3.9697,3.9697,3.9697,3.9697,3.9697,3.9697,3.9697,3.9697,3.9697,3.9697,3.9929,4.0185,4.0402,4.0669,4.0921,4.1135,4.1186,4.1186,4.1186,4.1211,4.1236,4.1236,4.1286,4.1286,4.1286,4.1286,4.1286,4.1286,4.1286,4.1286,4.1286,4.1286,4.1286,4.1286,4.1286,4.1286,2.8458,2.8897,2.9311,2.9777,2.9942,2.9994,2.9994,2.9994,0.0,0.0,0.0,0.0,0.0,3.0984,3.1412,0.0,0.0,3.2626,0.0,0.0,3.2698,3.2698,0.0,3.2698,3.2698,3.2698,3.2853,3.3244,3.3275,3.348,3.3864,3.3895,3.3895,3.3895,3.3895,3.3895,3.3895,3.311,3.2913,3.3275,3.3275,3.3511,3.3895,3.3895,3.3895,3.3895,0.0,3.3895,3.3895,3.3895,3.4638,3.5761,3.5761,3.6656,3.7829,3.7321,3.791,3.9007,3.9524,3.9697,3.9697,3.9697,3.9697,3.9697,3.9697,3.9697,3.9697,3.9697,3.9697,3.9697,3.9697,3.9697,3.9697,3.9697,3.9697,3.9697,3.9697,3.9697,3.9697,3.9697,3.9697,3.9697,3.9697,3.9697,3.9697,3.9697,3.9929,4.0096,4.016,4.0389,4.058,4.0605,4.0631,4.0631,4.0631,4.082,4.0959,4.0959,4.1173,4.1286,4.1286,4.1286,4.1286,4.1286,4.1286,4.1286,4.1286,4.1286,4.1286,4.1286,4.1286,4.1286,2.8856,2.9321,2.9735,2.9942,2.9994,2.9994,2.9994,2.9994,0.0,0.0,0.0,0.0,0.0,0.0,3.186,3.2305,0.0,3.2698,3.2698,3.2698,3.2698,0.0,0.0,3.2698,3.2698,3.2698,3.2884,3.3377,3.3408,3.3605,3.4071,3.4102,3.4102,3.4102,3.4102,3.4102,3.4102,3.3658,3.3555,3.3781,3.3781,3.3895,3.4102,3.4102,3.4102,3.4102,0.0,3.4507,3.5144,3.5144,3.5882,3.7024,3.7024,3.7752,3.8868,3.9181,3.9654,4.0182,4.0478,4.0361,4.0136,4.0136,3.9936,3.9697,3.9697,3.9697,3.9697,3.9697,3.9697,3.9697,3.9697,3.9697,3.9697,3.9697,3.9697,3.9697,3.9697,3.9697,3.9697,3.9697,3.9697,3.9697,3.9697,3.9697,3.9697,3.9697,3.9788,3.9929,4.007,4.0211,4.0338,4.0478,4.0504,4.0504,4.0504,4.0744,4.0959,4.1097,4.1236,4.1286,4.1286,4.1286,4.1286,4.1286,4.1286,4.1286,4.1286,4.1286,4.1286,4.1286,4.1286,4.1286,2.9177,2.9642,2.9994,2.9994,0.0,2.9994,2.9994,2.9994,0.0,0.0,0.0,0.0,0.0,3.1633,0.0,3.2646,3.2698,3.2698,3.2698,3.2698,3.2698,3.2698,3.2698,3.2698,3.2698,3.2791,3.3068,3.3532,3.3667,3.3936,3.4392,3.4383,3.4383,3.4383,3.4383,3.4383,3.4383,3.4383,3.4361,3.4257,3.4257,3.4309,3.4383,3.4383,3.4383,3.4383,3.4383,3.5138,3.6297,3.6297,3.7217,3.8649,3.8649,3.9271,4.0324,4.1193,4.1415,4.1315,4.1315,4.1039,4.0688,4.0688,4.0399,4.0074,4.0074,3.9986,3.9885,3.9885,3.9798,3.9697,3.9697,3.9697,3.9697,3.9697,3.9697,3.9697,3.9697,3.9697,3.9697,3.9697,3.9697,3.9697,3.9697,3.9697,3.9697,3.9697,3.9697,3.9762,3.9981,4.0006,4.0083,4.03,4.03,4.0326,4.0402,4.0643,4.0921,4.1186,4.1261,4.1286,4.1286,4.1286,4.1286,4.1286,4.1286,4.1286,4.1286,4.1286,4.1286,4.1286,4.1286,4.1286,2.9177,2.9642,2.9994,2.9994,2.9994,0.0,2.9994,2.9994,0.0,3.0553,0.0,0.0,0.0,3.2315,3.2667,3.2698,3.2698,3.2698,3.2698,0.0,3.2698,3.2698,3.2698,3.2698,3.2698,3.3089,3.3553,3.4019,3.4444,3.4879,3.5263,3.5324,3.5324,3.5324,3.5324,3.5324,3.5324,3.5324,3.5117,3.4744,3.4744,3.4962,3.5324,3.5324,3.5324,3.5324,3.5324,3.603,3.7199,3.7199,3.8648,4.0865,4.0865,4.1354,4.2028,4.2095,4.1769,4.1315,4.1315,4.1263,4.1225,4.1225,4.1227,4.1163,4.1163,4.0838,4.0437,4.0437,4.0086,3.9697,3.9697,3.9697,3.9697,3.9697,3.9697,3.9697,3.9697,3.9697,3.9697,3.9697,3.9697,3.9697,3.9697,3.9697,3.9697,3.9697,3.9697,3.9723,3.9723,3.9723,3.9749,3.9774,3.9774,3.9865,4.0109,4.0364,4.0643,4.0921,4.1147,4.1286,4.1286,4.1286,4.1286,4.1286,4.1286,4.1286,4.1286,4.1286,4.1286,4.1286,4.1286,4.1286,2.9611,2.986,2.9994,2.9994,2.9994,0.0,0.0,3.0222,3.0497,3.0646,3.1133,0.0,0.0,0.0,3.2698,3.2698,3.2698,3.2698,3.2698,3.2698,3.2698,3.2698,3.2698,3.2698,3.2698,3.312,3.3594,3.406,3.4527,3.4982,3.5366,3.5387,3.5387,3.5387,3.5387,3.5387,3.5387,3.5387,3.5304,3.5169,3.5169,3.5262,3.5387,3.5387,3.5387,3.5387,3.5387,3.6572,3.8465,3.8465,3.9966,4.2275,4.2275,4.2445,4.27,4.27,4.2562,4.2359,4.2359,4.2133,4.1844,4.1844,4.1618,4.1315,4.1315,4.1164,4.1001,4.1001,4.0851,4.0537,3.9873,3.9697,3.9697,3.9697,3.9697,3.9697,3.9697,3.9697,3.9697,3.9697,3.9697,3.9697,3.9697,3.9697,3.9697,3.9697,3.9697,3.9697,3.9697,3.9697,3.9697,3.9697,3.9697,3.9813,4.007,4.0185,4.0517,4.1094,4.1255,4.1286,4.1286,4.1286,4.1286,4.1286,4.1286,4.1286,4.1286,4.1286,4.1286,4.1299,4.1677,4.1872,2.987,2.9994,2.9994,2.9994,0.0,0.0,3.0212,3.046,3.077,3.105,3.1695,0.0,0.0,0.0,0.0,0.0,3.2698,3.2698,3.2698,3.2698,3.2698,3.2698,3.2698,3.276,3.2894,3.3337,3.3812,3.4278,3.4744,3.5107,3.5407,3.5387,3.5387,3.5387,3.5387,3.5387,3.5387,3.5387,3.5387,3.5387,3.5387,3.5387,3.5387,3.5387,3.5387,3.5418,3.5839,3.7229,3.9228,3.9627,4.1071,4.3002,4.3002,4.3002,4.3002,4.3002,4.3002,4.3002,4.3002,4.2763,4.2449,4.2449,4.2158,4.1829,4.1829,4.1704,4.1593,4.1593,4.1453,4.1139,4.0413,4.0212,4.0212,4.0212,4.0212,4.0212,4.0212,4.0212,4.0212,4.0212,4.0212,4.0212,4.0212,4.0212,4.0212,4.0212,4.0212,4.0212,4.0212,4.0212,4.0212,4.0212,4.0212,4.029,4.0447,4.0551,4.0846,4.1397,4.1505,4.1542,4.1542,4.1542,4.1606,4.1707,4.1707,4.1758,4.1834,4.1834,4.1834,4.1834,4.2252,4.2435,2.987,2.9994,2.9994,2.9994,0.0,0.0,3.0725,3.0698,3.0957,3.1829,3.2388,3.2698,3.2698,3.2698,0.0,3.2698,3.2698,3.2698,3.2698,3.2698,3.2698,3.2698,3.2698,3.2874,3.3356,3.3822,3.4288,3.4754,3.5169,3.5387,3.5387,3.5387,3.5387,3.5387,3.5387,3.5387,3.5387,3.5387,3.5387,3.5387,3.5387,3.5387,3.5387,3.5387,3.5387,3.5479,3.6744,3.8018,3.9316,4.0599,4.1854,4.3002,4.3002,4.3002,4.3002,4.3002,4.3002,4.3002,4.3002,4.3002,4.3002,4.3002,4.3002,4.3002,4.3002,4.2625,4.2213,4.2213,4.1769,4.1327,4.1327,4.1327,4.13,4.1315,4.1315,4.1315,4.1315,4.1315,4.1315,4.1315,4.1315,4.1315,4.1315,4.1315,4.1315,4.1315,4.1315,4.1315,4.1315,4.1315,4.1315,4.1315,4.1315,4.1315,4.1315,4.1531,4.1691,4.1691,4.1944,4.2103,4.2103,4.2103,4.2262,4.2604,4.2604,4.2722,4.2997,4.2997,4.2997,4.2997,4.301,4.301,2.9953,2.9994,0.0,2.9994,0.0,0.0,0.0,3.1412,0.0,0.0,3.2605,3.2698,3.2698,0.0,0.0,3.2698,3.2698,3.2698,3.2698,3.2698,3.2698,3.2698,3.2698,3.2874,3.3356,3.3822,3.4288,3.4754,3.5169,3.5387,3.5387,3.5387,3.5387,3.5387,3.5387,3.5387,3.5387,3.5387,3.5387,3.5387,3.5387,3.5387,3.5387,3.5387,3.5387,3.5418,3.5808,3.7199,3.9375,4.1529,4.2653,4.3002,4.3002,4.3002,4.3002,4.3002,4.3002,4.3002,4.3002,4.3002,4.3002,4.3002,4.3002,4.3002,4.3002,4.2889,4.2763,4.2763,4.2637,4.2497,4.2497,4.2497,4.2296,4.149,4.1315,4.1315,4.1315,4.1315,4.1315,4.1315,4.1315,4.1315,4.1315,4.1315,4.1315,4.1315,4.1315,4.1315,4.1315,4.1315,4.1315,4.1315,4.1315,4.1315,4.1315,4.1356,4.16,4.2017,4.2124,4.2244,4.2446,4.2459,4.2591,4.2866,4.2866,4.2919,4.2997,4.2997,4.2997,4.301,4.3441,4.3611,2.9994,2.9994,0.0,3.0222,3.0615,3.1133,3.1764,0.0,0.0,0.0,3.2698,3.2698,3.2698,3.2698,0.0,3.2698,3.2698,3.2698,3.2698,3.2698,3.2698,3.2698,3.2698,3.2946,3.3615,3.3936,3.4361,3.5003,3.5273,3.5387,3.5387,3.5387,3.5387,3.5387,3.5387,3.5387,3.5387,3.5387,3.5387,3.5387,3.5387,3.5654,3.6125,3.5623,3.5387,3.5448,3.6461,3.8059,4.0106,4.215,4.3002,4.3002,4.3002,4.3002,4.3002,4.3002,4.3002,4.3002,4.3002,4.3002,4.3002,4.3002,4.3002,4.3002,4.3002,4.3002,4.3002,4.3002,4.3002,4.3002,4.3002,4.3002,4.2838,4.2145,4.1995,4.1995,4.1995,4.1995,4.1995,4.1995,4.1995,4.1995,4.1995,4.1995,4.1995,4.1995,4.1995,4.1995,4.1995,4.1995,4.1995,4.1995,4.1995,4.1995,4.1995,4.1995,4.2133,4.2487,4.2512,4.2635,4.2915,4.2929,4.3063,4.3344,4.3477,4.357,4.3676,4.3676,4.3676,4.3676,4.4055,4.4212,2.9994,3.0025,3.016,3.0584,3.1087,0.0,3.2502,3.2698,3.2698,3.2698,0.0,3.2698,3.2698,3.2698,3.2698,3.2698,3.2698,3.2698,3.2698,3.2698,3.2698,3.2698,3.2739,3.313,3.4019,3.4133,3.4516,3.5355,3.5387,3.5387,3.5387,3.5387,3.5387,3.5387,3.5387,3.5387,3.5387,3.5387,3.5387,3.5387,3.551,3.6186,3.7267,3.5982,3.5448,3.5716,3.8268,4.0048,4.1186,4.2472,4.3002,4.3002,4.3002,4.3002,4.3002,4.3002,4.3002,4.3002,4.3002,4.3002,4.3002,4.3002,4.3002,4.3002,4.3002,4.3002,4.3002,4.3002,4.3002,4.3002,4.3002,4.3002,4.3002,4.3002,4.3002,4.3002,4.3002,4.3002,4.3002,4.3002,4.3002,4.3002,4.3002,4.3002,4.3002,4.3002,4.3002,4.3002,4.3002,4.3002,4.3002,4.3002,4.3002,4.3002,4.3002,4.3002,4.3002,4.3002,4.3002,4.3113,4.3338,4.3394,4.3558,4.3899,4.4134,4.4395,4.4654,4.4654,4.4681,4.4695,4.4695,4.4695,2.9994,3.0263,0.0,3.0657,3.1298,3.2016,3.2574,3.2698,3.2698,3.2698,3.2698,3.2698,3.2698,3.2698,3.2698,3.2698,3.2698,3.2698,3.2698,3.2698,3.2698,3.2698,3.3027,3.348,3.404,3.4423,3.4868,3.5345,3.5387,3.5387,3.5387,3.5387,3.5387,3.5387,3.5387,3.5387,3.5387,3.5387,3.5387,0.0,3.642,3.7037,3.7267,3.5982,3.5951,3.7037,3.9586,4.0841,4.1186,4.2472,4.3002,4.3002,4.3002,4.3002,4.3002,4.3002,4.3002,4.3002,4.3002,4.3002,4.3002,4.3002,4.3002,4.3002,4.3002,4.3002,4.3002,4.3002,4.3002,4.3002,4.3002,4.3002,4.3002,4.3002,4.3002,4.3002,4.3002,4.3002,4.3002,4.3002,4.3002,4.3002,4.3002,4.3002,4.3002,4.3002,4.3002,4.3002,4.3002,4.3002,4.3002,4.3002,4.3002,4.3002,4.3002,4.3002,4.3002,4.3002,4.3002,4.303,4.3085,4.3295,4.3558,4.3899,4.3955,4.4134,4.4395,4.4395,4.4491,4.4695,4.4695,4.4695,2.9994,3.0336,0.0,3.1226,0.0,3.2408,3.2646,3.2698,3.2698,3.2698,3.2698,3.2698,3.2698,3.2698,3.2698,3.2698,3.2698,3.2698,3.2698,3.2698,3.2698,3.2698,3.311,3.3584,3.405,3.4516,3.4972,3.5356,3.5387,3.5387,3.5387,3.5387,3.5387,3.5387,3.5387,3.5387,3.5387,3.5387,3.5716,3.6328,3.6976,3.7629,3.8197,3.7519,3.758,3.8317,4.0268,4.11,4.1186,4.2472,4.3002,4.3002,4.3002,4.3002,4.3002,4.3002,4.3002,4.3002,4.3002,4.3002,4.3002,4.3002,4.3002,4.3002,4.3002,4.3002,4.3002,4.3002,4.3002,4.3002,4.3002,4.3002,4.3002,4.3002,4.3002,4.3002,4.3002,4.3002,4.3002,4.3002,4.3002,4.3002,4.3002,4.3002,4.3002,4.3002,4.3002,4.3002,4.3002,4.3002,4.3002,4.3002,4.3002,4.3002,4.3002,4.3002,4.3002,4.3002,4.3002,4.3002,4.3002,4.3129,4.3351,4.364,4.3804,4.3982,4.4107,4.4231,4.4367,4.4518,4.4654,4.4695,3.0118,3.0512,3.1122,3.1922,3.2419,0.0,3.2698,3.2698,3.2698,3.2698,3.2698,3.2698,3.2698,3.2698,3.2698,3.2698,3.2698,3.2698,3.2698,3.2698,3.2698,3.2698,3.3182,3.3677,3.406,3.4589,3.5055,3.5356,3.5387,3.5387,3.5387,3.5387,3.5387,3.5387,3.5387,3.5387,3.5387,3.5387,3.5921,3.6976,3.7418,3.8406,3.9873,3.9873,3.9756,3.961,4.0858,4.1427,4.1513,4.2569,4.3002,4.3002,4.3002,4.3002,4.3002,4.3002,4.3002,4.3002,4.3002,4.3002,4.3002,4.3002,4.3002,4.3002,4.3002,4.3002,4.3002,4.3002,4.3002,4.3002,4.3002,4.3002,4.3002,4.3002,4.3002,4.3002,4.3002,4.3002,4.3002,4.3002,4.3002,4.3002,4.3002,4.3002,4.3002,4.3002,4.3002,4.3002,4.3002,4.3002,4.3002,4.3002,4.3002,4.3002,4.3002,4.3002,4.3002,4.3002,4.3002,4.3002,4.3002,4.3002,4.3113,4.3338,4.3653,4.3832,4.3899,4.4161,4.4313,4.4367,4.4599,4.4695,3.0621,3.1215,3.1953,0.0,3.2657,3.2698,0.0,0.0,3.2698,0.0,3.2698,3.2698,3.2698,3.2698,3.2698,3.2698,3.2698,3.2698,3.2698,3.2698,3.2698,3.2698,3.3472,3.4029,3.4091,3.4838,3.5355,3.5387,3.5387,3.5387,3.5387,3.5387,3.5387,3.5387,3.5387,3.5387,3.5387,3.5387,3.5479,3.5685,3.788,4.0181,4.25,4.25,4.1895,4.0916,4.2178,4.275,4.2765,4.2918,4.3002,4.3002,4.3002,4.3002,4.3002,4.3002,4.3002,4.3002,4.3002,4.3002,4.3002,4.3002,4.3002,4.3002,4.3002,4.3002,4.3002,4.3002,4.3002,4.3002,4.3002,4.3002,4.3002,4.3002,4.3002,4.3002,4.3002,4.3002,4.3002,4.3002,4.3002,4.3002,4.3002,4.3002,4.3002,4.3002,4.3002,4.3002,4.3002,4.3002,4.3002,4.3002,4.3002,4.3002,4.3002,4.3002,4.3002,4.3002,4.3002,4.3002,4.3002,4.3002,4.303,4.3058,4.3323,4.3613,4.3899,4.4161,4.4422,4.4654,4.4681,4.4695,3.1309,3.1716,3.2119,3.2584,3.2698,3.2698,3.2698,3.2698,3.2698,3.2698,3.2698,3.2698,3.2698,3.2698,3.2698,3.2698,3.2698,3.2698,3.2698,3.2698,3.2698,3.2698,3.3524,3.4102,3.4102,3.489,3.5387,3.5387,3.5387,3.5387,3.5387,3.5387,3.5387,3.5387,3.5387,3.5387,3.5387,3.5387,3.6105,3.7561,4.0123,4.1923,4.3002,4.3002,4.2681,4.2206,4.2765,4.3002,4.3002,4.3002,4.3002,4.3002,4.3002,4.3002,4.3002,4.3002,4.3002,4.3002,4.3002,4.3002,4.3002,4.3002,4.3002,4.3002,4.3002,4.3002,4.3002,4.3002,4.3002,4.3002,4.3002,4.3212,4.3438,4.3438,4.3677,4.3903,4.3903,4.3664,4.3526,4.384,4.3903,4.3903,4.3903,4.3903,4.3903,4.3903,4.3903,4.3903,4.3903,4.3903,4.3903,4.3903,4.3903,4.3903,4.3903,4.3903,4.3903,4.3903,4.3903,4.3903,4.3903,4.3903,4.3903,4.3903,4.3584,4.3462,4.3613,4.4094,4.4367,4.4463,4.4626,4.4695,3.1974,3.2191,3.2274,3.2615,3.2698,3.2698,0.0,0.0,3.2698,0.0,3.2698,3.2698,3.2698,3.2698,3.2698,3.2698,3.2698,3.2698,3.2698,3.2698,3.2698,3.2698,3.3524,3.4102,3.4102,3.489,3.5387,3.5387,3.5387,3.5387,3.5387,3.5387,3.5387,3.5387,3.5387,3.5387,3.5387,3.5716,3.6998,3.9228,4.1444,4.2681,4.3002,4.3002,4.3002,4.3002,4.3002,4.3002,4.3002,4.3002,4.3002,4.3002,4.3002,4.3002,4.3002,4.3002,4.3002,4.3002,4.3002,4.3002,4.3002,4.3002,4.3002,4.3002,4.3002,4.3002,4.3039,4.315,4.3215,4.324,4.3363,4.3702,4.4003,4.4003,4.4301,4.4589,4.4589,4.4305,4.4129,4.4514,4.4589,4.4589,4.4589,4.4589,4.4589,4.4589,4.4589,4.4589,4.4589,4.4589,4.4589,4.4589,4.4589,4.4589,4.4589,4.4589,4.4589,4.4589,4.4589,4.4589,4.4589,4.4589,4.4589,4.4589,4.4086,4.3825,4.3825,4.4339,4.4602,4.4602,4.4892,4.4974,3.2533,3.2667,3.2667,3.2698,3.2698,3.2698,0.0,0.0,3.2698,3.2698,3.2698,3.2698,3.2698,3.2698,3.2698,3.2698,3.2698,3.2698,3.2698,3.2698,3.2698,3.2698,3.3524,3.4102,3.4102,3.489,3.5387,3.5387,3.5387,3.5387,3.5387,3.5387,3.5387,3.5387,3.5387,3.5387,3.5387,3.6603,3.7869,3.9228,4.057,4.1826,4.3002,4.3002,4.3002,4.3002,4.3002,4.3002,4.3002,4.3002,4.3002,4.3002,4.3002,4.3002,4.3002,4.3002,4.3002,4.3002,4.3002,4.3002,4.3002,4.3002,4.3002,4.3002,4.3002,4.3002,4.3115,4.3614,4.3765,4.3878,4.4376,4.4527,4.4552,4.4552,4.4577,4.4589,4.4589,4.4577,4.4564,4.4589,4.4589,4.4589,4.4589,4.4589,4.4589,4.4589,4.4589,4.4589,4.4589,4.4589,4.4589,4.4589,4.4589,4.4589,4.4589,4.4589,4.4589,4.4589,4.4589,4.4589,4.4589,4.4589,4.4589,4.4589,4.4857,4.5005,4.5005,4.5307,4.5437,4.5437,4.5776,4.5763,0.0,0.0,3.2698,3.2698,3.2698,3.2698,3.2698,3.2698,3.2698,3.2698,3.2698,3.2698,3.2698,3.2698,3.2698,3.2698,3.2698,3.2698,3.2698,3.2698,3.2698,3.2698,3.3524,3.4102,3.4102,3.489,3.5387,3.5387,3.5387,3.5387,3.5387,3.5387,3.5387,3.5387,3.5387,3.5798,3.6592,3.7869,3.9157,4.0425,4.1712,4.2569,4.3002,4.3002,4.3002,4.3002,4.3002,4.3002,4.3002,4.3002,4.3002,4.3002,4.3002,4.3002,4.3002,4.3002,4.3002,4.3002,4.3002,4.3002,4.3065,4.3388,4.3501,4.3576,4.3928,4.4028,4.4079,4.4267,4.4301,4.4351,4.4539,4.4895,4.5271,4.5623,4.5698,4.5698,4.5698,4.5434,4.5284,4.5606,4.5698,4.5698,4.5698,4.5698,4.5698,4.5698,4.5698,4.5698,4.5698,4.5698,4.5698,4.5698,4.5698,4.5698,4.5698,4.5698,4.5698,4.5698,4.5698,4.5698,4.5698,4.5698,4.5698,4.5698,4.58,4.5624,4.5093,4.5368,4.5498,4.5498,4.5612,4.5612,3.2626,0.0,0.0,0.0,3.2698,3.2698,3.2698,3.2698,3.2698,3.2698,3.2698,3.2698,3.2698,3.2698,3.2698,3.2698,3.2698,3.2698,3.2698,3.2698,3.2698,3.2698,3.3524,3.4102,3.4102,3.489,3.5387,3.5387,3.5387,0.0,3.5387,3.5387,3.5387,3.5387,3.5387,3.6013,3.7298,3.8566,3.9832,4.1129,4.2388,4.3002,4.3002,4.3002,4.3002,4.3014,4.3203,4.3178,4.3002,4.3002,4.3002,4.3002,4.3002,4.3115,4.3263,4.3263,4.3376,4.3526,4.3526,4.3526,4.3589,4.3953,4.4079,4.4154,4.4476,4.4589,4.464,4.4857,4.489,4.4928,4.5104,4.5472,4.5861,4.6225,4.6313,4.6313,4.6313,4.6024,4.5874,4.6238,4.6313,4.6313,4.6313,4.6313,4.6313,4.6313,4.6313,4.6313,4.6313,4.6313,4.6313,4.6313,4.6313,4.6313,4.6313,4.6313,4.6313,4.6313,4.6313,4.6313,4.6313,4.6313,4.6313,4.6313,4.6313,4.6026,4.5489,4.5681,4.5768,4.5768,4.5884,4.5988,0.0,0.0,0.0,0.0,3.2698,3.2698,3.2698,3.2698,3.2698,3.2698,3.2698,3.2698,3.2698,3.2698,3.2698,3.2698,3.2698,3.2698,3.2698,3.2698,3.2698,3.2698,3.3524,3.4102,3.4102,3.489,3.5387,3.5387,3.5387,3.5387,3.5387,3.5387,3.5387,3.5387,3.5448,3.6074,3.7328,3.8625,3.9902,4.1157,4.2416,4.3002,4.3002,4.3002,4.3002,4.3039,4.3539,4.3476,4.3027,4.3052,4.3052,4.3052,4.3052,4.3363,4.3827,4.3827,4.4166,4.4589,4.4589,4.4589,4.4589,4.4614,4.4627,4.4627,4.464,4.464,4.4752,4.5359,4.551,4.5635,4.6175,4.6313,4.6313,4.6313,4.6313,4.6313,4.6313,4.6313,4.6313,4.6313,4.6313,4.6313,4.6313,4.6313,4.6313,4.6313,4.6313,4.6313,4.6313,4.6313,4.6313,4.6313,4.6313,4.6313,4.6313,4.6313,4.6313,4.6313,4.6313,4.6313,4.6313,4.6313,4.6313,4.6313,4.6313,4.6313,4.6313,4.6313,4.6313,4.6313,4.6614,4.6917,3.2698,0.0,0.0,0.0,0.0,0.0,3.2698,3.2698,3.2698,3.2698,3.2698,3.2698,3.2698,3.2698,3.2698,3.2698,3.2698,3.2698,3.2698,3.2698,3.2698,3.2698,3.3524,3.4102,3.4102,3.489,3.5387,0.0,3.5387,3.5387,3.5387,3.5387,3.5387,3.5387,3.6298,3.7399,3.8655,3.9949,4.1215,4.2472,4.2821,4.3002,4.3002,4.3002,4.3002,4.3014,4.3165,4.335,4.3601,4.4003,4.4166,4.4166,4.4166,4.4267,4.4364,4.4364,4.4464,4.4589,4.4589,4.4589,4.4665,4.5121,4.5246,4.5321,4.5723,4.5819,4.5844,4.6037,4.6087,4.6125,4.6276,4.6313,4.6313,4.6313,4.6313,4.6313,4.6313,4.6313,4.6313,4.6313,4.6313,4.6313,4.6313,4.6313,4.6313,4.6313,4.6313,4.6313,4.6313,4.6313,4.6313,4.6313,4.6313,4.6313,4.6313,4.6313,4.6313,4.6313,4.6313,4.6313,4.6313,4.6313,4.6313,4.6313,4.6313,4.6313,4.6313,4.6313,4.6313,4.6313,4.6403,4.6614,0.0,0.0,0.0,0.0,0.0,0.0,3.2698,3.2698,3.2698,3.2698,3.2698,3.2698,3.2698,3.2698,3.2698,3.2698,3.2698,3.2698,3.2698,3.2698,3.2698,3.2698,3.3348,3.3884,3.4081,3.4754,3.5221,3.5376,3.5387,3.5387,3.5387,3.5387,3.5387,3.5387,3.6622,3.7899,3.9198,4.0454,4.1741,4.3002,4.3002,4.3002,4.3002,4.3002,4.3002,4.3014,4.3253,4.3639,4.4192,4.4744,4.4844,4.4589,4.4589,4.474,4.4982,4.4982,4.5133,4.5292,4.5292,4.5292,4.5355,4.5723,4.5836,4.5886,4.6213,4.6313,4.6313,4.6313,4.6313,4.6313,4.6313,4.6313,4.6313,4.6313,4.6313,4.6313,4.6313,4.6313,4.6313,4.6313,4.6313,4.6313,4.6313,4.6313,4.6313,4.6313,4.6313,4.6313,4.6313,4.6313,4.6313,4.6313,4.6313,4.6313,4.6313,4.6313,4.6313,4.6313,4.6313,4.6313,4.6313,4.6313,4.6313,4.6313,4.6313,4.6313,4.6313,4.6313,4.6313,4.6313,4.6313,4.6403,0.0,0.0,0.0,0.0,0.0,0.0,3.2698,3.2698,3.2698,3.2698,3.2698,3.2698,3.2698,3.2698,3.2698,3.2698,3.2698,3.2698,3.2698,3.2698,3.2698,3.2698,3.311,3.3584,3.405,3.4516,3.4972,3.5356,3.5387,3.5387,3.5387,3.5387,3.5387,3.5387,3.6622,3.7899,3.9198,4.0454,4.1741,4.3002,4.3002,4.3002,4.3002,4.3002,4.3002,4.3027,4.3489,4.4053,4.464,4.5183,4.5171,4.4778,4.4778,4.5133,4.5585,4.5585,4.5886,4.6313,4.6313,4.6313,4.6313,4.6313,4.6313,4.6313,4.6313,4.6313,4.6313,4.6313,4.6313,4.6313,4.6313,4.6313,4.6313,4.6313,4.6313,4.6313,4.6313,4.6313,4.6313,4.6313,4.6313,4.6313,4.6313,4.6313,4.6313,4.6313,4.6313,4.6313,4.6313,4.6313,4.6313,4.6313,4.6313,4.6313,4.6313,4.6313,4.6313,4.6313,4.6313,4.6313,4.6313,4.6313,4.6313,4.6313,4.6313,4.6313,4.6313,4.6313,4.6313,4.6313,4.6313,4.6313,0.0,0.0,0.0,0.0,0.0,0.0,3.2698,3.2698,3.2698,3.2698,3.2698,3.2698,3.2698,3.2698,3.2698,3.2698,3.2698,3.2698,3.2698,3.2698,3.2698,3.2698,3.311,3.3584,3.405,3.4516,3.4972,3.5356,3.5387,3.5387,3.5387,3.5387,3.5387,3.5387,3.6622,3.7899,3.9198,4.0454,4.1741,4.3002,4.3002,4.3002,4.3002,4.3002,4.3002,4.3014,4.3115,4.3702,4.4602,4.4715,4.5259,4.5987,4.5987,4.605,4.615,4.615,4.6225,4.6313,4.6313,4.6313,4.6313,4.6313,4.6313,4.6313,4.6313,4.6313,4.6313,4.6313,4.6313,4.6313,4.6313,4.6313,4.6313,4.6313,4.6313,4.6313,4.6313,4.6313,4.6313,4.6313,4.6313,4.6313,4.6313,4.6313,4.6313,4.6313,4.6313,4.6313,4.6313,4.6313,4.6313,4.6313,4.6313,4.6313,4.6313,4.6313,4.6313,4.6313,4.6313,4.6313,4.6313,4.6313,4.6313,4.6313,4.6313,4.6313,4.6313,4.6313,4.6313,4.6313,4.6313,4.6313,0.0,0.0,0.0,3.2698,0.0,0.0,0.0,3.2698,3.2698,3.2698,3.2698,3.2698,3.2698,3.2698,3.2698,3.2698,3.2698,3.2698,3.2698,3.2698,3.2698,3.2698,3.2894,3.3317,3.4029,3.4309,3.4723,3.5345,3.5387,3.5387,3.5387,3.5387,3.5387,3.5387,3.7259,3.8554,3.9187,4.1088,4.236,4.3002,4.3002,4.3002,4.3002,4.3002,4.3002,4.3002,4.3002,4.3601,4.4589,4.4589,4.5254,4.6313,4.6313,4.6313,4.6313,4.6313,4.6313,4.6313,4.6313,4.6313,4.6313,4.6313,4.6313,4.6313,4.6313,4.6313,4.6313,4.6313,4.6313,4.6313,4.6313,4.6313,4.6313,4.6313,4.6313,4.6313,4.6313,4.6313,4.6313,4.6313,4.6313,4.6313,4.6313,4.6313,4.6313,4.6313,4.6313,4.6313,4.6313,4.6313,4.6313,4.6313,4.6313,4.6313,4.6313,4.6313,4.6313,4.6313,4.6313,4.6313,4.6313,4.6313,4.6313,4.6313,4.6313,4.6313,4.6313,4.6313,4.6313,4.6313,4.6313,4.6313,0.0,0.0,0.0,0.0,0.0,3.2698,0.0,0.0,0.0,3.2698,3.2698,0.0,0.0,0.0,0.0,3.2698,0.0,0.0,0.0,3.3058,0.0,3.2727,3.2698,3.3019,3.3884,3.435,3.4798,3.5366,3.5623,3.5654,3.5418,3.5387,3.551,3.5747,3.776,3.9069,3.9569,4.1598,4.2765,4.3002,4.3002,4.3002,4.3002,4.3002,4.3002,4.3002,4.3002,4.3601,4.4589,4.4589,4.5254,4.6313,4.6313,4.6313,4.6313,4.6313,4.6313,4.6313,4.6313,4.6313,4.6313,4.6313,4.6313,4.6313,4.6313,4.6313,4.6313,4.6313,4.6313,4.6313,4.6313,4.6313,4.6313,4.6313,4.6313,4.6313,4.6313,4.6313,4.6313,4.6313,4.6313,4.6313,4.6313,4.6313,4.6313,4.6313,4.6313,4.6313,4.6313,4.6313,4.6313,4.6313,4.6313,4.6313,4.6313,4.6313,4.6313,4.6313,4.6313,4.6313,4.6313,4.6313,4.6313,4.6313,4.6313,4.6313,4.6313,4.6313,4.6313,4.6313,4.6313,4.6313,0.0,0.0,0.0,0.0,3.2698,0.0,0.0,0.0,3.2698,3.2698,0.0,0.0,0.0,0.0,0.0,0.0,0.0,0.0,3.4155,3.4284,3.3903,3.2841,3.2698,3.2894,3.3439,3.5203,3.6046,3.5448,3.645,3.6592,3.5448,3.5387,3.5921,3.7037,3.7358,3.8602,4.0858,4.1157,4.1883,4.3002,4.3002,4.3002,4.3002,4.3002,4.3002,4.3002,4.3002,4.3601,4.4589,4.4589,4.5254,4.6313,4.6313,4.6313,4.6313,4.6313,4.6313,4.6313,4.6313,4.6313,4.6313,4.6313,4.6313,4.6313,4.6313,4.6313,4.6313,4.6313,4.6313,4.6313,4.6313,4.6313,4.6313,4.6313,4.6313,4.6313,4.6313,4.6313,4.6313,4.6313,4.6313,4.6313,4.6313,4.6313,4.6313,4.6313,4.6313,4.6313,4.6313,4.6313,4.6313,4.6313,4.6313,4.6313,4.6313,4.6313,4.6313,4.6313,4.6313,4.6313,4.6313,4.6313,4.6313,4.6313,4.6313,4.6313,4.6313,4.6313,4.6313,4.6313,4.6313,4.6313,0.0,0.0,0.0,0.0,0.0,0.0,3.2698,0.0,3.2698,0.0,0.0,0.0,0.0,0.0,0.0,0.0,3.2698,0.0,0.0,0.0,3.4552,0.0,0.0,0.0,3.3798,3.5492,3.626,3.5448,3.6562,3.6744,3.5479,3.5387,3.5654,3.6186,3.764,3.8921,3.9989,4.1444,4.2472,4.3002,4.3002,4.3002,4.3002,4.3002,4.3002,4.3027,4.3341,4.3903,4.4627,4.4982,4.5598,4.6313,4.6313,4.6313,4.6313,4.6313,4.6313,4.6313,4.6313,4.6313,4.6313,4.6313,4.6313,4.6313,4.6313,4.6313,4.6313,4.6313,4.6313,4.6313,4.6313,4.6313,4.6313,4.6313,4.6313,4.6313,4.6313,4.6313,4.6313,4.6313,4.6313,4.6313,4.6313,4.6313,4.6313,4.6313,4.6313,4.6313,4.6313,4.6313,4.6313,4.6313,4.6313,4.6313,4.6313,4.6313,4.6313,4.6313,4.6313,4.6313,4.6313,4.6313,4.6313,4.6313,4.6313,4.6313,4.6313,4.6313,4.6313,4.6313,4.6313,4.6313,3.2555,0.0,0.0,0.0,0.0,0.0,0.0,0.0,0.0,0.0,0.0,0.0,0.0,0.0,0.0,0.0,0.0,3.3332,0.0,3.5151,0.0,0.0,0.0,0.0,0.0,3.6421,3.6935,3.5802,3.7032,3.7108,3.5479,3.5387,3.5572,3.5921,3.8059,3.9375,3.9727,4.1895,4.3002,4.3002,4.3002,4.3002,4.3002,4.3002,4.3002,4.3039,4.3564,4.4116,4.464,4.5246,4.5811,4.6313,4.6313,4.6313,4.6313,4.6313,4.6313,4.6313,4.6313,4.6313,4.6313,4.6313,4.6313,4.6313,4.6313,4.6313,4.6313,4.6313,4.6313,4.6313,4.6313,4.6313,4.6313,4.6313,4.6313,4.6313,4.6313,4.6313,4.6313,4.6313,4.6313,4.6313,4.6313,4.6313,4.6313,4.6313,4.6313,4.6313,4.6313,4.6313,4.6313,4.6313,4.6313,4.6313,4.6313,4.6313,4.6313,4.6313,4.6313,4.6313,4.6313,4.6313,4.6313,4.6313,4.6313,4.6313,4.6313,4.6313,4.6313,4.6313,4.6313,4.6313,0.0,0.0,0.0,3.2698,0.0,0.0,0.0,0.0,3.2698,0.0,0.0,0.0,0.0,0.0,0.0,0.0,0.0,0.0,0.0,0.0,0.0,0.0,0.0,0.0,0.0,3.8441,3.865,3.661,3.8129,3.8029,3.5541,3.5387,3.5982,3.7207,3.8495,3.9773,4.1043,4.2331,4.3002,4.3002,4.3002,4.3002,4.3002,4.3002,4.3002,4.3039,4.3564,4.4116,4.464,4.5246,4.5811,4.6313,4.6313,4.6313,4.6313,4.6313,4.6313,4.6313,4.6313,4.6313,4.6313,4.6313,4.6313,4.6313,4.6313,4.6313,4.6313,4.6313,4.6313,4.6313,4.6313,4.6313,4.6313,4.6313,4.6313,4.6313,4.6313,4.6313,4.6313,4.6313,4.6313,4.6313,4.6313,4.6313,4.6313,4.6313,4.6313,4.6313,4.6313,4.6313,4.6313,4.6313,4.6313,4.6313,4.6313,4.6313,4.6313,4.6313,4.6313,4.6313,4.6313,4.6313,4.6313,4.6313,4.6313,4.6313,4.6313,4.6313,4.6313,4.6313,4.6313,4.6313,0.0,0.0,3.2698,3.2698,0.0,0.0,0.0,0.0,0.0,0.0,0.0,0.0,0.0,0.0,0.0,0.0,0.0,0.0,0.0,0.0,0.0,0.0,0.0,0.0,0.0,0.0,3.7834,3.6588,3.7405,3.7199,3.5479,3.5387,3.5982,3.7267,3.8536,3.9803,4.11,4.236,4.3002,4.3002,4.3002,4.3002,4.3002,4.3002,4.3203,4.3551,4.4104,4.4669,4.5234,4.5799,4.615,4.6313,4.6313,4.6313,4.6313,4.6313,4.6313,4.6313,4.6313,4.6313,4.6313,4.6313,4.6313,4.6313,4.6313,4.6313,4.6313,4.6313,4.6313,4.6313,4.6313,4.6313,4.6313,4.6313,4.6313,4.6313,4.6313,4.6313,4.6313,4.6313,4.6313,4.6313,4.6313,4.6313,4.6313,4.6313,4.6313,4.6313,4.6313,4.6313,4.6313,4.6313,4.6313,4.6313,4.6313,4.6313,4.6313,4.6313,4.6313,4.6313,4.6313,4.6313,4.6313,4.6313,4.6313,4.6313,4.6313,4.6313,4.6313,4.6313,4.6313,4.6313,3.2248,3.2487,0.0,3.2698,3.2698,0.0,3.2698,0.0,0.0,0.0,0.0,0.0,0.0,0.0,0.0,0.0,0.0,0.0,0.0,3.8108,0.0,0.0,0.0,0.0,0.0,3.8312,3.8218,3.6377,3.7336,3.7218,0.0,3.5387,3.5982,3.7267,3.8536,3.9803,4.11,4.236,4.3002,4.3002,4.3002,4.3002,4.3002,4.3002,4.3275,4.3827,4.4351,4.4945,4.5535,4.6087,4.6313,4.6313,4.6313,4.6313,4.6313,4.6313,4.6313,4.6313,4.6313,4.6313,4.6313,4.6313,4.6313,4.6313,4.6313,4.6313,4.6351,4.6522,4.6464,4.6351,4.6522,4.6421,4.6313,4.6313,4.6313,4.6313,4.6313,4.6313,4.6313,4.6313,4.6313,4.6313,4.6313,4.6313,4.6313,4.6313,4.6313,4.6313,4.6313,4.6313,4.6313,4.6313,4.6313,4.6313,4.6313,4.6313,4.6313,4.6313,4.6313,4.6313,4.6313,4.6313,4.6313,4.6313,4.6313,4.6313,4.6313,4.6313,4.6313,4.6313,4.6313,4.6313]},{"header":{"parameterUnit":"m.s-1","parameterCategory":1,"la1":30.6,"la2":29.2853,"lo1":-89.7004,"lo2":-87.6739,"dy":0.0162,"dx":0.0183,"nx":112,"ny":82,"refTime":"2024-03-05T18:00:00:Z","depth":0,"parameterNumber":3,"parameterNumberName":"V-component_of_WINDS"},"data":[0.0,0.0,0.0,0.0,0.0,0.0,0.0,0.0,0.0,0.0,0.0,0.0,0.0,0.0,0.0,0.0,0.0,0.0,0.0,0.0,0.0,0.0,0.0,0.0,0.0,0.0,0.0,0.0,0.0,0.0,0.0,0.0,0.0,0.0,0.0,0.0,0.0,0.0,0.0,0.0,0.0,0.0,0.0,0.0,0.0,0.0,0.0,0.0,0.0,0.0,0.0,0.0,0.0,0.0,0.0,0.0,0.0,0.0,0.0,0.0,0.0,0.0,0.0,0.0,0.0,0.0,0.0,0.0,0.0,0.0,0.0,0.0,0.0,0.0,0.0,0.0,0.0,0.0,0.0,0.0,0.0,0.0,0.0,0.0,0.0,0.0,0.0,0.0,0.0,0.0,2.3091,2.3091,2.3091,2.3091,2.3091,2.3091,2.2753,2.1971,0.0,0.0,0.0,0.0,0.0,0.0,0.0,0.0,0.0,0.0,0.0,0.0,0.0,0.0,0.0,0.0,0.0,0.0,0.0,0.0,0.0,0.0,0.0,0.0,0.0,0.0,0.0,0.0,0.0,0.0,0.0,0.0,0.0,0.0,0.0,0.0,0.0,0.0,0.0,0.0,0.0,0.0,0.0,0.0,0.0,0.0,0.0,0.0,0.0,0.0,0.0,0.0,0.0,0.0,0.0,0.0,0.0,0.0,0.0,0.0,0.0,0.0,0.0,0.0,0.0,0.0,0.0,0.0,0.0,0.0,0.0,0.0,0.0,0.0,0.0,0.0,0.0,0.0,0.0,0.0,0.0,0.0,0.0,0.0,0.0,0.0,0.0,0.0,0.0,0.0,0.0,0.0,0.0,0.0,0.0,0.0,0.0,0.0,0.0,0.0,0.0,0.0,0.0,0.0,2.3091,2.3091,2.3091,2.3091,2.3091,2.3091,2.3047,2.2894,0.0,0.0,0.0,0.0,0.0,0.0,0.0,0.0,0.0,0.0,0.0,0.0,0.0,0.0,0.0,0.0,0.0,0.0,0.0,0.0,0.0,0.0,0.0,0.0,0.0,0.0,0.0,0.0,0.0,0.0,0.0,0.0,0.0,0.0,0.0,0.0,0.0,0.0,0.0,0.0,0.0,0.0,0.0,0.0,0.0,0.0,0.0,0.0,0.0,0.0,0.0,0.0,0.0,0.0,0.0,0.0,0.0,0.0,0.0,0.0,0.0,0.0,0.0,0.0,0.0,0.0,0.0,0.0,0.0,0.0,0.0,0.0,0.0,0.0,0.0,0.0,0.0,0.0,0.0,0.0,0.0,0.0,0.0,0.0,0.0,0.0,0.0,0.0,0.0,0.0,0.0,0.0,0.0,0.0,0.0,0.0,0.0,0.0,0.0,0.0,0.0,0.0,0.0,2.3091,2.3091,2.3091,2.3091,2.3091,2.3091,2.3091,2.3091,2.3091,2.2709,0.0,0.0,0.0,0.0,0.0,0.0,0.0,0.0,0.0,0.0,0.0,0.0,0.0,0.0,0.0,0.0,0.0,0.0,0.0,0.0,0.0,0.0,0.0,0.0,0.0,0.0,0.0,0.0,0.0,0.0,0.0,0.0,0.0,0.0,0.0,0.0,0.0,0.0,0.0,0.0,0.0,0.0,0.0,0.0,0.0,0.0,0.0,0.0,0.0,0.0,0.0,0.0,0.0,0.0,0.0,0.0,0.0,0.0,0.0,0.0,0.0,0.0,0.0,0.0,0.0,0.0,0.0,0.0,0.0,0.0,0.0,0.0,0.0,0.0,0.0,0.0,0.0,0.0,0.0,0.0,0.0,0.0,0.0,0.0,0.0,0.0,0.0,0.0,0.0,0.0,0.0,0.0,0.0,0.0,0.0,0.0,0.0,0.0,0.0,0.0,0.0,0.0,2.3091,2.3091,2.3091,2.3091,2.3091,2.3091,2.3091,2.3003,2.2775,2.2784,0.0,0.0,0.0,0.0,0.0,0.0,0.0,0.0,0.0,0.0,0.0,0.0,0.0,0.0,0.0,0.0,0.0,0.0,0.0,0.0,0.0,0.0,0.0,0.0,0.0,0.0,0.0,0.0,0.0,0.0,0.0,0.0,0.0,0.0,0.0,0.0,0.0,0.0,0.0,0.0,0.0,0.0,0.0,0.0,0.0,0.0,0.0,0.0,0.0,0.0,0.0,0.0,0.0,0.0,0.0,0.0,0.0,0.0,0.0,0.0,0.0,0.0,0.0,0.0,0.0,0.0,0.0,0.0,0.0,0.0,0.0,0.0,0.0,0.0,0.0,0.0,0.0,0.0,0.0,0.0,0.0,0.0,0.0,0.0,0.0,0.0,0.0,0.0,0.0,0.0,0.0,0.0,0.0,0.0,0.0,0.0,0.0,0.0,0.0,0.0,0.0,0.0,2.3091,2.3091,2.3091,2.3091,2.3091,2.3091,2.3091,2.2731,2.185,2.1806,0.0,0.0,0.0,0.0,0.0,0.0,0.0,0.0,0.0,0.0,0.0,0.0,0.0,0.0,0.0,0.0,0.0,0.0,0.0,0.0,0.0,0.0,0.0,0.0,0.0,0.0,0.0,0.0,0.0,0.0,0.0,0.0,0.0,0.0,0.0,0.0,0.0,0.0,0.0,0.0,0.0,0.0,0.0,0.0,0.0,0.0,0.0,0.0,0.0,0.0,0.0,0.0,0.0,0.0,0.0,0.0,0.0,0.0,0.0,0.0,0.0,0.0,0.0,0.0,0.0,0.0,0.0,0.0,0.0,0.0,0.0,0.0,0.0,0.0,0.0,0.0,0.0,0.0,0.0,0.0,0.0,0.0,0.0,0.0,0.0,0.0,0.0,0.0,0.0,0.0,0.0,0.0,0.0,0.0,0.0,0.0,0.0,0.0,0.0,0.0,0.0,0.0,2.3091,2.3091,0.0,2.3091,2.3091,2.3091,2.3091,2.2938,2.2599,0.0,0.0,0.0,0.0,0.0,0.0,0.0,0.0,0.0,0.0,0.0,0.0,0.0,0.0,0.0,0.0,0.0,0.0,0.0,0.0,0.0,0.0,0.0,0.0,0.0,0.0,0.0,0.0,0.0,0.0,0.0,0.0,0.0,0.0,0.0,0.0,0.0,0.0,0.0,0.0,0.0,0.0,0.0,0.0,0.0,0.0,0.0,0.0,0.0,0.0,0.0,0.0,0.0,0.0,0.0,0.0,0.0,0.0,0.0,0.0,0.0,0.0,0.0,0.0,0.0,0.0,0.0,0.0,0.0,0.0,0.0,0.0,0.0,0.0,0.0,0.0,0.0,0.0,0.0,0.0,0.0,0.0,0.0,0.0,0.0,0.0,0.0,0.0,0.0,0.0,0.0,0.0,0.0,0.0,0.0,0.0,0.0,0.0,0.0,0.0,0.0,0.0,2.3144,2.3091,2.3091,0.0,2.3091,2.3091,2.3091,2.3091,2.2982,2.2665,0.0,0.0,0.0,0.0,0.0,0.0,0.0,0.0,0.0,0.0,0.0,0.0,0.0,0.0,0.0,0.0,0.0,0.0,0.0,0.0,0.0,0.0,0.0,0.0,0.0,0.0,0.0,0.0,0.0,0.0,0.0,0.0,0.0,0.0,0.0,0.0,0.0,0.0,0.0,0.0,0.0,0.0,0.0,0.0,0.0,0.0,0.0,0.0,0.0,0.0,0.0,0.0,0.0,0.0,0.0,0.0,0.0,0.0,0.0,0.0,0.0,0.0,0.0,0.0,0.0,0.0,0.0,0.0,0.0,0.0,0.0,0.0,0.0,0.0,0.0,0.0,0.0,0.0,0.0,0.0,0.0,0.0,0.0,0.0,0.0,0.0,0.0,0.0,0.0,0.0,0.0,0.0,0.0,0.0,0.0,0.0,0.0,0.0,0.0,0.0,0.0,0.0,2.3244,2.3123,2.3091,2.3091,2.3091,2.3091,2.3091,2.3091,2.2709,0.0,0.0,0.0,0.0,0.0,0.0,0.0,0.0,0.0,0.0,0.0,0.0,0.0,0.0,0.0,0.0,0.0,0.0,0.0,0.0,0.0,0.0,0.0,0.0,0.0,0.0,0.0,0.0,0.0,0.0,0.0,0.0,0.0,0.0,0.0,0.0,0.0,0.0,0.0,0.0,0.0,0.0,0.0,0.0,0.0,0.0,0.0,0.0,0.0,0.0,0.0,0.0,0.0,0.0,0.0,0.0,0.0,0.0,0.0,0.0,0.0,0.0,0.0,0.0,0.0,0.0,0.0,0.0,0.0,0.0,0.0,0.0,0.0,0.0,0.0,0.0,0.0,0.0,0.0,0.0,0.0,0.0,0.0,0.0,0.0,0.0,0.0,0.0,0.0,0.0,0.0,0.0,0.0,0.0,0.0,0.0,0.0,0.0,0.0,0.0,0.0,0.0,0.0,2.4112,2.3495,2.3091,2.3091,2.3091,2.3091,2.3091,2.3091,2.2982,2.2709,0.0,0.0,0.0,0.0,0.0,0.0,0.0,0.0,0.0,0.0,0.0,0.0,0.0,0.0,0.0,0.0,0.0,0.0,0.0,0.0,0.0,0.0,0.0,0.0,0.0,0.0,0.0,0.0,0.0,0.0,0.0,0.0,0.0,0.0,0.0,0.0,0.0,0.0,0.0,0.0,0.0,0.0,0.0,0.0,0.0,0.0,0.0,0.0,0.0,0.0,0.0,0.0,0.0,0.0,0.0,0.0,0.0,0.0,0.0,0.0,0.0,0.0,0.0,0.0,0.0,0.0,0.0,0.0,0.0,0.0,0.0,0.0,0.0,0.0,0.0,0.0,0.0,0.0,0.0,0.0,0.0,0.0,0.0,0.0,0.0,0.0,0.0,0.0,0.0,0.0,0.0,0.0,0.0,0.0,0.0,0.0,0.0,0.0,0.0,0.0,0.0,0.0,2.4584,2.4015,2.3517,2.3135,2.3091,2.3144,2.3254,2.3254,2.3254,2.3254,0.0,0.0,0.0,0.0,0.0,0.0,0.0,0.0,0.0,0.0,0.0,0.0,0.0,0.0,0.0,0.0,0.0,0.0,0.0,0.0,0.0,0.0,0.0,0.0,0.0,0.0,0.0,0.0,0.0,0.0,0.0,0.0,0.0,0.0,0.0,0.0,0.0,0.0,0.0,0.0,0.0,0.0,0.0,0.0,0.0,0.0,0.0,0.0,0.0,0.0,0.0,0.0,0.0,0.0,0.0,0.0,0.0,0.0,0.0,0.0,0.0,0.0,0.0,0.0,0.0,0.0,0.0,0.0,0.0,0.0,0.0,0.0,0.0,0.0,0.0,0.0,0.0,0.0,0.0,0.0,0.0,0.0,0.0,0.0,0.0,0.0,0.0,0.0,0.0,0.0,0.0,0.0,0.0,0.0,0.0,0.0,0.0,0.0,0.0,0.0,0.0,0.0,2.4999,2.4637,2.4198,2.3343,2.3157,2.321,2.3482,2.3503,2.3503,2.3525,0.0,0.0,0.0,0.0,0.0,0.0,0.0,0.0,0.0,0.0,0.0,0.0,0.0,0.0,0.0,0.0,0.0,0.0,0.0,0.0,0.0,0.0,0.0,0.0,0.0,0.0,0.0,0.0,0.0,0.0,0.0,0.0,0.0,0.0,0.0,0.0,0.0,0.0,0.0,0.0,0.0,0.0,0.0,0.0,0.0,0.0,0.0,0.0,0.0,0.0,0.0,0.0,0.0,0.0,0.0,0.0,0.0,0.0,0.0,0.0,3.6071,0.0,0.0,0.0,0.0,0.0,0.0,0.0,0.0,0.0,0.0,0.0,0.0,0.0,0.0,0.0,0.0,0.0,0.0,0.0,0.0,0.0,0.0,0.0,0.0,0.0,0.0,0.0,0.0,0.0,0.0,0.0,0.0,0.0,0.0,0.0,0.0,0.0,0.0,0.0,0.0,0.0,2.6914,2.562,2.467,2.4457,2.3637,2.321,2.3482,2.3503,2.3559,2.3732,2.3732,0.0,0.0,0.0,0.0,0.0,0.0,0.0,0.0,0.0,0.0,0.0,0.0,0.0,0.0,0.0,0.0,0.0,0.0,0.0,0.0,0.0,0.0,0.0,0.0,0.0,0.0,0.0,0.0,0.0,0.0,0.0,0.0,0.0,0.0,0.0,0.0,0.0,0.0,0.0,0.0,0.0,0.0,0.0,0.0,0.0,0.0,0.0,0.0,0.0,0.0,0.0,0.0,0.0,0.0,0.0,0.0,0.0,0.0,0.0,0.0,3.686,0.0,0.0,0.0,0.0,0.0,0.0,0.0,0.0,0.0,0.0,0.0,0.0,0.0,0.0,0.0,0.0,0.0,0.0,0.0,0.0,0.0,0.0,0.0,0.0,0.0,0.0,0.0,0.0,0.0,0.0,0.0,0.0,0.0,0.0,0.0,0.0,0.0,0.0,0.0,0.0,2.7698,2.6821,2.5922,2.5041,2.4414,2.3994,2.3851,2.3829,2.3872,2.398,2.4002,0.0,0.0,0.0,0.0,0.0,0.0,0.0,0.0,0.0,0.0,0.0,0.0,0.0,0.0,0.0,0.0,0.0,0.0,0.0,0.0,0.0,0.0,0.0,0.0,0.0,0.0,0.0,0.0,0.0,0.0,0.0,0.0,0.0,0.0,0.0,0.0,0.0,0.0,0.0,0.0,0.0,0.0,0.0,0.0,0.0,0.0,0.0,0.0,0.0,0.0,0.0,0.0,0.0,3.8546,3.842,3.842,3.8406,3.8391,3.8391,3.8391,3.8091,3.7565,3.7447,0.0,0.0,0.0,0.0,0.0,0.0,0.0,0.0,0.0,0.0,0.0,0.0,0.0,0.0,0.0,0.0,0.0,0.0,0.0,0.0,0.0,0.0,0.0,0.0,3.4397,3.4011,0.0,0.0,0.0,0.0,0.0,0.0,0.0,0.0,0.0,0.0,0.0,0.0,2.8322,2.8101,2.7391,2.5826,2.5498,2.5093,2.4394,2.4319,2.4288,2.4249,2.4249,2.4131,0.0,0.0,0.0,0.0,0.0,0.0,0.0,0.0,0.0,0.0,0.0,0.0,0.0,0.0,0.0,0.0,0.0,0.0,0.0,0.0,0.0,0.0,0.0,0.0,0.0,0.0,0.0,0.0,0.0,0.0,0.0,0.0,4.2103,4.2103,0.0,0.0,0.0,0.0,0.0,0.0,0.0,0.0,0.0,0.0,0.0,0.0,0.0,4.0784,4.0713,4.0223,3.9808,3.9454,3.886,3.856,3.8576,3.8448,3.8391,3.8391,3.8391,0.0,3.8205,3.7638,0.0,0.0,0.0,0.0,0.0,0.0,0.0,0.0,0.0,0.0,0.0,0.0,0.0,0.0,0.0,0.0,0.0,0.0,0.0,0.0,0.0,0.0,3.4397,3.4397,3.4397,3.4346,0.0,3.3977,3.3652,3.2773,3.2055,0.0,0.0,0.0,0.0,0.0,0.0,0.0,2.993,2.9245,2.8536,2.794,2.7053,2.6023,2.4885,2.482,2.4712,2.4485,2.4454,2.4378,2.4163,2.4163,0.0,0.0,0.0,0.0,0.0,0.0,0.0,0.0,0.0,0.0,0.0,0.0,0.0,0.0,0.0,0.0,0.0,0.0,0.0,0.0,0.0,0.0,0.0,0.0,0.0,0.0,0.0,0.0,0.0,4.2297,4.2297,4.2297,4.2297,4.2297,0.0,0.0,0.0,0.0,0.0,0.0,0.0,0.0,0.0,4.1386,4.1065,4.0737,4.0449,3.9825,3.9428,3.9262,3.8887,3.8711,3.8711,3.8655,3.8628,3.8628,3.8546,3.8504,3.8476,3.8105,3.7742,3.7402,0.0,0.0,0.0,0.0,3.6213,3.5961,3.5961,3.577,0.0,3.5514,0.0,0.0,0.0,0.0,0.0,0.0,0.0,0.0,0.0,0.0,3.4397,3.4397,3.4397,3.4397,3.4397,3.4621,3.4479,0.0,3.247,3.178,3.1193,0.0,0.0,0.0,0.0,3.0618,3.0888,3.0564,3.0051,2.9388,2.89,2.7981,2.6439,2.6263,2.598,2.5328,2.5295,2.5251,2.5163,2.4805,2.4825,0.0,0.0,0.0,0.0,0.0,0.0,0.0,0.0,0.0,0.0,0.0,0.0,0.0,0.0,0.0,0.0,0.0,0.0,0.0,0.0,0.0,0.0,0.0,0.0,0.0,0.0,0.0,0.0,4.2297,4.2297,4.2297,4.2297,4.2297,0.0,0.0,0.0,0.0,0.0,0.0,4.2019,4.2176,4.2051,4.1503,4.1294,4.0995,4.0601,3.9838,3.9457,3.9457,3.9047,3.886,3.886,3.8819,3.8777,3.8752,3.8669,3.8616,3.8532,3.8434,3.8105,3.7669,3.7669,3.7357,3.692,3.692,3.6798,3.6661,3.6661,3.6538,3.6399,3.6399,3.6056,3.5722,3.604,0.0,0.0,0.0,0.0,3.4397,3.4397,3.4397,3.4426,3.4617,3.4661,3.4704,3.4847,3.527,3.5261,0.0,3.329,3.2758,3.2343,0.0,0.0,0.0,0.0,3.1436,3.1587,3.1599,3.1307,3.0562,3.0489,2.9798,2.8076,2.7657,2.7136,2.6325,2.6033,2.5897,2.5897,2.5418,2.5643,2.6704,0.0,0.0,0.0,0.0,0.0,0.0,0.0,0.0,0.0,0.0,0.0,0.0,0.0,0.0,0.0,0.0,0.0,0.0,0.0,0.0,0.0,0.0,0.0,0.0,0.0,0.0,0.0,0.0,0.0,4.2297,4.2297,0.0,0.0,0.0,0.0,4.2297,4.2297,4.2297,4.2277,4.2297,4.2287,4.2246,4.2218,4.2207,4.2176,4.1208,4.0707,4.0695,3.9549,3.8983,3.8983,3.886,3.8738,3.8616,3.8752,3.8655,3.8422,3.8391,3.8377,3.8349,3.8349,3.8335,3.8307,3.8307,3.7902,3.7342,3.7342,3.692,3.6399,3.6399,3.6384,3.6244,3.5626,3.5432,0.0,0.0,3.4397,3.4397,3.4397,3.4397,3.4559,3.5203,3.5348,3.5523,3.6083,3.6225,3.6051,0.0,3.516,3.4771,3.3933,0.0,3.231,3.1529,3.1406,3.1574,3.2081,3.2156,3.2006,3.1558,3.1519,3.0963,2.9522,2.8511,2.7785,2.7348,2.6437,2.5897,2.5897,2.5877,2.6328,2.7349,2.7063,0.0,0.0,0.0,0.0,0.0,0.0,0.0,0.0,0.0,0.0,0.0,0.0,0.0,0.0,0.0,0.0,0.0,0.0,0.0,0.0,0.0,0.0,0.0,0.0,0.0,0.0,0.0,0.0,4.2297,4.2297,0.0,4.2297,4.2297,4.2297,4.2297,4.2297,4.2297,4.2297,4.2297,4.2297,4.2297,4.197,4.1868,4.205,4.1339,4.1057,4.1181,4.0754,4.0533,4.0533,4.0491,4.0451,4.0395,4.0285,4.0156,4.0072,3.9839,3.9217,3.8391,3.8391,3.8391,3.8391,3.8391,3.825,3.8048,3.8048,3.7887,3.7622,3.7177,3.7342,3.7401,3.5866,3.5706,3.5898,3.5236,3.503,3.5144,3.5571,3.5659,3.5691,3.5909,3.5967,3.604,3.6257,3.6631,3.6881,3.6649,3.5857,3.5036,3.4524,3.3754,3.3042,3.2563,3.2499,3.2562,3.2742,3.2788,3.2714,3.2578,3.2581,3.2113,3.0953,3.0509,2.9713,2.8313,2.7891,2.7418,2.6835,2.7086,2.7685,2.8609,2.888,2.9211,0.0,0.0,0.0,0.0,0.0,0.0,0.0,0.0,0.0,0.0,0.0,0.0,0.0,0.0,0.0,0.0,0.0,0.0,0.0,0.0,0.0,0.0,0.0,0.0,0.0,0.0,4.2297,4.2297,4.2297,4.2297,4.2297,4.2297,4.2297,4.2297,4.2547,4.2697,4.2697,4.2929,4.3072,4.3072,4.2739,4.262,4.2812,4.2302,4.2001,4.194,4.1779,4.1605,4.1394,4.1394,4.1383,4.1324,4.1183,4.1085,4.0983,4.0807,4.0136,3.9192,3.9149,3.9104,3.9104,3.9104,3.9104,3.9104,3.9104,3.9104,3.9046,3.8591,3.8738,3.8811,3.7265,3.6918,3.6934,3.6256,3.5897,3.5799,3.6251,3.6333,3.6359,3.6573,3.6649,3.6693,3.6896,3.7302,3.7607,3.7607,3.6843,3.5935,3.5129,3.456,3.3955,3.3198,3.3102,3.3102,3.3102,3.3102,3.3102,3.3102,3.3102,3.2831,3.2164,3.1502,3.0722,2.9749,2.906,2.8561,2.8281,2.8568,2.9161,3.0052,3.0768,3.1003,3.0819,0.0,0.0,0.0,0.0,0.0,0.0,0.0,0.0,0.0,0.0,0.0,0.0,0.0,0.0,0.0,0.0,0.0,0.0,0.0,0.0,0.0,0.0,0.0,4.2297,4.2297,4.2297,4.2297,4.2297,4.2297,4.2297,4.2315,4.2333,4.2333,4.309,4.3525,4.3525,4.4221,4.4614,4.4614,4.4614,4.4592,4.4577,4.4117,4.3609,4.3003,4.2567,4.2024,4.1461,4.1461,4.139,4.1276,4.1404,4.1321,4.1078,4.122,4.1107,4.0847,4.0603,4.0511,4.0511,4.0511,4.0511,4.0511,4.0511,4.0511,4.0511,4.0511,4.048,4.0346,3.9658,3.895,3.8236,3.7581,3.6886,3.6344,3.6348,3.6362,3.6533,3.7168,3.7331,3.7491,3.8072,3.8202,3.8202,3.8202,3.8202,3.7663,3.5949,3.5615,3.504,3.3398,3.3124,0.0,3.3102,3.3102,3.3102,3.3102,3.3102,3.3102,3.3102,3.1369,3.0678,3.1536,2.9829,2.9222,3.017,3.0238,3.0688,3.1625,3.2602,3.2805,3.224,0.0,0.0,0.0,0.0,0.0,0.0,0.0,0.0,0.0,0.0,0.0,0.0,0.0,0.0,0.0,0.0,0.0,0.0,0.0,0.0,0.0,4.2297,4.2297,4.2297,4.2297,4.2297,4.2297,4.2297,4.2297,4.2297,4.2822,4.3169,4.3169,4.3864,4.431,4.431,4.4489,4.4614,4.4614,4.4614,4.4472,4.4242,4.4106,4.3832,4.3427,4.3301,4.3161,4.2986,4.2986,4.2971,4.2942,4.2883,4.2809,4.2734,4.2628,4.2538,4.235,4.1173,4.0633,4.0511,4.0511,4.0511,4.0511,4.0511,4.0511,4.0511,4.0511,4.0149,3.958,3.8902,3.8186,3.7566,3.7394,3.719,3.7135,3.763,3.7699,3.7723,3.7912,3.7955,3.7999,3.8159,3.8202,3.8202,3.8202,3.8202,3.7848,3.6727,3.6029,3.5257,3.4209,3.3484,0.0,3.3102,3.3102,3.3102,3.3102,3.3102,3.3102,3.3102,3.2612,3.2098,3.1625,3.1103,3.0621,3.0215,3.0845,3.1669,3.2667,3.2961,3.3027,0.0,0.0,0.0,0.0,0.0,0.0,0.0,0.0,0.0,0.0,0.0,0.0,0.0,0.0,0.0,0.0,0.0,0.0,0.0,0.0,0.0,0.0,4.2297,4.2297,4.2297,4.2297,4.2422,4.2751,4.2804,4.2912,4.3233,4.3686,4.3971,4.3971,4.4667,4.5095,4.5095,4.5416,4.5624,4.5624,4.5386,4.5188,4.4984,4.4738,4.4381,4.3977,4.3977,4.3848,4.3598,4.3598,4.3598,4.3598,4.3524,4.3477,4.3462,4.3357,4.3281,0.0,0.0,0.0,0.0,0.0,4.1448,4.1372,4.1372,4.1372,4.1372,4.1372,4.1095,4.061,3.9906,3.9397,3.8927,3.8307,3.8145,3.8164,3.824,3.8227,3.8202,3.8202,3.8202,3.8202,3.8202,3.8202,3.8202,3.8202,3.8202,0.0,3.7529,3.6419,3.5339,3.4509,3.3654,3.3102,3.3102,3.3102,3.3102,3.3102,3.3102,3.3102,3.3102,3.2711,0.0,0.0,0.0,3.1536,3.1414,3.1945,0.0,0.0,0.0,3.3102,3.3102,0.0,0.0,0.0,3.3175,3.3533,0.0,0.0,0.0,0.0,0.0,0.0,0.0,0.0,0.0,0.0,0.0,0.0,0.0,0.0,0.0,0.0,4.2387,4.244,4.244,4.2511,4.2787,4.3436,4.3579,4.3882,4.4542,4.4685,4.4738,4.4738,4.5426,4.5837,4.5837,0.0,0.0,0.0,0.0,4.6057,4.6008,4.5477,4.495,4.439,4.439,4.4121,4.3598,4.3598,4.3598,4.3598,4.3598,4.3598,4.3598,4.3598,4.3539,4.3387,4.3189,4.3113,4.3066,4.2945,4.2791,4.2634,4.2618,0.0,0.0,4.2602,4.2539,4.2349,4.1705,4.1377,4.0994,3.968,3.9247,3.903,3.8375,3.8202,3.8202,3.8202,3.8202,3.8202,3.8202,3.8202,3.8202,3.8202,3.8202,3.8202,3.8202,3.6738,3.5366,3.4641,3.3717,3.3102,3.3102,3.3102,3.3102,3.3102,0.0,0.0,3.3102,3.2286,3.2154,3.3047,3.2251,3.2164,3.3059,3.3102,3.3102,3.3102,3.3102,3.3145,3.324,3.324,3.3696,3.453,3.453,3.4978,0.0,0.0,0.0,0.0,0.0,0.0,0.0,0.0,0.0,0.0,0.0,0.0,0.0,0.0,0.0,4.2297,4.284,4.3258,4.3258,4.3775,4.3989,4.3543,4.4025,4.4442,4.4596,4.5184,4.557,4.557,4.5917,4.6116,4.6116,4.5815,4.5627,4.5627,4.5541,4.5267,4.4831,4.4708,4.4361,4.3774,0.0,0.0,4.3598,4.3598,4.3598,4.3598,4.3598,4.3598,4.3598,4.3598,4.3567,4.3539,4.3219,4.3113,4.3066,4.2945,4.2884,4.2822,4.2665,4.2602,4.2602,4.2602,4.2206,4.1705,4.1542,4.0673,0.0,3.9376,3.8863,3.8375,3.824,3.8202,3.8202,3.8202,3.8202,3.8202,3.8202,3.8202,3.8202,3.8202,3.8202,3.8202,3.8202,3.6738,3.5548,3.5386,3.4079,3.3102,3.3102,3.3102,3.3102,3.3102,3.3102,3.3102,3.3102,3.2918,3.2896,3.3102,3.2918,3.2896,3.3102,3.3102,3.3102,3.3102,3.3102,3.3454,3.4147,3.4147,3.4579,3.5366,3.5366,3.5829,0.0,0.0,0.0,0.0,0.0,0.0,0.0,0.0,0.0,0.0,0.0,4.2297,4.2297,0.0,4.2894,4.2894,4.3543,4.4061,4.4061,4.4703,4.506,4.4685,4.497,4.5363,4.5766,4.5914,4.6006,4.6006,4.5842,4.5751,4.5751,4.5446,4.5303,4.5303,4.5041,4.4759,4.4502,4.4207,4.3906,4.3598,4.3598,4.3598,4.3598,4.3598,4.3598,4.3598,4.3598,4.3598,4.3598,4.3598,4.3598,4.3567,4.3417,4.3295,4.3219,4.3068,4.296,4.2868,4.2665,4.2602,4.2602,4.2602,4.2349,4.1981,4.1607,4.0994,4.0243,3.9502,3.903,3.8675,3.8296,3.8202,3.8202,3.8202,3.8202,3.8202,3.8202,3.8202,3.8202,3.8202,3.8202,3.8202,3.8202,3.6738,3.5595,3.5595,3.417,3.3102,3.3102,3.3102,3.3102,3.3102,3.3102,3.3102,3.3102,3.3102,3.3102,3.3102,3.3102,3.3102,3.3102,3.3102,3.3102,3.3102,3.3526,3.3958,3.4397,3.4793,3.542,3.6261,3.6261,3.6478,0.0,0.0,0.0,0.0,0.0,0.0,0.0,0.0,4.2297,4.2297,4.2297,4.2351,4.2494,4.3054,4.3543,4.3686,4.4346,4.4828,4.4828,4.5523,4.6034,4.6034,4.5926,4.613,4.6782,4.6357,4.602,4.602,4.5477,4.5131,4.5131,4.5024,4.4957,4.4957,4.4555,4.4336,4.4336,4.3848,4.3598,4.3598,4.3598,4.3598,4.3598,4.3598,4.3598,4.3598,4.3598,4.3598,4.3598,4.3598,4.3598,4.3598,4.3598,4.3539,4.3417,4.3219,4.3099,4.2977,4.2774,4.2696,4.2696,4.2696,4.2586,4.2333,4.1754,4.1328,4.0809,3.9629,3.9211,3.8954,3.8356,3.8202,3.8202,3.8202,3.8202,3.8202,3.8202,3.8202,3.8202,3.8202,3.8202,3.8202,3.8202,3.6738,3.5595,3.5595,3.417,3.3102,3.3102,3.3102,3.3102,3.3102,3.3102,3.3102,3.3102,3.3102,3.3102,3.3102,3.3102,3.3102,3.3102,3.3102,3.3102,3.3102,3.3971,3.4481,3.4634,3.546,3.63,3.715,3.715,3.715,4.2634,4.2711,4.2634,4.2379,4.2297,4.2297,0.0,0.0,4.2297,4.2297,4.2297,4.2529,4.3222,4.3436,4.3722,4.4371,4.5149,4.5677,4.5677,4.6355,4.6866,4.6866,4.6454,4.6196,4.6284,4.5746,4.5394,4.5394,4.4896,4.4583,4.4583,4.4076,4.3787,4.3787,4.373,4.37,4.37,4.3626,4.3598,4.3598,4.3598,4.3598,4.3598,4.3598,4.3598,4.3598,4.3598,4.3598,4.3598,4.3598,4.3598,4.3598,4.3598,4.3598,4.3568,4.3417,4.3357,4.3312,4.3113,4.3035,4.3035,4.3035,4.2522,4.1884,4.1787,4.0724,3.952,3.9341,3.8826,3.83,3.8221,3.8202,3.8202,3.8202,3.8202,3.8202,3.8202,3.8202,3.8202,3.8202,3.8202,3.8202,3.8202,3.6738,3.5595,3.5595,3.417,3.3102,3.3102,3.3102,3.3102,3.3102,3.3102,3.3102,3.3102,3.3102,3.3102,3.3102,3.3102,3.3102,3.3102,3.3102,3.3102,3.3102,3.3971,3.4744,3.5467,3.634,3.7208,3.8037,3.8037,3.8037,4.2442,4.2482,4.2452,0.0,4.2297,4.2297,4.2297,4.2297,4.244,4.2894,4.3001,4.3233,4.4007,4.4524,4.4935,0.0,4.5963,4.6389,4.6082,4.6318,4.6405,4.6047,4.5546,4.5468,4.6137,4.5377,4.4828,4.4828,4.4288,4.3977,4.3977,4.373,4.3598,4.3598,4.3598,4.3598,4.3598,4.3598,4.3598,4.3598,4.3598,4.3598,4.3598,4.3598,4.3598,4.3598,4.3598,4.3598,4.3598,4.3598,4.3598,4.3598,4.3598,4.3598,4.3567,4.3464,4.3387,4.3372,4.3174,4.3113,4.3113,4.3113,4.2601,4.1948,4.1835,4.0723,3.9445,3.9338,3.8771,3.8202,3.8202,3.8202,3.8202,3.8202,3.8202,3.8202,3.8202,3.8202,3.8202,3.8202,3.8202,3.8202,3.8202,3.7174,3.6168,3.5675,3.417,3.3102,3.3102,3.3102,3.3102,3.3102,3.3102,3.3102,3.3102,3.3102,3.3102,3.3102,3.3102,3.3102,3.3102,3.3102,3.3102,3.3102,3.4421,3.5257,3.5595,3.6967,3.7848,3.8202,3.8202,3.8202,4.2297,4.2297,0.0,4.2297,4.2297,4.2351,4.2583,4.2626,4.284,4.3633,4.3811,4.4025,4.4792,4.5398,4.5873,4.6088,4.6616,4.6801,4.6272,4.6362,4.6255,4.5683,4.5309,4.5431,4.6265,4.507,4.4248,4.4248,4.3848,4.3598,4.3598,4.3598,4.3598,4.3598,4.3598,4.3598,4.3598,4.3795,4.3895,4.3911,4.411,4.4209,4.4209,4.4209,4.4093,4.3895,4.3895,4.3795,4.3598,4.3598,4.3598,4.3598,4.3598,4.3598,4.3598,4.3477,4.3464,4.3432,4.328,4.3235,4.3235,4.3235,4.2601,4.1819,4.1689,4.0552,3.9259,3.9118,3.8694,3.8258,3.8202,3.824,3.8258,3.8202,3.8202,3.8202,3.8202,3.8202,3.8202,3.8202,3.8202,3.8127,3.7886,3.7323,3.6596,3.5715,3.4379,3.3368,3.3133,3.3102,3.3102,3.3102,3.3102,3.3102,3.3102,3.3102,3.3102,3.3102,3.3102,3.3102,3.3102,3.3102,3.3197,3.3441,3.4869,3.5715,3.5969,3.7477,3.8202,3.8202,3.8391,3.8478,4.2297,0.0,4.2297,4.2297,4.2297,4.2494,4.3294,4.3454,4.3668,4.4407,4.4578,4.481,4.5624,4.5784,4.607,4.6848,4.6973,4.6801,4.6272,4.6763,4.6972,4.642,4.6507,4.665,0.0,4.4827,4.3628,4.3628,4.3613,4.3598,4.3598,4.3598,4.3598,4.3598,4.3598,4.3598,4.3598,4.4307,4.467,4.4687,4.5399,4.5715,4.5715,4.5715,4.5349,4.467,4.467,4.4257,4.3598,4.3598,4.3598,4.3598,4.3598,4.3598,4.3598,4.3598,4.3598,4.3598,4.3598,4.3567,4.3567,4.3567,4.2522,4.123,4.123,3.9964,3.8534,3.8534,3.8497,3.8441,3.824,3.8348,3.8441,3.824,3.8202,3.8202,3.8202,3.8202,3.8202,3.8202,3.8202,3.7924,3.7092,3.6917,3.6596,3.5715,3.4896,3.4055,3.3197,3.3102,3.3102,3.3102,3.3102,3.3102,3.3102,3.3102,3.3102,3.3102,3.3102,3.3102,3.3102,3.3102,3.3484,3.4335,3.5176,3.6009,3.6864,3.7772,3.8202,3.8217,3.887,3.9175,4.2297,0.0,4.2422,4.2965,4.3108,4.3304,4.4061,4.4239,4.4453,4.522,4.5398,4.582,4.7152,4.6955,4.7015,4.8306,4.7742,4.7119,4.713,4.6976,4.6641,4.6064,4.6059,0.0,0.0,0.0,0.0,4.5069,4.5069,4.5069,4.5069,4.5069,4.5069,4.5069,4.5069,4.5069,4.5069,4.5301,4.5432,4.5432,4.5681,4.5813,4.5813,4.5813,4.5664,4.5432,4.5432,4.5284,4.5069,4.5069,4.5069,4.5069,4.5069,4.5069,4.5069,4.5069,4.5069,4.4859,4.344,4.2943,4.2866,4.2364,4.1526,4.0704,4.0567,3.9778,3.8867,3.8741,3.8594,3.8478,3.8422,3.8348,3.8277,3.8221,3.8202,3.8202,3.8202,3.8202,3.8202,3.8202,3.8202,3.8108,3.781,3.7772,3.7407,3.6368,3.5169,3.4097,3.3197,3.3102,3.3102,3.3102,3.3429,3.3492,3.3128,3.3442,3.3492,3.3128,3.3102,3.3368,3.3949,3.3411,3.3969,3.582,3.6129,3.6913,3.8227,3.9061,3.9465,3.9465,3.9697,3.9799,4.2644,4.2744,4.2912,4.3704,4.39,4.4096,4.4863,4.5024,4.5256,4.607,4.6474,4.6973,4.802,4.782,4.7897,4.9109,4.8186,4.739,4.7569,4.73,4.6838,4.6257,4.6427,4.6576,0.0,0.0,0.0,4.5831,4.5813,4.5813,4.5813,4.5813,4.5813,4.5813,4.5813,4.5813,4.5813,4.6063,4.6344,4.6576,4.6576,4.6576,4.6576,4.6576,4.6444,4.6179,4.6179,4.6045,4.5813,4.5813,4.5813,4.5813,4.5813,4.5813,4.5813,4.5813,4.5813,4.5602,4.4225,4.3552,4.3234,4.2765,4.1949,4.1166,4.1025,4.0447,3.9799,3.9654,3.9523,3.9406,3.935,3.9103,3.8837,3.8702,3.8489,3.8277,3.8221,3.8202,3.8202,3.8202,3.8391,3.8456,3.8141,3.8289,3.8206,3.7482,3.6282,3.5041,3.3833,3.3658,3.3658,3.3658,3.3985,3.4048,3.3696,3.3985,3.4035,3.3684,3.3994,3.4422,3.4986,3.4816,3.5566,3.7394,3.7414,3.8038,3.9332,3.9852,4.0104,4.0104,4.035,4.0452,4.3347,4.3561,4.374,4.4489,4.4656,4.4863,4.5677,4.5856,4.6088,4.6902,4.7669,4.8205,0.0,0.0,4.8596,4.9225,4.8299,4.754,4.7644,4.7688,4.7533,0.0,0.0,0.0,0.0,0.0,0.0,4.6013,0.0,4.5913,4.5913,4.5913,4.5913,4.5913,4.5913,4.5913,4.5913,4.6609,4.7305,4.8001,4.8001,4.8001,4.8001,4.8001,4.762,4.6957,4.6957,4.656,4.5913,4.5913,4.5913,4.5914,4.5866,4.585,4.585,4.5803,4.5787,4.5787,4.5787,4.5259,4.4542,4.4493,4.3512,4.2349,4.2349,4.1771,4.1114,4.1114,4.1114,4.1056,4.0868,4.0472,4.0036,3.9658,3.9057,3.8543,3.836,3.8304,3.8304,3.8304,3.8812,3.8986,3.8164,3.8541,3.8922,3.8882,3.8082,3.6817,3.5005,3.4726,3.4703,3.4703,3.4728,3.4728,3.4703,3.4773,3.4783,3.4758,3.5666,3.621,3.6253,3.7136,3.8048,3.8984,3.8963,3.9363,4.0191,4.0191,4.0191,4.022,4.0844,4.1149,4.4114,4.4328,4.4507,4.5291,4.5488,4.5713,4.6516,4.6688,4.692,4.7734,4.8056,4.8408,0.0,0.0,0.0,4.9537,4.8541,0.0,4.8481,4.8188,0.0,4.7735,0.0,4.8001,4.8001,4.8001,0.0,0.0,4.7438,4.7438,4.7438,4.7438,4.7438,4.7438,4.7438,4.7438,4.7438,4.7636,4.7819,4.8001,4.8001,4.8001,4.8001,4.8001,4.7901,4.7719,4.7719,4.7603,4.7438,4.7438,4.7438,4.7389,4.6781,4.6547,4.648,4.5934,4.5741,4.5741,4.5741,4.4899,4.3767,4.3216,4.2424,4.1656,4.1656,4.1502,4.1327,4.1327,4.1228,4.1095,4.1037,4.0827,4.0598,4.0487,4.0231,3.9978,3.992,3.9756,3.9625,3.9625,3.9755,3.9798,3.9567,3.9516,3.9264,3.8561,3.8629,3.8009,3.5999,3.5137,3.4703,3.4703,3.5067,3.5119,3.4728,3.5756,3.622,3.5767,3.6665,3.7517,3.8173,3.7825,3.8533,4.0507,3.9901,4.0245,4.1584,4.1584,4.1584,4.1584,4.1758,4.1845,4.4917,4.5131,4.5309,4.6123,4.632,4.6444,4.6902,4.7277,4.7651,4.8109,4.874,0.0,4.9556,4.9278,0.0,0.0,0.0,0.0,4.8801,4.837,4.8001,0.0,4.8001,0.0,4.8001,4.8001,4.8001,0.0,4.8001,4.8001,4.8001,4.8001,4.8001,4.8001,4.8001,4.8001,4.8001,4.8001,4.8001,4.8001,4.8001,4.8001,4.8001,4.8001,4.8001,4.7984,0.0,4.7671,4.7968,4.7621,4.7688,4.7952,4.7505,4.7118,4.6742,4.634,4.5985,4.5697,4.5697,4.4941,4.3938,4.3522,4.2864,4.2237,4.2237,4.2237,4.2237,4.2237,4.214,4.2077,4.2077,4.1777,4.1476,4.1394,4.1071,4.0729,4.0651,4.0505,4.0446,4.0645,4.0604,4.0626,4.0916,4.0857,4.0574,4.0041,3.9878,3.939,3.8231,3.7259,3.6528,3.6102,3.6338,3.6402,3.6095,3.6861,3.737,3.7457,3.8365,3.9137,3.9627,3.9606,4.0184,4.1506,4.106,4.1247,4.2092,4.2092,4.2092,4.2092,4.2092,4.2092,4.5737,4.5963,4.6123,4.683,4.7009,4.7009,4.7009,4.7616,4.8211,4.8229,0.0,5.0196,4.9626,4.96,4.9644,4.9573,0.0,4.8179,4.8715,4.8339,4.8001,4.8001,4.8001,4.8001,4.8001,4.8001,4.8001,4.8001,4.8001,4.8001,4.8001,4.8001,4.8001,4.8001,4.8001,4.8001,4.8001,4.8001,4.8001,4.8001,4.8001,4.8001,4.8001,4.8001,4.8001,4.7968,4.7253,4.7354,4.7952,4.7236,4.732,4.7836,4.7737,4.7202,4.6466,4.6378,4.5933,4.5387,4.5387,4.4924,4.4373,4.4469,4.3966,4.329,4.329,4.329,4.329,4.329,4.329,4.329,4.329,4.291,4.2472,4.2292,4.1802,4.1308,4.1139,4.1042,4.1106,4.1432,4.1363,4.1424,4.199,4.2092,4.2051,4.1912,4.1275,4.0753,4.0625,3.9659,3.8698,3.79,3.7808,3.7808,3.7808,3.8024,3.8531,3.9329,4.0281,4.0809,4.0809,4.1654,4.2092,4.2092,4.2092,4.2092,4.2092,4.2092,4.2092,4.2092,4.2092,4.2092,4.6569,4.6795,4.683,4.6973,4.7009,4.7009,4.7009,4.7616,0.0,0.0,4.9107,4.9611,4.9117,4.9041,4.8883,4.8386,4.8147,4.8033,4.8147,4.8082,4.8001,0.0,4.8001,4.8001,4.8001,4.8001,0.0,0.0,4.8001,4.8001,4.8001,4.8001,4.8001,4.8001,4.8001,4.8001,4.8001,4.8001,4.8001,4.8001,4.8001,4.8001,4.8001,4.8001,4.8001,4.7984,4.7853,0.0,4.7984,4.7853,4.7488,4.6948,4.634,4.5608,4.4815,4.4147,4.383,4.3713,4.3713,4.363,4.361,4.4278,4.3966,4.329,4.329,4.329,4.329,4.329,4.329,4.329,4.329,4.322,4.3125,4.3105,4.2877,4.2654,4.2614,4.2364,4.2085,4.1992,4.1938,4.1961,4.2078,4.2092,4.1814,4.0993,4.1416,4.1535,4.071,3.9099,3.7978,3.7831,3.7808,3.7808,3.7808,3.9219,4.0181,4.0353,4.1275,4.1835,4.1835,4.2009,4.2092,4.2092,4.2092,4.2092,4.2092,4.2092,4.2092,4.2092,4.2092,4.2092,4.6902,4.7009,4.6934,4.6649,4.659,4.6595,4.666,0.0,0.0,0.0,4.9173,4.9546,4.8999,4.8898,0.0,4.8098,4.8001,4.8001,4.8001,4.8001,4.8001,4.8001,4.8349,4.858,0.0,4.8912,4.9127,4.9127,4.9127,4.8796,4.805,4.8001,4.8001,4.8001,4.8001,4.8001,4.8001,4.8001,4.8001,4.8001,4.8001,4.8001,4.8001,4.8001,4.8001,4.7984,4.7555,0.0,4.7968,4.7555,4.7388,4.7354,4.6585,4.5807,4.5036,4.422,4.3669,4.329,4.329,4.329,4.3369,4.3752,4.361,4.329,4.329,4.329,4.329,4.329,4.329,4.329,4.329,4.329,4.329,4.329,4.323,4.3155,4.3155,4.283,4.252,4.2433,4.2242,4.2092,4.2092,4.2092,4.1933,4.1458,4.1793,4.1933,4.1437,4.0144,3.9263,3.9263,3.9263,3.9263,3.9263,4.0073,4.0831,4.1339,4.1835,4.2092,4.2092,4.2092,4.2092,4.2092,4.2092,4.2092,4.2092,4.2092,4.2092,4.2092,4.2092,4.2092,4.6666,4.6731,4.6696,4.6144,4.6008,4.6074,4.6339,4.7017,0.0,0.0,4.9087,4.9425,4.8823,0.0,4.856,0.0,4.8133,4.8249,4.8249,4.8382,4.8481,0.0,4.8978,0.0,4.9326,4.9855,0.0,5.0203,5.0203,4.969,4.8531,4.8481,4.8481,4.8481,4.8481,4.8481,4.8481,4.8481,4.8481,4.8481,4.8481,4.8481,4.8481,4.8481,4.8481,4.8448,4.7795,0.0,0.0,4.7778,4.7795,4.8149,4.7506,4.6826,4.6103,4.5457,4.4706,4.3997,4.3842,4.3678,4.3504,4.3349,4.329,4.329,4.329,4.329,4.329,4.329,4.329,4.329,4.329,4.329,4.329,4.329,4.329,4.329,4.325,4.299,4.2749,4.2708,4.2412,4.2175,4.2175,4.2133,4.2092,4.2092,4.2092,4.2092,4.2092,4.1416,4.0916,4.0916,4.0731,4.0603,4.0603,4.0809,4.1254,4.2051,4.2092,4.2092,4.2092,4.2092,4.2092,4.2092,4.2092,4.2092,4.2092,4.2092,4.2092,4.2092,4.2092,4.2092,4.5606,4.5865,4.6119,4.5541,4.5381,4.5562,4.6228,0.0,0.0,4.7764,4.8419,4.8792,4.8195,4.8082,0.0,0.0,0.0,4.8994,4.8994,4.9574,4.9988,4.9988,0.0,0.0,5.0104,5.0153,5.0203,5.0203,5.0203,5.0137,5.0004,4.9988,4.9988,4.9988,4.9988,4.9988,4.9988,4.9988,4.9988,4.9988,4.9988,4.9988,4.9988,4.9988,4.9988,4.9988,4.992,4.9937,0.0,4.992,4.9491,4.8899,4.8828,4.8359,4.7693,4.7618,4.7044,4.6221,4.5606,4.4877,4.4102,4.3504,4.329,4.329,4.329,4.329,4.329,4.329,4.329,4.329,4.329,4.329,4.329,4.329,4.329,4.325,4.3076,4.2996,4.2915,4.2749,4.252,4.2372,4.2372,4.2222,4.2092,4.2092,4.2092,4.2092,4.2092,4.203,4.1953,4.1953,4.1135,4.0603,4.0603,4.1437,4.2009,4.2092,4.2092,4.2092,4.2092,4.2092,4.2092,4.2092,4.2092,4.2092,4.2092,4.2092,4.2092,4.2092,4.2092,4.2092,4.5368,4.5477,4.5516,4.4964,4.5141,4.5589,4.5961,0.0,4.731,4.7785,4.8138,4.8275,4.8033,4.8001,4.8001,4.8001,4.863,0.0,4.9094,4.9723,5.0203,5.0203,5.0585,0.0,0.0,0.0,5.1512,5.1512,5.1512,5.1512,5.1512,5.0667,5.0203,5.0203,5.0203,5.0203,5.0203,5.0203,5.0203,5.0203,5.0203,5.0203,5.0203,5.0203,5.0203,5.0203,5.0203,5.0203,0.0,5.0203,5.0015,4.9671,4.9182,4.8499,4.7716,4.7289,4.6581,4.5783,4.5506,4.5192,4.487,4.4601,4.4511,4.4341,4.3529,4.329,4.329,4.329,4.329,4.329,4.329,4.329,4.329,4.329,4.329,4.327,4.321,4.2975,4.2809,4.2708,4.2541,4.2351,4.2242,4.2242,4.2242,4.2113,4.2092,4.2092,4.2092,4.2092,4.2092,4.2092,4.1737,4.1514,4.1514,4.1856,4.2092,4.2092,4.2092,4.2092,4.2092,4.2092,4.2092,4.2092,4.2455,4.2629,4.2629,4.305,4.3239,4.3239,4.3239,4.3239,4.4852,4.4933,4.4971,4.4628,4.4942,4.5479,0.0,0.0,4.7106,4.7852,4.8001,4.8001,4.8001,4.8001,4.8001,4.8001,4.8812,4.9425,4.9425,5.0253,5.085,5.085,0.0,5.1629,0.0,5.2093,5.2391,5.2391,5.2391,5.2391,5.2391,5.1413,5.085,5.085,5.085,5.085,5.085,5.085,5.085,5.085,5.085,5.085,5.085,5.085,5.085,5.085,5.085,0.0,0.0,5.0572,5.0484,5.038,4.9562,4.8847,4.8275,4.7746,4.7021,4.6245,4.6048,4.5802,4.5559,4.5364,4.5289,4.5125,4.4177,4.3758,4.3609,4.3609,4.3439,4.329,4.329,4.329,4.329,4.329,4.329,4.329,4.329,4.307,4.287,4.287,4.2723,4.25,4.2304,4.2366,4.2389,4.2366,4.2368,4.244,4.2629,4.2658,4.2658,4.2658,4.2658,4.2571,4.2382,4.2542,4.2658,4.2658,4.2658,4.2658,4.2658,4.2658,4.2658,4.2658,4.3065,4.3297,4.3297,4.3761,4.3993,4.3993,4.3993,4.4102,4.3774,4.4049,4.4547,4.467,4.4702,4.5084,0.0,0.0,4.7106,4.7852,4.8001,4.8001,4.8001,4.8001,4.8001,4.8001,4.9243,5.0187,5.0187,5.1446,5.2375,0.0,0.0,5.2391,5.2391,5.2391,5.2391,5.2391,5.2391,0.0,5.2391,5.2391,5.2375,5.2375,5.2375,5.2375,5.2375,5.2375,5.2375,5.2375,5.2375,5.2375,5.2375,5.2375,5.2375,5.2375,5.2375,5.2375,0.0,5.1455,5.1102,5.1011,5.0138,4.9789,4.9769,4.9769,4.9267,4.8471,4.7814,4.7,4.6181,4.5514,4.5289,4.5289,4.5274,4.4825,4.4282,4.4282,4.3818,4.329,4.329,4.329,4.329,4.329,4.329,4.329,4.329,4.329,4.329,4.329,4.3135,4.2935,4.2729,4.252,4.2535,4.2932,4.2977,4.3224,4.3892,4.3964,4.3964,4.3964,4.3964,4.3703,4.3057,4.3587,4.3964,4.3964,4.3964,4.3964,4.3964,4.3964,4.3964,4.3964,4.3979,4.3979,4.3979,4.3993,4.3993,4.3993,4.3993,4.4335,4.3658,4.411,4.4645,4.4683,4.5465,4.6344,4.6792,4.7289,4.7719,4.7951,4.8001,4.8001,4.8001,4.8001,4.8166,4.868,4.9557,5.0386,0.0,0.0,0.0,5.2391,5.2391,5.2391,0.0,0.0,5.2391,5.2391,5.2391,5.2391,5.2391,5.2391,5.2391,5.2391,5.2391,5.2391,5.2391,5.2391,5.2391,5.2391,5.2391,5.2391,5.2391,5.2391,5.2391,5.2391,5.2391,0.0,0.0,5.2106,5.198,5.1962,5.1674,5.0859,4.9805,4.9805,4.8913,4.7664,4.7468,4.7216,4.6943,4.6741,4.6666,4.6666,4.6666,4.5888,4.499,4.499,4.4825,4.4676,4.4676,4.4326,4.3982,4.3982,4.3638,4.329,4.329,4.319,4.3229,4.3686,4.3734,4.3781,4.4018,4.4128,4.4103,4.3929,4.3895,4.3904,4.3986,4.3993,4.3993,4.3993,4.4356,4.4364,4.3754,4.3863,4.3993,4.3993,4.3993,4.3993,4.3993,4.3993,4.3993,4.3993,4.4422,4.4625,4.4625,4.509,4.5308,4.5308,4.5308,4.5409,4.3598,4.4141,4.477,4.5051,4.6013,4.6974,4.7255,0.0,4.8001,4.8001,4.8001,4.8001,4.8001,4.8001,4.8249,4.8978,4.9706,5.0469,0.0,0.0,0.0,5.2391,0.0,0.0,0.0,5.2391,5.2391,5.2391,5.2391,5.2391,5.2391,5.2391,5.2391,5.2391,5.2391,5.2391,5.2391,5.2391,5.2391,5.2391,5.2391,5.2391,5.2391,5.2391,5.2391,5.2391,5.2391,0.0,0.0,5.2051,5.1727,5.1399,5.1083,5.0112,4.8851,4.8851,4.8193,4.7309,4.7309,4.7309,4.7309,4.7309,4.7309,4.7309,4.7309,4.6546,4.5618,4.5364,4.5289,4.5289,4.5289,4.499,4.4691,4.4691,4.4356,4.4042,4.4042,4.3961,4.4,4.4411,4.4486,4.4558,4.4779,4.4923,4.4955,4.4809,4.4724,4.4704,4.4814,4.4771,4.4727,4.4727,4.5061,4.5133,4.4756,4.4727,4.4727,4.4727,4.4727,4.4727,4.4727,4.4727,4.4727,4.4727,4.5104,4.5293,4.5293,4.5714,4.5903,4.5903,4.5903,4.5903,0.0,4.4224,4.4952,4.5697,4.6427,4.7156,4.7835,0.0,0.0,4.8001,4.8001,4.8001,4.8001,4.805,4.8315,4.9061,4.9789,5.0535,0.0,5.1961,0.0,0.0,5.2391,0.0,5.2391,5.2391,5.2391,5.2391,5.2391,5.2391,5.2391,5.2391,5.2391,5.2391,5.2391,5.2391,5.2391,5.2391,5.2391,5.2391,5.2391,5.2391,5.2391,5.2391,5.2391,0.0,0.0,0.0,0.0,5.1526,5.0726,4.9919,4.9157,4.8339,4.7559,4.7559,4.7495,4.7381,4.7381,4.7337,4.7309,4.7309,4.7309,4.7309,4.7309,4.6875,4.6241,4.5618,4.5439,4.5439,4.5439,4.5409,4.5364,4.5364,4.5334,4.5289,4.5289,4.5289,4.5304,4.5364,4.5364,4.5332,4.5203,4.5161,4.527,4.5649,4.5514,4.5581,4.6137,4.6023,4.5903,4.5903,4.5903,4.5903,4.5903,4.5903,4.5903,4.5903,4.5903,4.5903,4.5903,4.5903,4.5903,4.5903,4.5903,4.5903,4.5903,4.5903,4.5903,4.5903,4.5903,4.5903,4.4291,0.0,4.5731,4.646,4.7206,4.7785,0.0,4.8001,0.0,0.0,0.0,4.8001,4.8001,4.8465,4.9077,4.9822,5.0551,5.1298,5.2043,0.0,0.0,5.2391,5.2391,5.2391,5.2391,5.2391,5.2391,5.2391,5.2391,5.2391,5.2391,5.2391,5.2391,5.2391,5.2391,5.2391,5.2391,5.2391,5.2391,5.2391,5.2391,5.2391,5.2391,5.2391,5.2391,0.0,0.0,0.0,5.2373,5.2178,5.198,5.1782,5.1582,5.097,5.0206,5.0206,4.9394,4.8282,4.8282,4.7864,4.7309,4.7309,4.7309,4.7309,4.7309,4.7189,4.704,4.6875,4.683,4.683,4.683,4.6435,4.6061,4.6061,4.5678,4.5289,4.5289,4.5289,4.5454,4.5956,4.6061,4.6204,4.6691,4.6745,4.6703,4.6599,4.641,4.6285,4.6218,4.6023,4.5903,4.5903,4.5903,4.5903,4.5903,4.5903,4.5903,4.5903,4.5903,4.5903,4.5903,4.5903,4.5903,4.5903,4.5903,4.5903,4.5903,4.5903,4.5903,4.5903,4.5903,4.5903,4.5002,4.5499,4.5979,4.6709,4.7454,4.8001,4.8001,4.8001,0.0,0.0,0.0,4.8001,4.8001,4.8597,4.9326,5.0071,5.0817,0.0,0.0,0.0,5.2391,5.2391,5.2391,5.2391,0.0,5.2391,5.2391,5.2391,5.2391,5.2391,5.2391,5.2391,5.2391,5.2391,5.2391,5.2391,5.2391,5.2391,5.2391,5.2391,5.2391,5.2391,5.2391,5.2391,5.2391,0.0,0.0,0.0,5.2391,5.2391,5.216,5.18,5.18,5.1046,4.9955,4.9955,4.9132,4.7997,4.7997,4.7694,4.7309,4.7309,4.7309,4.7309,4.7309,4.7309,4.7309,4.7309,4.7309,4.7309,4.7309,4.704,4.6749,4.6749,4.6486,4.6217,4.6217,4.6217,4.6322,4.6674,4.6749,4.6869,4.7249,4.7309,4.7251,4.7121,4.6887,4.6646,4.6403,4.618,4.6001,4.5903,4.5903,4.5903,4.5903,4.5903,4.5903,4.5903,4.5903,4.5903,4.5903,4.5903,4.5903,4.5903,4.5903,4.5903,4.5903,4.5903,4.5903,4.5903,4.5903,4.5903,4.5598,4.588,4.6129,4.6874,4.7537,4.8001,4.8001,0.0,0.0,0.0,0.0,0.0,4.815,4.8779,0.0,0.0,0.0,0.0,5.2308,5.2391,5.2391,5.2391,5.2391,0.0,5.2391,5.2391,5.2441,5.254,5.2557,5.2607,5.2723,5.2723,5.2723,5.2723,5.2723,5.2723,5.2723,5.2507,5.2458,5.2557,5.2557,5.2607,5.2723,5.2723,5.2723,5.2723,0.0,0.0,5.2723,5.2723,5.2218,5.1423,5.1423,5.0465,4.9094,4.897,4.8387,4.7602,4.7382,4.7309,4.7309,4.7309,4.7309,4.7309,4.7309,4.7309,4.7309,4.7309,4.7309,4.7309,4.7309,4.7309,4.7309,4.7309,4.7309,4.7309,4.7309,4.7309,4.7309,4.7309,4.7309,4.7309,4.7309,4.7309,4.7309,4.7309,4.7062,4.6844,4.6683,4.6425,4.6202,4.6038,4.5993,4.5993,4.5993,4.597,4.5948,4.5948,4.5903,4.5903,4.5903,4.5903,4.5903,4.5903,4.5903,4.5903,4.5903,4.5903,4.5903,4.5903,4.5903,4.5903,4.5598,4.6245,4.6908,4.7653,4.7918,4.8001,4.8001,4.8001,0.0,0.0,0.0,0.0,0.0,4.9524,5.027,0.0,0.0,5.2275,0.0,0.0,5.2391,5.2391,0.0,5.2391,5.2391,5.2391,5.264,5.3202,5.3251,5.3515,5.4127,5.4177,5.4177,5.4177,5.4177,5.4177,5.4177,5.2986,5.2672,5.3251,5.3251,5.3564,5.4177,5.4177,5.4177,5.4177,0.0,5.4177,5.4177,5.4177,5.3658,5.2893,5.2893,5.2229,5.124,5.0668,4.9911,4.8983,4.7733,4.7309,4.7309,4.7309,4.7309,4.7309,4.7309,4.7309,4.7309,4.7309,4.7309,4.7309,4.7309,4.7309,4.7309,4.7309,4.7309,4.7309,4.7309,4.7309,4.7309,4.7309,4.7309,4.7309,4.7309,4.7309,4.7309,4.7309,4.7062,4.6894,4.6866,4.6668,4.6528,4.6506,4.6484,4.6484,4.6484,4.6291,4.6143,4.6143,4.5978,4.5903,4.5903,4.5903,4.5903,4.5903,4.5903,4.5903,4.5903,4.5903,4.5903,4.5903,4.5903,4.5903,4.6179,4.6924,4.7587,4.7918,4.8001,4.8001,4.8001,4.8001,0.0,0.0,0.0,0.0,0.0,0.0,5.1049,5.1762,0.0,5.2391,5.2391,5.2391,5.2391,0.0,0.0,5.2391,5.2391,5.2391,5.269,5.3349,5.3399,5.3713,5.4458,5.4508,5.4508,5.4508,5.4508,5.4508,5.4508,5.3864,5.3699,5.3995,5.3995,5.4177,5.4508,5.4508,5.4508,5.4508,0.0,5.423,5.3795,5.3795,5.3259,5.2448,5.2448,5.1902,5.0998,5.0263,4.9741,4.929,4.8616,4.8154,4.7833,4.7833,4.7593,4.7309,4.7309,4.7309,4.7309,4.7309,4.7309,4.7309,4.7309,4.7309,4.7309,4.7309,4.7309,4.7309,4.7309,4.7309,4.7309,4.7309,4.7309,4.7309,4.7309,4.7309,4.7309,4.7309,4.7207,4.7062,4.6916,4.6822,4.6712,4.6616,4.6594,4.6594,4.6594,4.6358,4.6143,4.6046,4.5948,4.5903,4.5903,4.5903,4.5903,4.5903,4.5903,4.5903,4.5903,4.5903,4.5903,4.5903,4.5903,4.5903,4.6692,4.7438,4.8001,4.8001,0.0,4.8001,4.8001,4.8001,0.0,0.0,0.0,0.0,0.0,5.0685,0.0,5.2308,5.2391,5.2391,5.2391,5.2391,5.2391,5.2391,5.2391,5.2391,5.2391,5.254,5.292,5.3597,5.3813,5.4243,5.4972,5.5024,5.5024,5.5024,5.5024,5.5024,5.5024,5.5024,5.4922,5.4756,5.4756,5.4839,5.5024,5.5024,5.5024,5.5024,5.5024,5.4498,5.3686,5.3686,5.3028,5.1994,5.1994,5.1353,5.0356,4.9749,4.9411,4.9292,4.9292,4.8962,4.8543,4.8543,4.8199,4.7758,4.7758,4.7653,4.7534,4.7534,4.7429,4.7309,4.7309,4.7309,4.7309,4.7309,4.7309,4.7309,4.7309,4.7309,4.7309,4.7309,4.7309,4.7309,4.7309,4.7309,4.7309,4.7309,4.7309,4.7229,4.7019,4.6997,4.6931,4.6771,4.6771,4.6749,4.6683,4.6447,4.6202,4.5993,4.5925,4.5903,4.5903,4.5903,4.5903,4.5903,4.5903,4.5903,4.5903,4.5903,4.5903,4.5903,4.5903,4.5903,4.6692,4.7438,4.8001,4.8001,4.8001,0.0,4.8001,4.8001,0.0,4.8895,0.0,0.0,0.0,5.1778,5.2342,5.2391,5.2391,5.2391,5.2391,0.0,5.2391,5.2391,5.2391,5.2391,5.2391,5.2953,5.3631,5.4376,5.5055,5.575,5.65,5.6531,5.6531,5.6531,5.6531,5.6531,5.6531,5.6531,5.62,5.5535,5.5535,5.5882,5.6531,5.6531,5.6531,5.6531,5.6531,5.6014,5.515,5.515,5.4121,5.2541,5.2541,5.1583,5.0198,5.0167,4.9778,4.9292,4.9292,4.9284,4.9239,4.9239,4.9187,4.9164,4.9164,4.8723,4.8244,4.8244,4.7773,4.7309,4.7309,4.7309,4.7309,4.7309,4.7309,4.7309,4.7309,4.7309,4.7309,4.7309,4.7309,4.7309,4.7309,4.7309,4.7309,4.7309,4.7309,4.7287,4.7287,4.7287,4.7266,4.7244,4.7244,4.7142,4.6909,4.669,4.6447,4.6202,4.6001,4.5903,4.5903,4.5903,4.5903,4.5903,4.5903,4.5903,4.5903,4.5903,4.5903,4.5903,4.5903,4.5903,4.7388,4.7785,4.8001,4.8001,4.8001,0.0,0.0,4.8365,4.8746,4.9044,4.9823,0.0,0.0,0.0,5.2391,5.2391,5.2391,5.2391,5.2391,5.2391,5.2391,5.2391,5.2391,5.2391,5.2391,5.3003,5.3697,5.4442,5.5187,5.5916,5.6666,5.6699,5.6699,5.6699,5.6699,5.6699,5.6699,5.6699,5.6567,5.6282,5.6282,5.6432,5.6699,5.6699,5.6699,5.6699,5.6699,5.5848,5.449,5.449,5.3399,5.1742,5.1742,5.1375,5.0832,5.0832,5.0667,5.0481,5.0481,5.0212,4.9868,4.9868,4.9598,4.9292,4.9292,4.9112,4.8917,4.8917,4.8738,4.8364,4.7519,4.7309,4.7309,4.7309,4.7309,4.7309,4.7309,4.7309,4.7309,4.7309,4.7309,4.7309,4.7309,4.7309,4.7309,4.7309,4.7309,4.7309,4.7309,4.7309,4.7309,4.7309,4.7309,4.7186,4.6916,4.6844,4.6867,4.7065,4.6324,4.5903,4.5903,4.5903,4.5903,4.5903,4.5903,4.5903,4.5903,4.5903,4.5903,4.5917,4.6287,4.6453,4.7802,4.8001,4.8001,4.8001,0.0,0.0,4.8349,4.8746,4.9243,4.969,5.0784,0.0,0.0,0.0,0.0,0.0,5.2391,5.2391,5.2391,5.2391,5.2391,5.2391,5.2391,5.2491,5.2706,5.3351,5.4045,5.479,5.5535,5.6183,5.6663,5.6699,5.6699,5.6699,5.6699,5.6699,5.6699,5.6699,5.6699,5.6699,5.6699,5.6699,5.6699,5.6699,5.6699,5.668,5.6391,5.5389,5.3992,5.3675,5.2628,5.1191,5.1191,5.1191,5.1191,5.1191,5.1191,5.1191,5.1191,5.0907,5.0533,5.0533,5.0242,4.9905,4.9905,4.9756,4.9568,4.9568,4.9456,4.9082,4.8162,4.7923,4.7923,4.7923,4.7923,4.7923,4.7923,4.7923,4.7923,4.7923,4.7923,4.7923,4.7923,4.7923,4.7923,4.7923,4.7923,4.7923,4.7923,4.7923,4.7923,4.7923,4.7923,4.7857,4.7673,4.7584,4.7666,4.7991,4.7224,4.6748,4.6748,4.6748,4.6718,4.6627,4.6627,4.6581,4.6513,4.6513,4.6513,4.6513,4.6925,4.7129,4.7802,4.8001,4.8001,4.8001,0.0,0.0,4.911,4.9127,4.9541,5.1,5.1894,5.2391,5.2391,5.2391,0.0,5.2391,5.2391,5.2391,5.2391,5.2391,5.2391,5.2391,5.2391,5.2673,5.3316,5.4061,5.4806,5.5551,5.6282,5.6699,5.6699,5.6699,5.6699,5.6699,5.6699,5.6699,5.6699,5.6699,5.6699,5.6699,5.6699,5.6699,5.6699,5.6699,5.6699,5.6641,5.5712,5.4803,5.3928,5.2969,5.2033,5.1191,5.1191,5.1191,5.1191,5.1191,5.1191,5.1191,5.1191,5.1191,5.1191,5.1191,5.1191,5.1191,5.1191,5.0742,5.0196,5.0196,4.9778,4.9307,4.9307,4.9307,4.9329,4.9292,4.9292,4.9292,4.9292,4.9292,4.9292,4.9292,4.9292,4.9292,4.9292,4.9292,4.9292,4.9292,4.9292,4.9292,4.9292,4.9292,4.9292,4.9292,4.9292,4.9292,4.9292,4.9058,4.8922,4.8922,4.8732,4.8594,4.8594,4.8594,4.8456,4.8208,4.8208,4.8077,4.7805,4.7805,4.7805,4.7805,4.782,4.782,4.7934,4.8001,0.0,4.8001,0.0,0.0,0.0,5.027,0.0,0.0,5.2242,5.2391,5.2391,0.0,0.0,5.2391,5.2391,5.2391,5.2391,5.2391,5.2391,5.2391,5.2391,5.2673,5.3316,5.4061,5.4806,5.5551,5.6282,5.6699,5.6699,5.6699,5.6699,5.6699,5.6699,5.6699,5.6699,5.6699,5.6699,5.6699,5.6699,5.6699,5.6699,5.6699,5.6699,5.668,5.6411,5.541,5.3885,5.2268,5.1456,5.1191,5.1191,5.1191,5.1191,5.1191,5.1191,5.1191,5.1191,5.1191,5.1191,5.1191,5.1191,5.1191,5.1191,5.1056,5.0907,5.0907,5.0757,5.0646,5.0646,5.0646,5.0406,4.9501,4.9292,4.9292,4.9292,4.9292,4.9292,4.9292,4.9292,4.9292,4.9292,4.9292,4.9292,4.9292,4.9292,4.9292,4.9292,4.9292,4.9292,4.9292,4.9292,4.9292,4.9292,4.9232,4.9358,4.9798,4.9759,4.9298,4.8347,4.8309,4.8193,4.7922,4.7922,4.7876,4.7805,4.7805,4.7805,4.782,4.8246,4.8435,4.8001,4.8001,0.0,4.8365,4.8995,4.9823,5.0833,0.0,0.0,0.0,5.2391,5.2391,5.2391,5.2391,0.0,5.2391,5.2391,5.2391,5.2391,5.2391,5.2391,5.2391,5.2391,5.2789,5.373,5.4243,5.4922,5.5949,5.6448,5.6699,5.6699,5.6699,5.6699,5.6699,5.6699,5.6699,5.6699,5.6699,5.6699,5.6699,5.6699,5.6508,5.6162,5.6528,5.6699,5.6661,5.5944,5.4798,5.3343,5.1819,5.1191,5.1191,5.1191,5.1191,5.1191,5.1191,5.1191,5.1191,5.1191,5.1191,5.1191,5.1191,5.1191,5.1191,5.1191,5.1191,5.1191,5.1191,5.1191,5.1191,5.1191,5.1191,5.0996,5.0227,5.0047,5.0047,5.0047,5.0047,5.0047,5.0047,5.0047,5.0047,5.0047,5.0047,5.0047,5.0047,5.0047,5.0047,5.0047,5.0047,5.0047,5.0047,5.0047,5.0047,5.0047,5.0047,5.0212,5.0578,5.0607,5.0196,4.926,4.9222,4.9104,4.8883,4.8765,4.8656,4.856,4.856,4.856,4.856,4.8928,4.9103,4.8001,4.805,4.8266,4.8945,4.969,0.0,5.2077,5.2391,5.2391,5.2391,0.0,5.2391,5.2391,5.2391,5.2391,5.2391,5.2391,5.2391,5.2391,5.2391,5.2391,5.2391,5.2458,5.3019,5.4376,5.4558,5.517,5.6581,5.6699,5.6699,5.6699,5.6699,5.6699,5.6699,5.6699,5.6699,5.6699,5.6699,5.6699,5.6699,5.6622,5.6123,5.5316,5.6277,5.6661,5.6469,5.4653,5.3387,5.2538,5.158,5.1191,5.1191,5.1191,5.1191,5.1191,5.1191,5.1191,5.1191,5.1191,5.1191,5.1191,5.1191,5.1191,5.1191,5.1191,5.1191,5.1191,5.1191,5.1191,5.1191,5.1191,5.1191,5.1191,5.1191,5.1191,5.1191,5.1191,5.1191,5.1191,5.1191,5.1191,5.1191,5.1191,5.1191,5.1191,5.1191,5.1191,5.1191,5.1191,5.1191,5.1191,5.1191,5.1191,5.1191,5.1191,5.1191,5.1191,5.1191,5.1191,5.1097,5.0855,5.0807,5.0719,5.0501,5.027,5.0014,4.9756,4.9756,4.9732,4.9693,4.9693,4.9693,4.8001,4.8431,0.0,4.9061,5.0088,5.1298,5.2192,5.2391,5.2391,5.2391,5.2391,5.2391,5.2391,5.2391,5.2391,5.2391,5.2391,5.2391,5.2391,5.2391,5.2391,5.2391,5.2854,5.3515,5.4409,5.5021,5.5733,5.6633,5.6699,5.6699,5.6699,5.6699,5.6699,5.6699,5.6699,5.6699,5.6699,5.6699,5.6699,0.0,5.5948,5.5495,5.5316,5.6277,5.6297,5.5495,5.3681,5.2807,5.2538,5.158,5.1191,5.1191,5.1191,5.1191,5.1191,5.1191,5.1191,5.1191,5.1191,5.1191,5.1191,5.1191,5.1191,5.1191,5.1191,5.1191,5.1191,5.1191,5.1191,5.1191,5.1191,5.1191,5.1191,5.1191,5.1191,5.1191,5.1191,5.1191,5.1191,5.1191,5.1191,5.1191,5.1191,5.1191,5.1191,5.1191,5.1191,5.1191,5.1191,5.1191,5.1191,5.1191,5.1191,5.1191,5.1191,5.1191,5.1191,5.1191,5.1191,5.1167,5.112,5.0917,5.0719,5.0501,5.0453,5.027,5.0014,5.0014,4.9902,4.9693,4.9693,4.9693,4.8001,4.8547,0.0,4.9972,0.0,5.1927,5.2308,5.2391,5.2391,5.2391,5.2391,5.2391,5.2391,5.2391,5.2391,5.2391,5.2391,5.2391,5.2391,5.2391,5.2391,5.2391,5.2986,5.368,5.4425,5.517,5.5899,5.665,5.6699,5.6699,5.6699,5.6699,5.6699,5.6699,5.6699,5.6699,5.6699,5.6699,5.6469,5.6008,5.5535,5.5071,5.4678,5.5169,5.5128,5.4595,5.3196,5.2606,5.2538,5.158,5.1191,5.1191,5.1191,5.1191,5.1191,5.1191,5.1191,5.1191,5.1191,5.1191,5.1191,5.1191,5.1191,5.1191,5.1191,5.1191,5.1191,5.1191,5.1191,5.1191,5.1191,5.1191,5.1191,5.1191,5.1191,5.1191,5.1191,5.1191,5.1191,5.1191,5.1191,5.1191,5.1191,5.1191,5.1191,5.1191,5.1191,5.1191,5.1191,5.1191,5.1191,5.1191,5.1191,5.1191,5.1191,5.1191,5.1191,5.1191,5.1191,5.1191,5.1191,5.1058,5.087,5.0647,5.0558,5.0429,5.0294,5.0159,5.0038,4.9878,4.9756,4.9693,4.8199,4.8829,4.9806,5.1149,5.1944,0.0,5.2391,5.2391,5.2391,5.2391,5.2391,5.2391,5.2391,5.2391,5.2391,5.2391,5.2391,5.2391,5.2391,5.2391,5.2391,5.2391,5.3102,5.3829,5.4442,5.5286,5.6031,5.665,5.6699,5.6699,5.6699,5.6699,5.6699,5.6699,5.6699,5.6699,5.6699,5.6699,5.6316,5.5535,5.5215,5.4532,5.3518,5.3518,5.3605,5.3713,5.2769,5.2374,5.2306,5.1526,5.1191,5.1191,5.1191,5.1191,5.1191,5.1191,5.1191,5.1191,5.1191,5.1191,5.1191,5.1191,5.1191,5.1191,5.1191,5.1191,5.1191,5.1191,5.1191,5.1191,5.1191,5.1191,5.1191,5.1191,5.1191,5.1191,5.1191,5.1191,5.1191,5.1191,5.1191,5.1191,5.1191,5.1191,5.1191,5.1191,5.1191,5.1191,5.1191,5.1191,5.1191,5.1191,5.1191,5.1191,5.1191,5.1191,5.1191,5.1191,5.1191,5.1191,5.1191,5.1191,5.1097,5.0855,5.0662,5.0534,5.0501,5.0246,5.0086,5.0038,4.9805,4.9693,4.8945,4.9955,5.1198,0.0,5.2325,5.2391,0.0,0.0,5.2391,0.0,5.2391,5.2391,5.2391,5.2391,5.2391,5.2391,5.2391,5.2391,5.2391,5.2391,5.2391,5.2391,5.3566,5.4392,5.4492,5.5752,5.6581,5.6699,5.6699,5.6699,5.6699,5.6699,5.6699,5.6699,5.6699,5.6699,5.6699,5.6699,5.6641,5.6489,5.4923,5.3262,5.1557,5.1557,5.2025,5.2725,5.1796,5.1401,5.1363,5.1261,5.1191,5.1191,5.1191,5.1191,5.1191,5.1191,5.1191,5.1191,5.1191,5.1191,5.1191,5.1191,5.1191,5.1191,5.1191,5.1191,5.1191,5.1191,5.1191,5.1191,5.1191,5.1191,5.1191,5.1191,5.1191,5.1191,5.1191,5.1191,5.1191,5.1191,5.1191,5.1191,5.1191,5.1191,5.1191,5.1191,5.1191,5.1191,5.1191,5.1191,5.1191,5.1191,5.1191,5.1191,5.1191,5.1191,5.1191,5.1191,5.1191,5.1191,5.1191,5.1191,5.1167,5.1144,5.0893,5.0671,5.0501,5.0246,4.999,4.9756,4.9732,4.9693,5.0104,5.0817,5.1463,5.2209,5.2391,5.2391,5.2391,5.2391,5.2391,5.2391,5.2391,5.2391,5.2391,5.2391,5.2391,5.2391,5.2391,5.2391,5.2391,5.2391,5.2391,5.2391,5.3649,5.4508,5.4508,5.5835,5.6699,5.6699,5.6699,5.6699,5.6699,5.6699,5.6699,5.6699,5.6699,5.6699,5.6699,5.6699,5.6198,5.5165,5.3306,5.2002,5.1191,5.1191,5.1433,5.1773,5.1363,5.1191,5.1191,5.1191,5.1191,5.1191,5.1191,5.1191,5.1191,5.1191,5.1191,5.1191,5.1191,5.1191,5.1191,5.1191,5.1191,5.1191,5.1191,5.1191,5.1191,5.1191,5.1191,5.1191,5.1191,5.1498,5.1768,5.1768,5.2052,5.2321,5.2321,5.2037,5.1872,5.2247,5.2321,5.2321,5.2321,5.2321,5.2321,5.2321,5.2321,5.2321,5.2321,5.2321,5.2321,5.2321,5.2321,5.2321,5.2321,5.2321,5.2321,5.2321,5.2321,5.2321,5.2321,5.2321,5.2321,5.2321,5.1313,5.0775,5.0671,5.0279,5.0038,4.9926,4.9781,4.9693,5.1231,5.1579,5.1712,5.2259,5.2391,5.2391,0.0,0.0,5.2391,0.0,5.2391,5.2391,5.2391,5.2391,5.2391,5.2391,5.2391,5.2391,5.2391,5.2391,5.2391,5.2391,5.3649,5.4508,5.4508,5.5835,5.6699,5.6699,5.6699,5.6699,5.6699,5.6699,5.6699,5.6699,5.6699,5.6699,5.6699,5.6469,5.5568,5.3992,5.2336,5.1433,5.1191,5.1191,5.1191,5.1191,5.1191,5.1191,5.1191,5.1191,5.1191,5.1191,5.1191,5.1191,5.1191,5.1191,5.1191,5.1191,5.1191,5.1191,5.1191,5.1191,5.1191,5.1191,5.1191,5.1191,5.1236,5.1424,5.1445,5.1475,5.1678,5.2082,5.2441,5.2441,5.2854,5.3198,5.3198,5.28,5.2591,5.3109,5.3198,5.3198,5.3198,5.3198,5.3198,5.3198,5.3198,5.3198,5.3198,5.3198,5.3198,5.3198,5.3198,5.3198,5.3198,5.3198,5.3198,5.3198,5.3198,5.3198,5.3198,5.3198,5.3198,5.3198,5.1962,5.1312,5.1312,5.0894,5.0691,5.0691,5.0408,5.0334,5.2126,5.2342,5.2342,5.2391,5.2391,5.2391,0.0,0.0,5.2391,5.2391,5.2391,5.2391,5.2391,5.2391,5.2391,5.2391,5.2391,5.2391,5.2391,5.2391,5.2391,5.2391,5.3649,5.4508,5.4508,5.5835,5.6699,5.6699,5.6699,5.6699,5.6699,5.6699,5.6699,5.6699,5.6699,5.6699,5.6699,5.5829,5.4907,5.3992,5.2991,5.2056,5.1191,5.1191,5.1191,5.1191,5.1191,5.1191,5.1191,5.1191,5.1191,5.1191,5.1191,5.1191,5.1191,5.1191,5.1191,5.1191,5.1191,5.1191,5.1191,5.1191,5.1191,5.1191,5.1191,5.1191,5.1325,5.1977,5.2157,5.2291,5.2944,5.3124,5.3154,5.3154,5.3183,5.3198,5.3198,5.3183,5.3169,5.3198,5.3198,5.3198,5.3198,5.3198,5.3198,5.3198,5.3198,5.3198,5.3198,5.3198,5.3198,5.3198,5.3198,5.3198,5.3198,5.3198,5.3198,5.3198,5.3198,5.3198,5.3198,5.3198,5.3198,5.3198,5.287,5.2694,5.2694,5.2408,5.2269,5.2269,5.2025,5.2011,0.0,0.0,5.2391,5.2391,5.2391,5.2391,5.2391,5.2391,5.2391,5.2391,5.2391,5.2391,5.2391,5.2391,5.2391,5.2391,5.2391,5.2391,5.2391,5.2391,5.2391,5.2391,5.3649,5.4508,5.4508,5.5835,5.6699,5.6699,5.6699,5.6699,5.6699,5.6699,5.6699,5.6699,5.6699,5.6394,5.5812,5.4907,5.4019,5.3102,5.2147,5.1526,5.1191,5.1191,5.1191,5.1191,5.1191,5.1191,5.1191,5.1191,5.1191,5.1191,5.1191,5.1191,5.1191,5.1191,5.1191,5.1191,5.1191,5.1191,5.1265,5.1708,5.1843,5.1932,5.2351,5.2471,5.2531,5.2755,5.2854,5.2914,5.3139,5.3503,5.3952,5.4371,5.4461,5.4461,5.4461,5.4147,5.3967,5.4411,5.4461,5.4461,5.4461,5.4461,5.4461,5.4461,5.4461,5.4461,5.4461,5.4461,5.4461,5.4461,5.4461,5.4461,5.4461,5.4461,5.4461,5.4461,5.4461,5.4461,5.4461,5.4461,5.4461,5.4461,5.4401,5.3834,5.2798,5.2536,5.2397,5.2397,5.2298,5.2298,5.2275,0.0,0.0,0.0,5.2391,5.2391,5.2391,5.2391,5.2391,5.2391,5.2391,5.2391,5.2391,5.2391,5.2391,5.2391,5.2391,5.2391,5.2391,5.2391,5.2391,5.2391,5.3649,5.4508,5.4508,5.5835,5.6699,5.6699,5.6699,0.0,5.6699,5.6699,5.6699,5.6699,5.6699,5.6257,5.5296,5.4443,5.3524,5.2583,5.165,5.1191,5.1191,5.1191,5.1191,5.1206,5.143,5.14,5.1191,5.1191,5.1191,5.1191,5.1191,5.1325,5.1558,5.1558,5.1693,5.1872,5.1872,5.1872,5.1947,5.2381,5.2531,5.2621,5.3064,5.3198,5.3258,5.3458,5.3558,5.3603,5.3812,5.4192,5.4655,5.5089,5.5194,5.5194,5.5194,5.485,5.467,5.5104,5.5194,5.5194,5.5194,5.5194,5.5194,5.5194,5.5194,5.5194,5.5194,5.5194,5.5194,5.5194,5.5194,5.5194,5.5194,5.5194,5.5194,5.5194,5.5194,5.5194,5.5194,5.5194,5.5194,5.5194,5.5194,5.467,5.3615,5.3426,5.3351,5.3351,5.3251,5.3136,0.0,0.0,0.0,0.0,5.2391,5.2391,5.2391,5.2391,5.2391,5.2391,5.2391,5.2391,5.2391,5.2391,5.2391,5.2391,5.2391,5.2391,5.2391,5.2391,5.2391,5.2391,5.3649,5.4508,5.4508,5.5835,5.6699,5.6699,5.6699,5.6699,5.6699,5.6699,5.6699,5.6699,5.6661,5.6218,5.5276,5.4401,5.3496,5.2561,5.1627,5.1191,5.1191,5.1191,5.1191,5.1236,5.1887,5.1813,5.1221,5.1251,5.1251,5.1251,5.1251,5.1678,5.2232,5.2232,5.2636,5.3198,5.3198,5.3198,5.3198,5.3228,5.3243,5.3243,5.3258,5.3258,5.3393,5.4057,5.4236,5.4386,5.5029,5.5194,5.5194,5.5194,5.5194,5.5194,5.5194,5.5194,5.5194,5.5194,5.5194,5.5194,5.5194,5.5194,5.5194,5.5194,5.5194,5.5194,5.5194,5.5194,5.5194,5.5194,5.5194,5.5194,5.5194,5.5194,5.5194,5.5194,5.5194,5.5194,5.5194,5.5194,5.5194,5.5194,5.5194,5.5194,5.5194,5.5194,5.5194,5.5194,5.4941,5.463,5.2391,0.0,0.0,0.0,0.0,0.0,5.2391,5.2391,5.2391,5.2391,5.2391,5.2391,5.2391,5.2391,5.2391,5.2391,5.2391,5.2391,5.2391,5.2391,5.2391,5.2391,5.3649,5.4508,5.4508,5.5835,5.6699,0.0,5.6699,5.6699,5.6699,5.6699,5.6699,5.6699,5.6027,5.5251,5.438,5.3437,5.2516,5.158,5.1316,5.1191,5.1191,5.1191,5.1191,5.1206,5.1385,5.1663,5.1962,5.2441,5.2636,5.2636,5.2636,5.2755,5.2929,5.2929,5.3049,5.3198,5.3198,5.3198,5.3288,5.3773,5.3922,5.4012,5.4491,5.4665,5.4695,5.4865,5.4925,5.497,5.5149,5.5194,5.5194,5.5194,5.5194,5.5194,5.5194,5.5194,5.5194,5.5194,5.5194,5.5194,5.5194,5.5194,5.5194,5.5194,5.5194,5.5194,5.5194,5.5194,5.5194,5.5194,5.5194,5.5194,5.5194,5.5194,5.5194,5.5194,5.5194,5.5194,5.5194,5.5194,5.5194,5.5194,5.5194,5.5194,5.5194,5.5194,5.5194,5.5194,5.5118,5.4941,0.0,0.0,0.0,0.0,0.0,0.0,5.2391,5.2391,5.2391,5.2391,5.2391,5.2391,5.2391,5.2391,5.2391,5.2391,5.2391,5.2391,5.2391,5.2391,5.2391,5.2391,5.3367,5.416,5.4475,5.5551,5.6365,5.6683,5.6699,5.6699,5.6699,5.6699,5.6699,5.6699,5.5792,5.4886,5.4014,5.308,5.2124,5.1191,5.1191,5.1191,5.1191,5.1191,5.1191,5.1206,5.149,5.2007,5.2665,5.3324,5.3443,5.3198,5.3198,5.3378,5.3608,5.3608,5.3788,5.4037,5.4037,5.4037,5.4112,5.4491,5.4625,5.4685,5.5074,5.5194,5.5194,5.5194,5.5194,5.5194,5.5194,5.5194,5.5194,5.5194,5.5194,5.5194,5.5194,5.5194,5.5194,5.5194,5.5194,5.5194,5.5194,5.5194,5.5194,5.5194,5.5194,5.5194,5.5194,5.5194,5.5194,5.5194,5.5194,5.5194,5.5194,5.5194,5.5194,5.5194,5.5194,5.5194,5.5194,5.5194,5.5194,5.5194,5.5194,5.5194,5.5194,5.5194,5.5194,5.5194,5.5194,5.5118,0.0,0.0,0.0,0.0,0.0,0.0,5.2391,5.2391,5.2391,5.2391,5.2391,5.2391,5.2391,5.2391,5.2391,5.2391,5.2391,5.2391,5.2391,5.2391,5.2391,5.2391,5.2986,5.368,5.4425,5.517,5.5899,5.665,5.6699,5.6699,5.6699,5.6699,5.6699,5.6699,5.5792,5.4886,5.4014,5.308,5.2124,5.1191,5.1191,5.1191,5.1191,5.1191,5.1191,5.1221,5.1828,5.2501,5.3258,5.3847,5.3832,5.3423,5.3423,5.3788,5.4326,5.4326,5.4685,5.5194,5.5194,5.5194,5.5194,5.5194,5.5194,5.5194,5.5194,5.5194,5.5194,5.5194,5.5194,5.5194,5.5194,5.5194,5.5194,5.5194,5.5194,5.5194,5.5194,5.5194,5.5194,5.5194,5.5194,5.5194,5.5194,5.5194,5.5194,5.5194,5.5194,5.5194,5.5194,5.5194,5.5194,5.5194,5.5194,5.5194,5.5194,5.5194,5.5194,5.5194,5.5194,5.5194,5.5194,5.5194,5.5194,5.5194,5.5194,5.5194,5.5194,5.5194,5.5194,5.5194,5.5194,5.5194,0.0,0.0,0.0,0.0,0.0,0.0,5.2391,5.2391,5.2391,5.2391,5.2391,5.2391,5.2391,5.2391,5.2391,5.2391,5.2391,5.2391,5.2391,5.2391,5.2391,5.2391,5.2986,5.368,5.4425,5.517,5.5899,5.665,5.6699,5.6699,5.6699,5.6699,5.6699,5.6699,5.5792,5.4886,5.4014,5.308,5.2124,5.1191,5.1191,5.1191,5.1191,5.1191,5.1191,5.1206,5.1325,5.2082,5.3213,5.3348,5.3937,5.4805,5.4805,5.488,5.4999,5.4999,5.5089,5.5194,5.5194,5.5194,5.5194,5.5194,5.5194,5.5194,5.5194,5.5194,5.5194,5.5194,5.5194,5.5194,5.5194,5.5194,5.5194,5.5194,5.5194,5.5194,5.5194,5.5194,5.5194,5.5194,5.5194,5.5194,5.5194,5.5194,5.5194,5.5194,5.5194,5.5194,5.5194,5.5194,5.5194,5.5194,5.5194,5.5194,5.5194,5.5194,5.5194,5.5194,5.5194,5.5194,5.5194,5.5194,5.5194,5.5194,5.5194,5.5194,5.5194,5.5194,5.5194,5.5194,5.5194,5.5194,0.0,0.0,0.0,5.2391,0.0,0.0,0.0,5.2391,5.2391,5.2391,5.2391,5.2391,5.2391,5.2391,5.2391,5.2391,5.2391,5.2391,5.2391,5.2391,5.2391,5.2391,5.2706,5.3318,5.4392,5.4839,5.5502,5.6633,5.6699,5.6699,5.6699,5.6699,5.6699,5.6699,5.5369,5.4427,5.3998,5.259,5.1673,5.1191,5.1191,5.1191,5.1191,5.1191,5.1191,5.1191,5.1191,5.1962,5.3198,5.3198,5.3992,5.5194,5.5194,5.5194,5.5194,5.5194,5.5194,5.5194,5.5194,5.5194,5.5194,5.5194,5.5194,5.5194,5.5194,5.5194,5.5194,5.5194,5.5194,5.5194,5.5194,5.5194,5.5194,5.5194,5.5194,5.5194,5.5194,5.5194,5.5194,5.5194,5.5194,5.5194,5.5194,5.5194,5.5194,5.5194,5.5194,5.5194,5.5194,5.5194,5.5194,5.5194,5.5194,5.5194,5.5194,5.5194,5.5194,5.5194,5.5194,5.5194,5.5194,5.5194,5.5194,5.5194,5.5194,5.5194,5.5194,5.5194,5.5194,5.5194,5.5194,5.5194,0.0,0.0,0.0,0.0,0.0,5.2391,0.0,0.0,0.0,5.2391,5.2391,0.0,0.0,0.0,0.0,5.2391,0.0,0.0,0.0,5.2142,0.0,5.2373,5.2391,5.2905,5.416,5.4375,5.5085,5.6597,5.6528,5.6508,5.668,5.6699,5.6622,5.645,5.5005,5.4083,5.3719,5.2238,5.1363,5.1191,5.1191,5.1191,5.1191,5.1191,5.1191,5.1191,5.1191,5.1962,5.3198,5.3198,5.3992,5.5194,5.5194,5.5194,5.5194,5.5194,5.5194,5.5194,5.5194,5.5194,5.5194,5.5194,5.5194,5.5194,5.5194,5.5194,5.5194,5.5194,5.5194,5.5194,5.5194,5.5194,5.5194,5.5194,5.5194,5.5194,5.5194,5.5194,5.5194,5.5194,5.5194,5.5194,5.5194,5.5194,5.5194,5.5194,5.5194,5.5194,5.5194,5.5194,5.5194,5.5194,5.5194,5.5194,5.5194,5.5194,5.5194,5.5194,5.5194,5.5194,5.5194,5.5194,5.5194,5.5194,5.5194,5.5194,5.5194,5.5194,5.5194,5.5194,5.5194,5.5194,0.0,0.0,0.0,0.0,5.2391,0.0,0.0,0.0,5.2391,5.2391,0.0,0.0,0.0,0.0,0.0,0.0,0.0,0.0,5.1359,5.125,5.1526,5.2302,5.2391,5.2706,5.3448,5.4014,5.4979,5.6592,5.5928,5.5812,5.6661,5.6699,5.6316,5.5495,5.5255,5.4369,5.2769,5.2561,5.201,5.1191,5.1191,5.1191,5.1191,5.1191,5.1191,5.1191,5.1191,5.1962,5.3198,5.3198,5.3992,5.5194,5.5194,5.5194,5.5194,5.5194,5.5194,5.5194,5.5194,5.5194,5.5194,5.5194,5.5194,5.5194,5.5194,5.5194,5.5194,5.5194,5.5194,5.5194,5.5194,5.5194,5.5194,5.5194,5.5194,5.5194,5.5194,5.5194,5.5194,5.5194,5.5194,5.5194,5.5194,5.5194,5.5194,5.5194,5.5194,5.5194,5.5194,5.5194,5.5194,5.5194,5.5194,5.5194,5.5194,5.5194,5.5194,5.5194,5.5194,5.5194,5.5194,5.5194,5.5194,5.5194,5.5194,5.5194,5.5194,5.5194,5.5194,5.5194,5.5194,5.5194,0.0,0.0,0.0,0.0,0.0,0.0,5.2391,0.0,5.2391,0.0,0.0,0.0,0.0,0.0,0.0,0.0,5.2391,0.0,0.0,0.0,5.1046,0.0,0.0,0.0,5.3892,5.4198,5.4978,5.6592,5.5832,5.5712,5.6641,5.6699,5.6508,5.6123,5.5087,5.419,5.3431,5.2336,5.158,5.1191,5.1191,5.1191,5.1191,5.1191,5.1191,5.1221,5.1594,5.2321,5.3243,5.3608,5.4341,5.5194,5.5194,5.5194,5.5194,5.5194,5.5194,5.5194,5.5194,5.5194,5.5194,5.5194,5.5194,5.5194,5.5194,5.5194,5.5194,5.5194,5.5194,5.5194,5.5194,5.5194,5.5194,5.5194,5.5194,5.5194,5.5194,5.5194,5.5194,5.5194,5.5194,5.5194,5.5194,5.5194,5.5194,5.5194,5.5194,5.5194,5.5194,5.5194,5.5194,5.5194,5.5194,5.5194,5.5194,5.5194,5.5194,5.5194,5.5194,5.5194,5.5194,5.5194,5.5194,5.5194,5.5194,5.5194,5.5194,5.5194,5.5194,5.5194,5.5194,5.5194,5.248,0.0,0.0,0.0,0.0,0.0,0.0,0.0,0.0,0.0,0.0,0.0,0.0,0.0,0.0,0.0,0.0,5.1944,0.0,5.0612,0.0,0.0,0.0,0.0,0.0,5.3366,5.4055,5.5928,5.5357,5.547,5.6641,5.6699,5.6583,5.6316,5.4798,5.3885,5.3626,5.2025,5.1191,5.1191,5.1191,5.1191,5.1191,5.1191,5.1191,5.1236,5.1917,5.2576,5.3258,5.3922,5.4596,5.5194,5.5194,5.5194,5.5194,5.5194,5.5194,5.5194,5.5194,5.5194,5.5194,5.5194,5.5194,5.5194,5.5194,5.5194,5.5194,5.5194,5.5194,5.5194,5.5194,5.5194,5.5194,5.5194,5.5194,5.5194,5.5194,5.5194,5.5194,5.5194,5.5194,5.5194,5.5194,5.5194,5.5194,5.5194,5.5194,5.5194,5.5194,5.5194,5.5194,5.5194,5.5194,5.5194,5.5194,5.5194,5.5194,5.5194,5.5194,5.5194,5.5194,5.5194,5.5194,5.5194,5.5194,5.5194,5.5194,5.5194,5.5194,5.5194,5.5194,5.5194,0.0,0.0,0.0,5.2391,0.0,0.0,0.0,0.0,5.2391,0.0,0.0,0.0,0.0,0.0,0.0,0.0,0.0,0.0,0.0,0.0,0.0,0.0,0.0,0.0,0.0,5.0782,5.17,5.4276,5.4202,5.4819,5.6603,5.6699,5.6277,5.5357,5.4469,5.3567,5.2651,5.1696,5.1191,5.1191,5.1191,5.1191,5.1191,5.1191,5.1191,5.1236,5.1917,5.2576,5.3258,5.3922,5.4596,5.5194,5.5194,5.5194,5.5194,5.5194,5.5194,5.5194,5.5194,5.5194,5.5194,5.5194,5.5194,5.5194,5.5194,5.5194,5.5194,5.5194,5.5194,5.5194,5.5194,5.5194,5.5194,5.5194,5.5194,5.5194,5.5194,5.5194,5.5194,5.5194,5.5194,5.5194,5.5194,5.5194,5.5194,5.5194,5.5194,5.5194,5.5194,5.5194,5.5194,5.5194,5.5194,5.5194,5.5194,5.5194,5.5194,5.5194,5.5194,5.5194,5.5194,5.5194,5.5194,5.5194,5.5194,5.5194,5.5194,5.5194,5.5194,5.5194,5.5194,5.5194,0.0,0.0,5.2391,5.2391,0.0,0.0,0.0,0.0,0.0,0.0,0.0,0.0,0.0,0.0,0.0,0.0,0.0,0.0,0.0,0.0,0.0,0.0,0.0,0.0,0.0,0.0,5.2253,5.4244,5.468,5.541,5.6641,5.6699,5.6277,5.5316,5.4464,5.3545,5.2606,5.1673,5.1191,5.1191,5.1191,5.1191,5.1191,5.1191,5.143,5.1902,5.2561,5.3234,5.3907,5.4581,5.4999,5.5194,5.5194,5.5194,5.5194,5.5194,5.5194,5.5194,5.5194,5.5194,5.5194,5.5194,5.5194,5.5194,5.5194,5.5194,5.5194,5.5194,5.5194,5.5194,5.5194,5.5194,5.5194,5.5194,5.5194,5.5194,5.5194,5.5194,5.5194,5.5194,5.5194,5.5194,5.5194,5.5194,5.5194,5.5194,5.5194,5.5194,5.5194,5.5194,5.5194,5.5194,5.5194,5.5194,5.5194,5.5194,5.5194,5.5194,5.5194,5.5194,5.5194,5.5194,5.5194,5.5194,5.5194,5.5194,5.5194,5.5194,5.5194,5.5194,5.5194,5.5194,5.2624,5.2499,0.0,5.2391,5.2391,0.0,5.2391,0.0,0.0,0.0,0.0,0.0,0.0,0.0,0.0,0.0,0.0,0.0,0.0,4.8449,0.0,0.0,0.0,0.0,0.0,5.0611,5.1826,5.3867,5.4515,5.5373,0.0,5.6699,5.6277,5.5316,5.4464,5.3545,5.2606,5.1673,5.1191,5.1191,5.1191,5.1191,5.1191,5.1191,5.1573,5.2232,5.2914,5.3563,5.4266,5.4925,5.5194,5.5194,5.5194,5.5194,5.5194,5.5194,5.5194,5.5194,5.5194,5.5194,5.5194,5.5194,5.5194,5.5194,5.5194,5.5194,5.5239,5.5504,5.5374,5.5239,5.5504,5.5384,5.5194,5.5194,5.5194,5.5194,5.5194,5.5194,5.5194,5.5194,5.5194,5.5194,5.5194,5.5194,5.5194,5.5194,5.5194,5.5194,5.5194,5.5194,5.5194,5.5194,5.5194,5.5194,5.5194,5.5194,5.5194,5.5194,5.5194,5.5194,5.5194,5.5194,5.5194,5.5194,5.5194,5.5194,5.5194,5.5194,5.5194,5.5194,5.5194,5.5194]}]]